GFSMA_700_spd_000.txt.gz
Wind_Speed
20 20 21 23 24 26 28 29 30 30 31 32 33 33 34 35 36 38 38 38 38 39 41 40 41 41 42 42 42 42 42 42 42 42 43 43 43 42 41 40 40 39 37
23 24 25 26 28 30 32 34 35 36 36 37 37 38 38 40 40 41 42 41 41 40 41 44 45 44 43 44 45 47 47 46 46 45 45 45 46 46 46 45 45 44 42
22 22 23 25 27 29 31 33 35 36 37 37 38 37 38 38 39 40 42 43 44 43 42 44 45 46 47 48 48 48 49 49 49 49 49 48 47 48 48 48 49 49 48
20 22 23 25 27 28 29 29 31 31 33 35 37 37 39 40 40 41 42 43 45 46 46 46 47 50 52 53 52 52 52 51 51 51 50 50 50 50 50 50 50 50 50
21 22 24 25 26 27 29 29 30 32 32 34 37 37 39 40 41 42 41 42 43 44 44 47 48 50 52 54 55 56 56 56 55 55 54 53 53 53 52 51 51 52 53
22 23 24 25 26 28 30 32 33 34 37 40 42 44 43 44 44 44 45 45 45 44 45 46 46 48 48 50 52 53 55 56 56 56 57 57 56 56 55 54 52 51 51
23 24 25 27 29 30 32 35 37 39 40 43 46 47 47 48 48 50 50 49 49 50 49 49 42 47 46 45 47 48 48 51 52 53 54 57 58 59 58 57 57 55 53
23 25 27 30 32 34 37 39 42 44 44 45 50 52 55 54 52 52 52 53 52 51 51 47 42 42 46 47 47 46 45 47 45 51 53 54 56 59 59 59 58 57 56
26 28 30 33 36 39 41 44 46 47 49 47 46 49 54 57 59 56 54 54 53 52 54 54 54 54 55 57 56 53 51 44 51 48 44 53 58 59 59 59 59 60 59
28 30 34 37 40 42 43 44 44 44 44 46 46 44 44 48 54 62 57 56 54 54 55 56 56 56 55 55 57 59 58 55 56 57 60 60 52 57 60 60 59 59 59
30 33 36 36 38 39 38 38 39 40 42 43 44 46 46 47 48 53 64 60 58 57 58 58 57 55 52 52 54 54 54 57 55 53 59 61 62 57 55 53 57 58 58
29 32 35 38 38 37 37 39 41 41 41 42 43 45 47 50 53 55 60 62 63 62 61 60 59 57 51 47 47 47 51 51 53 51 46 45 50 45 48 51 63 48 39
33 35 36 37 37 38 39 39 40 41 41 42 43 46 48 51 54 57 61 65 68 67 66 63 60 56 52 49 50 52 54 55 54 54 54 55 54 50 52 44 36 68 63
39 38 38 39 39 39 39 39 40 42 43 45 47 49 52 54 56 59 61 63 68 69 68 66 62 59 53 55 55 56 59 55 54 58 56 55 54 55 59 58 53 51 52
41 41 39 38 39 38 39 40 41 44 47 49 52 56 58 60 59 59 58 57 57 62 66 66 64 61 59 58 55 59 61 56 55 54 56 55 54 54 52 50 48 45 47
42 39 38 38 38 39 41 43 46 49 53 56 59 60 60 59 59 56 54 53 51 53 59 63 62 62 61 60 61 62 62 58 56 56 53 53 55 53 51 49 47 48 53
41 38 38 38 39 40 43 47 50 54 57 59 60 61 60 58 57 55 53 53 54 54 51 59 56 56 56 57 59 61 62 61 60 56 55 55 57 57 55 53 51 48 49
39 39 39 40 41 43 46 50 54 57 59 61 62 60 59 57 57 56 56 56 56 52 45 45 50 52 52 50 48 51 54 55 57 58 57 57 58 59 59 57 56 56 54
39 40 41 42 43 45 49 52 56 59 60 61 61 60 59 58 58 57 56 54 49 45 36 39 44 41 43 44 45 43 42 45 44 47 50 52 54 56 57 56 58 56 54
39 40 41 43 45 49 51 55 57 59 61 61 60 58 57 57 56 55 51 45 39 38 38 37 40 43 44 43 46 49 50 44 37 34 36 37 39 37 40 47 51 55 46
41 42 43 44 48 49 53 56 58 60 61 61 60 58 56 54 51 47 43 42 38 35 36 38 42 45 47 48 47 43 43 43 37 31 33 31 31 33 33 38 40 41 41
42 43 44 47 49 50 53 56 59 61 61 61 59 56 53 51 47 43 40 39 36 33 38 40 46 51 51 49 47 45 38 38 41 33 37 37 33 37 40 43 42 41 41
43 44 46 48 49 51 55 57 60 61 60 58 56 53 49 45 42 42 42 39 35 34 38 45 52 53 50 44 41 39 35 36 38 35 39 41 35 36 33 34 35 39 42
45 46 48 49 51 53 56 58 59 58 57 54 50 46 43 41 41 41 41 39 40 46 47 51 48 45 42 39 36 37 38 38 37 35 33 40 39 39 30 26 28 29 24
46 47 49 51 52 54 56 56 56 56 53 49 43 40 40 41 42 37 37 42 51 49 47 44 40 38 36 34 33 34 35 38 39 39 38 41 38 33 28 22 18 22 27
48 49 50 51 52 54 54 55 54 52 47 43 42 43 43 42 41 35 40 46 53 49 45 40 37 34 31 31 31 32 35 39 40 42 36 37 34 28 25 17 14 13 16

GFSMA_700_spd_003.txt.gz
Wind_Speed
22 22 23 25 27 28 29 30 31 32 33 35 35 36 36 37 38 39 40 39 40 39 38 38 41 42 41 40 42 42 42 43 44 45 45 45 45 45 45 45 45 45 44
22 23 24 26 27 28 29 30 31 32 34 34 35 35 36 36 37 39 41 42 41 41 40 40 42 44 45 45 45 45 45 45 45 46 47 48 48 48 48 48 48 48 47
22 23 25 26 27 28 29 30 31 32 33 35 35 34 35 36 37 38 40 41 42 44 44 43 43 45 47 48 48 50 51 50 50 50 50 50 51 51 51 51 51 50 50
23 24 26 28 29 30 31 31 33 34 35 36 37 37 37 38 39 40 42 43 46 45 46 47 46 45 45 46 49 51 52 53 54 54 54 53 54 55 55 54 53 53 52
24 26 28 29 30 31 32 34 36 37 38 39 40 42 42 42 42 43 44 44 45 45 39 46 44 45 45 46 47 48 50 51 52 53 53 55 56 57 58 57 56 55 54
26 27 29 30 31 33 35 37 38 39 41 43 44 44 43 43 43 43 42 46 43 43 42 48 47 45 48 45 44 47 48 46 49 52 52 54 56 58 59 60 60 58 57
27 28 30 32 33 36 38 40 43 43 42 44 46 46 46 45 43 43 44 45 46 46 46 45 38 32 37 44 37 39 40 44 46 43 47 52 50 54 55 58 61 62 61
27 29 32 34 36 38 40 41 42 43 43 43 44 46 49 48 46 44 45 45 47 47 46 43 45 49 52 50 49 57 60 59 59 55 55 52 51 51 55 57 59 61 63
29 32 35 37 38 38 39 40 41 40 40 40 40 43 48 51 53 49 48 47 47 47 49 50 50 51 52 54 54 53 53 57 61 60 59 61 64 63 61 55 58 60 61
32 33 34 34 36 38 38 37 37 38 40 42 43 41 41 43 49 56 51 49 49 49 51 53 53 53 53 54 53 54 55 55 56 59 60 59 63 67 65 57 60 63 52
30 28 30 32 32 33 35 37 37 38 39 40 41 43 43 44 44 49 58 58 58 59 59 61 63 62 59 55 55 42 52 57 59 57 57 57 57 58 62 67 67 39 59
28 30 33 35 35 35 36 37 38 38 39 39 39 40 43 47 51 55 60 63 66 66 66 66 64 62 58 52 44 45 47 51 52 58 61 52 55 56 61 62 64 77 38
32 34 36 37 36 36 37 37 38 38 39 41 42 44 46 49 54 57 62 67 70 70 70 68 65 62 57 51 53 54 56 57 57 61 64 61 62 64 62 60 60 64 78
37 37 39 38 37 38 38 38 39 40 42 44 47 49 52 54 58 60 61 62 69 71 72 71 65 63 56 52 50 51 53 56 60 63 66 67 62 61 64 63 65 69 72
40 41 40 38 38 38 39 39 40 42 45 47 50 53 56 57 59 60 59 59 58 66 72 69 65 60 59 56 52 50 49 50 52 60 61 61 61 61 61 58 64 67 66
42 41 39 38 37 38 39 40 42 45 48 50 54 57 58 59 60 60 59 59 57 57 62 63 62 59 55 52 50 50 50 50 49 48 48 52 59 60 59 59 58 59 59
41 40 38 37 38 39 41 43 45 48 51 54 56 58 59 60 61 61 60 59 58 55 51 60 55 52 50 49 51 48 47 45 47 46 47 45 46 47 55 56 55 54 52
41 39 39 39 40 42 44 45 48 50 53 55 57 59 60 60 60 60 59 57 56 53 49 48 50 47 47 46 47 48 49 49 49 47 46 43 43 41 40 43 48 47 49
41 40 40 42 43 44 46 47 50 51 53 55 57 59 60 60 60 58 57 56 53 48 43 43 47 45 43 42 47 49 51 52 51 48 46 44 40 38 35 31 34 36 36
40 41 42 43 45 47 48 50 51 53 54 56 57 59 59 58 57 55 54 51 46 44 42 41 43 43 44 45 48 54 58 53 52 49 47 43 39 37 36 35 33 31 34
42 42 43 45 47 49 50 51 52 54 55 57 57 58 57 56 54 51 48 46 44 43 45 42 45 46 46 51 55 56 56 54 51 46 40 36 35 38 36 36 36 36 36
42 43 46 49 50 50 50 51 53 55 56 56 57 56 54 51 48 46 46 45 41 41 41 46 49 50 56 57 55 51 51 49 51 37 41 38 31 35 35 36 34 36 38
44 46 48 50 50 49 50 52 53 55 55 54 54 52 50 48 47 48 49 48 42 41 44 45 52 56 61 54 50 49 46 45 46 43 41 41 34 33 31 33 32 33 34
46 48 49 49 50 50 51 53 54 53 53 51 50 49 48 49 48 49 47 45 46 48 52 55 54 54 51 46 43 43 44 44 44 42 39 43 38 39 38 35 30 27 28
47 48 48 49 51 52 53 53 53 52 51 49 48 48 48 50 49 44 41 48 56 54 50 46 46 45 41 37 37 39 40 43 46 44 38 42 41 42 42 31 24 23 25
48 48 49 51 52 53 53 52 51 51 50 49 48 48 48 48 46 43 46 55 53 50 47 44 40 37 36 35 35 36 39 43 46 49 39 43 42 41 39 28 17 15 18

GFSMA_700_spd_006.txt.gz
Wind_Speed
19 20 21 22 23 25 27 28 29 29 29 29 29 30 31 31 32 32 33 33 33 34 35 35 36 37 39 40 41 40 40 40 41 40 41 40 41 41 42 42 42 43 43
20 21 22 24 25 27 28 29 31 31 31 32 33 34 33 33 34 35 35 36 37 38 37 37 38 39 38 39 41 42 43 43 42 44 45 45 46 46 46 46 45 45 46
21 23 25 25 27 28 30 31 32 33 34 36 37 37 37 35 35 35 36 38 39 40 40 40 38 38 40 40 41 43 43 42 44 46 45 47 50 51 51 51 50 49 49
24 25 26 28 31 32 34 34 36 36 37 39 39 39 40 41 40 40 39 40 41 41 37 37 34 36 35 34 39 41 43 45 44 44 47 49 49 50 52 53 54 53 53
25 27 28 30 33 35 36 37 38 40 41 42 43 43 41 40 39 39 40 39 37 35 36 39 33 42 42 38 34 36 39 39 42 45 46 49 51 51 51 51 53 55 57
27 28 29 31 33 35 37 39 41 42 44 44 41 40 38 37 37 38 39 38 36 37 39 38 37 40 40 38 34 34 40 33 37 40 41 45 48 50 51 53 54 55 56
27 29 30 32 34 38 40 43 43 41 38 40 40 38 38 37 38 36 37 35 35 35 35 38 39 38 39 41 41 42 48 56 54 55 57 54 51 49 48 51 55 51 57
27 28 31 35 38 39 39 37 37 36 36 38 41 44 46 41 40 38 39 39 38 39 39 40 41 43 45 46 47 47 48 46 49 53 58 64 58 58 59 60 61 55 60
28 31 34 35 34 32 33 34 34 35 36 35 36 41 46 49 50 43 42 41 42 43 44 45 46 47 50 51 52 52 53 56 57 56 57 59 62 62 58 56 67 69 62
31 32 31 30 32 33 32 32 33 35 38 38 36 35 36 41 47 58 53 49 49 49 50 52 54 55 56 58 58 56 57 59 59 60 61 60 56 53 49 58 62 63 67
29 29 29 31 31 32 32 33 35 35 36 37 38 39 39 40 42 49 61 58 56 55 56 57 58 59 60 60 59 52 50 52 56 50 55 60 65 58 61 62 59 61 57
28 29 31 33 34 33 34 35 35 36 37 38 38 40 42 45 48 52 57 60 63 61 60 61 63 64 62 59 54 53 52 48 48 57 61 66 65 57 57 63 59 57 65
32 33 34 35 34 34 35 36 36 37 38 39 40 42 44 46 50 53 57 61 65 64 64 62 64 65 62 56 53 53 49 51 50 49 51 61 66 74 74 77 69 67 68
36 37 38 37 36 36 36 36 37 38 40 40 42 44 47 48 51 53 56 60 67 67 65 66 66 64 61 58 56 52 50 50 46 47 47 49 53 61 70 77 80 77 76
39 40 40 38 37 37 38 39 39 40 42 43 45 46 49 50 52 54 56 57 61 69 71 68 68 64 61 58 56 50 48 46 46 46 46 45 45 48 49 50 54 68 71
41 41 41 40 39 38 39 41 42 43 46 47 48 50 51 53 55 55 56 57 57 58 67 66 65 62 59 56 53 51 48 47 46 45 44 45 45 44 43 44 44 46 54
43 43 42 41 40 40 41 43 45 47 49 50 50 53 54 55 56 55 56 56 57 56 59 63 59 57 55 53 52 50 49 46 46 46 46 46 47 47 46 44 43 43 37
45 45 45 43 42 42 44 46 49 49 51 52 53 55 56 55 55 55 55 55 55 55 54 57 58 56 54 53 52 50 49 48 52 52 54 53 50 48 48 46 40 37 39
46 46 45 43 43 44 47 48 50 51 51 53 54 55 56 55 55 54 54 54 53 53 54 54 59 57 56 51 52 52 50 50 55 57 55 51 47 45 44 43 42 35 34
46 46 44 44 45 47 48 49 51 52 52 53 54 55 54 53 53 52 52 52 53 54 55 55 53 58 57 54 47 55 60 57 57 51 47 45 42 37 36 36 37 38 39
46 44 43 44 46 47 49 51 52 53 54 54 54 53 52 51 50 49 48 48 50 52 49 49 54 53 60 62 61 61 61 55 50 47 44 38 37 35 32 33 36 39 39
43 42 42 45 47 48 49 50 52 54 54 54 53 52 51 50 49 49 48 49 46 41 47 50 55 59 63 64 56 53 52 49 49 42 42 38 36 32 30 28 29 30 36
40 42 44 47 49 48 49 51 53 54 54 52 51 50 50 49 49 49 50 49 45 46 49 55 62 58 53 50 50 48 44 44 45 43 42 44 37 36 33 31 30 31 34
41 44 46 47 49 50 51 53 54 54 53 51 49 49 49 50 49 48 46 47 49 51 54 52 49 45 44 42 41 41 42 43 43 43 42 48 42 41 37 36 35 35 30
42 45 47 48 50 52 54 55 54 54 53 51 49 49 48 49 48 44 43 46 51 56 46 45 42 38 36 36 37 39 40 43 45 45 44 47 44 43 40 39 35 22 17
45 46 47 49 52 54 55 55 54 54 53 52 51 51 49 48 48 42 42 49 53 47 46 43 37 35 35 35 36 37 40 43 46 48 40 43 42 40 42 34 29 22 17

GFSMA_700_spd_012.txt.gz
Wind_Speed
15 15 16 18 18 18 19 21 22 24 25 25 26 26 27 27 29 29 30 30 31 31 30 30 30 29 29 30 30 28 28 29 29 32 32 33 34 35 36 38 39 41 40
18 17 18 18 19 20 21 23 25 26 27 27 28 29 30 30 30 30 28 28 29 29 30 31 31 33 32 33 33 34 33 36 38 37 34 35 35 36 37 39 40 41 43
18 19 20 20 21 23 24 26 28 29 30 31 32 32 31 30 28 28 28 28 29 29 30 30 32 34 34 33 34 36 37 38 41 41 41 42 41 41 41 42 42 43 44
20 20 21 21 23 25 26 28 29 31 33 32 29 27 27 29 28 28 29 30 31 30 30 31 32 34 36 37 36 37 38 39 42 44 47 47 46 46 47 47 48 47 47
20 21 21 22 24 26 28 31 33 33 31 28 28 27 28 29 28 29 29 30 30 30 30 30 30 31 33 33 34 35 37 36 37 40 42 47 52 52 53 52 52 53 53
20 20 21 24 26 28 31 32 32 30 30 29 28 28 29 30 28 27 27 28 29 29 30 31 30 31 32 34 36 37 39 41 42 45 45 45 47 49 54 57 56 56 57
19 20 22 25 28 30 30 27 27 29 31 31 29 28 27 29 27 27 27 28 28 30 30 31 32 35 36 38 39 42 43 44 46 49 50 50 51 52 54 56 58 63 68
19 21 24 27 29 29 27 28 28 29 31 32 33 33 32 29 30 30 30 31 33 33 34 35 37 39 41 42 43 44 45 47 49 50 52 54 55 57 58 62 62 63 67
20 23 26 27 27 27 28 29 30 30 31 33 36 37 39 40 40 36 35 36 39 40 41 43 44 46 47 49 50 49 48 50 51 52 54 55 56 59 62 64 65 66 68
23 24 25 25 25 26 28 30 31 32 32 33 35 36 39 43 47 52 42 40 43 45 46 48 49 51 52 54 53 53 52 53 52 52 53 55 56 59 62 65 66 66 65
22 23 24 25 27 29 31 32 34 35 36 36 37 37 39 41 44 51 58 55 50 49 50 52 52 53 54 54 53 52 52 51 53 53 54 55 58 60 62 63 65 58 49
23 24 26 28 30 32 34 35 36 37 37 38 39 41 43 45 48 52 57 60 63 63 61 58 55 54 53 53 53 53 54 53 53 53 54 56 58 59 61 61 54 52 54
26 28 31 32 34 36 37 38 39 39 38 39 40 42 44 47 50 53 57 62 66 66 66 66 62 58 55 56 55 55 55 54 54 54 56 57 58 58 60 61 56 52 47
30 33 35 36 37 39 41 41 40 40 40 41 42 44 47 49 51 53 56 61 69 69 68 66 62 59 57 58 57 57 57 56 56 57 57 57 57 57 56 56 51 47 45
33 36 38 39 40 42 43 43 42 42 42 43 45 47 49 51 52 53 55 57 61 71 73 66 63 59 59 58 57 57 58 58 57 55 54 54 54 53 49 42 41 40 43
36 39 40 41 42 44 45 44 43 43 44 45 47 49 50 52 54 55 56 58 58 61 68 63 60 60 59 60 57 58 58 58 56 54 52 51 50 49 42 45 46 47 49
39 41 41 43 44 45 45 44 44 45 46 48 49 51 52 55 56 56 57 57 58 58 62 61 58 57 57 59 60 60 59 57 58 56 54 51 50 48 49 50 51 50 48
41 42 43 45 46 46 44 45 45 47 49 50 52 53 55 56 56 56 57 58 59 58 57 59 58 58 58 58 59 61 58 59 62 59 51 48 45 42 42 44 43 44 41
42 43 44 46 46 45 44 44 47 49 51 52 53 55 55 56 57 58 59 59 58 57 55 55 58 57 55 54 55 58 60 61 57 50 47 42 38 38 35 36 35 37 43
42 43 45 45 44 44 44 47 49 51 52 53 54 53 55 57 60 61 60 58 56 54 52 51 51 53 47 46 55 62 62 54 49 44 40 35 37 34 33 34 35 37 39
43 44 44 43 42 44 46 49 51 54 54 53 52 54 57 59 58 57 55 54 51 49 47 46 47 47 53 56 61 60 53 49 44 43 42 39 39 35 32 32 33 35 38
42 42 42 42 43 45 48 49 52 54 53 53 56 58 59 59 58 56 52 49 44 41 40 42 45 52 59 60 52 47 47 46 49 39 43 41 42 39 37 34 34 35 36
40 40 40 42 44 47 49 51 52 53 53 55 58 59 59 56 53 51 50 48 43 39 40 43 56 57 53 47 45 45 44 45 48 45 43 43 34 37 32 32 29 30 32
38 39 40 43 46 48 50 51 52 53 55 57 58 57 54 52 50 49 47 42 41 46 48 50 49 46 41 40 40 43 46 47 44 39 37 43 34 34 32 28 23 26 29
37 39 42 45 48 48 50 52 53 55 57 58 56 52 50 49 47 42 37 43 47 45 43 40 34 34 35 38 37 37 37 40 41 36 29 37 34 37 33 21 18 20 25
38 41 43 45 47 48 50 52 54 57 58 56 53 49 46 44 40 36 41 44 43 40 37 35 34 34 32 28 28 29 33 36 38 37 28 36 35 37 41 20 18 18 25

GFSMA_700_spd_015.txt.gz
Wind_Speed
14 14 15 15 16 16 17 17 19 20 20 22 23 24 26 27 27 27 26 26 26 26 27 27 28 27 27 29 32 33 33 34 34 33 35 35 35 36 35 35 35 34 35
15 16 17 17 17 18 19 20 21 22 22 23 25 27 28 27 25 24 25 26 27 27 28 29 29 30 30 32 32 33 34 36 38 39 40 42 40 39 38 38 38 38 38
17 17 17 18 19 21 21 22 23 24 25 27 28 27 25 25 25 25 26 27 28 28 29 30 31 32 33 34 34 35 36 37 39 42 43 45 46 47 46 46 45 45 45
17 17 19 20 21 23 23 24 26 28 29 28 24 25 25 25 25 27 28 28 28 28 28 29 30 31 33 34 35 36 36 36 38 40 44 46 47 51 52 51 51 51 51
18 18 20 21 22 24 26 28 30 30 27 25 26 26 26 26 26 27 28 28 28 29 29 30 31 32 33 34 35 36 37 38 39 39 42 43 44 45 49 53 55 57 57
18 19 21 21 24 26 28 30 30 27 27 26 26 27 28 27 27 28 28 27 29 30 30 32 33 34 36 37 37 39 40 42 43 44 46 49 49 50 50 51 52 55 59
18 20 20 23 26 28 29 28 27 28 29 28 28 27 29 30 29 28 28 29 30 32 34 35 36 37 38 40 41 43 45 46 48 51 52 54 55 56 57 57 57 58 60
18 19 22 25 27 27 27 27 28 30 31 31 32 33 32 31 31 32 32 32 33 35 36 38 40 42 44 45 47 49 50 52 53 55 56 58 59 60 61 61 62 62 64
18 21 24 25 26 26 26 27 28 30 32 34 35 37 39 40 41 36 35 35 38 39 40 42 44 46 49 51 52 54 54 57 60 60 59 61 62 64 64 64 65 66 66
20 22 24 25 25 26 26 28 30 32 34 36 37 38 39 42 45 50 43 40 42 43 45 46 48 50 52 54 57 59 59 61 61 61 62 62 62 62 62 64 65 66 65
21 22 24 25 26 27 29 31 33 35 37 39 40 40 40 41 44 50 55 49 46 47 49 52 55 55 57 58 60 62 62 63 63 62 61 61 60 62 63 64 65 65 65
21 24 26 28 29 30 32 34 36 38 39 40 40 41 42 45 47 50 55 57 60 57 58 58 59 60 60 60 61 62 62 62 62 61 61 61 62 62 64 65 64 64 65
23 26 29 31 33 34 35 37 39 41 41 41 41 41 42 45 48 51 56 60 64 65 66 69 68 65 62 60 58 58 59 59 59 58 58 58 60 62 62 63 63 65 67
26 29 32 35 36 37 39 40 42 43 42 42 42 43 44 47 50 53 57 62 68 68 69 70 68 66 65 64 62 60 60 59 57 56 56 57 59 60 61 63 65 66 67
29 32 35 38 40 40 42 43 43 43 42 43 43 44 46 49 52 54 56 58 61 71 74 73 71 67 66 65 63 62 62 61 58 58 57 56 57 59 60 62 64 65 65
32 35 38 41 42 43 44 44 44 44 43 43 45 47 49 52 54 55 56 57 59 63 73 70 70 69 67 67 64 62 60 58 56 55 53 51 54 56 58 59 59 59 57
35 37 40 43 43 43 45 45 44 44 44 46 47 50 53 55 57 57 58 60 62 64 69 70 69 68 67 65 65 62 61 58 54 51 52 55 55 55 50 45 41 44 47
38 40 43 44 44 44 44 44 44 45 46 48 51 54 55 57 58 59 60 63 64 63 64 67 67 65 62 60 59 59 58 54 54 58 59 57 52 43 41 43 44 44 40
40 42 44 43 44 44 44 44 45 47 48 51 53 55 57 58 59 61 63 65 64 63 60 57 60 58 56 53 55 54 54 59 63 62 52 49 41 40 40 41 40 40 42
41 43 43 44 44 44 44 45 47 49 51 52 54 56 58 59 61 63 64 63 60 57 55 54 55 54 51 51 53 58 63 61 57 48 44 39 39 40 41 42 41 41 43
42 42 43 43 44 44 45 47 50 52 53 55 57 57 58 60 61 60 58 57 55 52 50 50 50 50 54 57 58 59 56 51 45 43 45 43 44 41 40 39 39 40 43
41 43 43 43 42 44 46 48 51 53 55 56 57 57 59 60 58 56 54 52 48 43 44 42 49 54 57 56 48 46 47 49 52 41 43 36 36 37 35 35 33 33 36
41 41 42 42 43 46 48 50 52 54 55 55 56 59 59 57 55 53 52 48 44 44 44 47 52 47 44 41 44 46 45 44 44 40 43 41 35 34 31 30 28 30 34
40 40 40 42 44 47 49 50 53 54 54 54 57 57 56 53 51 49 46 44 44 44 41 40 38 38 39 40 39 39 43 45 43 39 38 43 35 33 30 27 25 27 30
38 38 41 43 46 47 50 52 53 53 54 56 57 55 52 50 46 44 44 47 44 38 35 32 32 33 31 32 35 39 40 42 41 36 30 39 37 40 36 29 22 21 28
37 39 41 43 46 49 50 52 52 54 56 57 54 50 47 44 42 42 43 42 39 36 35 34 28 26 29 31 31 32 36 40 42 40 35 42 42 43 45 31 22 19 26

GFSMA_700_spd_018.txt.gz
Wind_Speed
14 13 14 14 15 15 16 17 17 19 19 20 21 22 24 25 25 24 23 22 22 23 25 25 26 25 27 29 29 31 31 33 33 35 36 36 38 38 36 36 36 37 37
15 15 16 15 16 16 17 18 19 21 21 22 24 26 25 22 21 22 22 23 23 24 25 27 28 27 29 29 31 32 32 33 34 36 38 40 41 42 42 41 40 39 40
17 17 16 17 17 18 19 19 21 22 23 25 26 24 22 23 24 23 24 25 25 26 27 27 28 28 30 30 31 33 33 33 33 35 36 39 40 43 45 46 46 47 47
18 17 17 18 19 19 20 21 23 26 26 26 23 24 24 25 25 25 26 26 26 27 27 28 28 29 30 30 32 33 35 36 36 35 35 38 39 41 42 45 47 48 50
17 17 17 18 19 20 23 25 26 27 25 24 25 26 25 26 26 27 27 28 28 28 29 31 31 31 32 33 33 34 36 36 37 38 39 40 41 41 41 43 45 46 47
16 17 17 18 21 23 26 27 28 26 24 24 24 25 26 27 28 29 29 29 28 30 32 33 34 35 36 36 38 38 39 40 41 43 44 45 46 47 49 50 51 51 51
16 16 17 19 22 25 27 27 27 26 26 26 26 26 28 29 30 30 30 30 31 32 34 35 37 38 39 40 41 42 44 45 46 48 50 52 53 54 56 57 59 59 59
15 15 18 21 25 26 26 26 26 27 27 27 28 30 30 29 29 30 31 33 34 35 36 38 39 40 41 43 44 46 48 49 51 54 56 57 58 61 62 63 64 65 64
14 16 20 23 25 26 26 27 27 27 28 29 31 34 37 38 40 35 33 32 35 36 38 39 40 42 44 46 48 50 52 54 56 57 59 60 63 64 66 66 67 68 67
14 18 21 22 24 26 27 28 29 29 31 32 34 35 38 42 44 48 44 39 39 40 41 41 43 45 48 51 53 55 57 58 59 60 61 62 64 64 66 66 67 69 70
15 17 20 23 26 28 29 30 31 32 34 36 38 39 39 40 42 47 51 46 41 41 44 46 50 53 55 56 59 61 63 64 64 64 63 63 63 63 64 65 67 69 70
15 18 21 25 28 31 32 34 34 35 37 38 40 41 42 44 44 46 51 52 54 52 52 53 54 56 58 60 62 63 64 65 66 67 66 65 65 63 63 65 67 68 69
17 20 24 28 31 34 36 37 37 38 39 40 41 41 42 43 45 47 51 54 58 59 62 64 64 63 63 63 64 64 64 64 65 66 65 65 64 65 65 66 67 67 68
20 23 27 31 34 36 39 40 39 40 42 42 42 43 43 44 46 49 53 58 63 63 67 69 69 69 69 70 69 69 69 66 63 63 62 63 63 63 63 64 64 65 66
23 26 30 34 37 39 41 42 42 43 43 43 44 44 45 46 48 51 53 55 60 69 73 73 73 72 71 70 70 69 66 63 60 59 57 57 58 59 59 61 61 62 65
25 29 33 36 39 42 44 43 44 45 44 44 44 45 46 49 51 53 54 56 57 61 72 71 72 72 70 68 63 60 59 58 55 51 50 47 46 47 48 56 60 60 57
28 32 36 39 42 44 45 45 46 45 44 43 45 47 49 51 53 54 56 58 60 63 69 72 69 67 65 63 61 58 55 51 50 48 48 49 51 54 52 51 49 47 43
32 36 39 41 44 46 46 46 45 44 44 45 47 49 51 53 55 56 58 61 64 65 66 69 67 64 60 57 55 51 48 49 51 51 52 51 48 45 44 43 40 39 40
36 39 41 43 45 45 46 46 45 44 45 47 50 52 54 55 56 58 61 64 64 63 61 61 63 57 55 53 51 51 52 50 48 45 44 42 42 42 42 42 41 42 44
38 41 43 46 45 45 46 45 45 45 47 49 51 53 54 56 58 61 63 61 59 58 56 54 53 54 54 54 52 50 49 45 46 44 40 36 37 37 38 39 41 42 43
40 42 45 45 46 45 45 44 46 48 49 51 51 53 55 58 60 60 58 57 55 52 50 48 51 53 52 46 45 45 48 45 38 42 41 34 37 35 33 33 34 36 38
41 44 44 44 44 44 44 45 47 50 50 51 53 55 57 58 58 56 54 51 47 43 45 47 50 46 43 43 43 42 41 44 43 37 44 38 37 35 33 32 32 32 32
42 43 43 43 43 43 44 46 48 50 51 53 55 56 57 56 54 52 48 45 42 41 38 42 43 39 42 39 38 40 40 42 43 42 44 43 38 37 35 33 32 33 32
41 41 42 42 42 44 46 47 49 51 53 54 55 55 55 54 50 47 45 44 43 39 36 36 36 34 33 35 37 40 42 43 42 41 44 46 41 40 37 33 29 28 30
39 40 40 40 43 44 46 48 50 53 54 54 54 53 52 49 46 44 43 45 41 35 32 31 26 28 30 33 36 38 39 43 43 40 37 45 42 44 38 27 20 19 26
38 37 38 41 44 46 47 49 52 54 55 56 55 51 45 43 42 41 42 41 37 34 29 25 26 27 30 30 31 34 37 39 42 43 36 44 43 42 40 29 17 18 20

GFSMA_700_spd_021.txt.gz
Wind_Speed
15 15 16 15 15 15 15 15 16 17 18 18 20 21 22 22 21 19 19 19 21 21 22 23 23 24 25 25 27 26 28 29 31 32 32 35 36 37 38 38 38 37 36
17 16 17 16 16 16 16 16 17 18 19 21 23 23 23 20 19 20 20 20 22 22 23 24 24 25 26 26 27 27 27 27 29 31 32 34 36 38 40 42 42 42 41
18 18 17 16 16 17 17 17 18 19 21 22 23 22 20 20 20 21 21 21 23 24 24 25 25 26 27 28 29 30 30 29 29 30 31 32 34 36 38 41 43 44 45
19 18 17 16 17 17 17 18 19 21 22 22 22 21 21 21 21 22 23 23 25 26 27 28 28 29 30 30 31 32 33 33 33 33 34 35 35 36 36 36 38 40 41
19 17 16 16 17 17 18 19 21 22 22 21 22 21 21 22 22 23 25 26 27 29 30 31 32 33 33 34 35 36 37 37 37 37 38 39 40 40 40 40 41 41 42
18 16 16 16 16 18 20 22 22 22 21 21 22 22 22 23 24 25 27 28 30 30 32 33 35 35 36 37 38 39 40 40 41 41 42 44 44 44 45 46 47 48 49
16 15 16 16 16 18 21 22 23 23 23 23 22 23 24 24 25 25 27 29 31 32 33 35 37 39 39 40 41 42 42 43 44 46 47 48 50 51 51 53 54 55 56
16 16 16 15 16 19 20 22 24 25 25 25 26 26 26 25 25 26 28 30 31 33 35 37 39 40 42 43 43 45 46 47 49 51 53 55 57 57 58 60 61 62 63
16 15 15 15 17 19 21 23 25 26 28 28 28 30 31 32 34 30 29 31 32 33 35 36 38 40 42 44 46 48 50 52 53 55 57 59 61 61 63 64 65 67 68
15 14 13 15 17 20 23 25 27 28 29 29 30 31 33 35 38 42 39 39 40 38 37 38 40 41 44 47 50 52 54 56 58 60 62 64 64 65 65 66 67 68 69
13 12 13 15 18 22 25 28 30 31 32 32 32 33 35 36 39 43 46 42 41 39 40 42 44 46 49 52 55 58 61 63 65 66 66 66 66 65 66 66 66 66 66
13 13 14 17 20 24 27 30 33 35 35 35 35 37 38 40 42 45 49 48 49 46 45 46 47 49 53 56 59 61 63 65 66 67 68 68 68 68 67 66 65 64 62
14 14 17 19 23 26 30 33 36 38 38 38 38 39 40 42 43 44 46 49 52 53 56 59 59 59 61 62 63 64 65 64 64 64 64 64 65 65 65 65 64 60 52
15 17 19 22 26 29 33 36 39 40 40 40 41 41 42 43 43 45 48 52 55 57 61 65 64 65 66 68 68 67 68 67 66 64 61 58 58 59 59 59 58 58 55
17 20 22 25 29 33 36 39 41 42 42 42 43 43 43 43 44 47 50 52 56 64 67 66 66 68 67 68 67 67 66 64 60 57 54 53 51 50 51 51 52 54 48
20 22 25 29 32 36 39 41 43 44 44 43 44 43 44 45 47 49 51 52 54 58 68 65 67 67 67 67 65 62 58 54 50 49 49 48 49 48 47 47 50 51 54
23 26 29 32 36 39 42 44 44 45 44 44 44 44 45 47 48 49 51 53 55 57 65 69 66 64 63 61 57 53 51 49 47 41 39 39 38 40 41 43 43 44 45
26 29 32 35 39 41 44 45 46 45 44 44 44 45 46 48 49 51 52 54 56 57 61 66 63 60 57 54 50 46 44 42 40 39 38 35 36 37 39 41 43 44 46
29 32 35 38 41 43 45 47 46 45 44 44 46 47 49 50 51 52 54 56 57 58 58 59 59 54 52 47 45 43 43 42 40 38 32 33 36 35 37 39 40 41 43
32 35 38 40 42 45 46 46 46 45 44 45 46 48 50 52 53 54 56 58 59 57 53 51 51 52 47 43 43 45 43 35 38 36 30 33 33 32 35 35 37 38 39
35 37 39 41 44 44 45 44 44 44 45 46 47 49 51 52 53 55 56 56 54 51 47 46 49 47 41 41 42 39 39 38 33 39 33 33 36 35 35 35 36 37 39
36 37 39 42 43 43 43 43 44 45 47 49 50 50 51 52 53 54 53 50 47 44 42 43 45 41 41 40 36 38 40 41 39 35 42 36 39 38 37 36 35 37 38
35 37 40 41 41 42 41 43 45 47 48 49 51 51 52 54 54 52 48 44 43 38 37 39 39 37 37 35 38 38 38 41 41 40 42 40 37 37 34 30 29 33 35
36 38 39 39 39 40 41 44 46 47 49 50 51 51 53 54 51 47 44 43 39 35 32 32 32 30 33 35 38 41 42 44 40 36 38 44 39 35 26 20 23 27 30
35 36 37 38 38 40 43 45 47 48 50 51 51 51 52 49 45 41 41 40 37 31 30 28 27 28 30 33 37 41 41 41 39 32 31 41 34 31 22 16 18 21 24
34 34 36 37 40 41 44 45 48 51 52 54 54 51 45 41 39 38 37 37 35 31 26 23 25 28 32 33 34 34 35 37 38 35 32 40 32 31 25 20 25 25 25

GFSMA_700_spd_024.txt.gz
Wind_Speed
17 17 16 16 16 15 15 15 16 17 18 18 19 19 20 20 20 19 19 19 19 19 20 20 21 22 22 23 24 24 25 26 27 29 30 31 33 35 37 39 40 40 38
21 19 18 17 17 16 16 16 17 18 19 20 21 21 21 19 18 18 19 19 19 20 21 21 22 23 24 24 25 26 26 26 28 28 29 30 31 33 35 37 39 41 42
23 21 19 18 17 16 16 16 17 19 21 22 21 20 18 17 17 19 19 20 21 22 23 23 24 25 26 27 28 30 30 30 30 31 32 32 33 34 34 35 37 39 41
23 21 19 17 16 16 16 16 17 20 22 22 20 18 18 18 19 20 21 22 24 25 26 27 28 29 29 31 33 33 34 35 36 36 36 36 37 38 38 38 37 37 38
23 20 18 16 15 15 16 17 19 20 21 21 20 19 19 20 20 21 23 23 25 26 28 29 30 32 34 35 36 37 38 39 39 40 41 41 42 43 43 43 42 41 42
23 19 17 15 15 15 17 18 19 19 20 20 21 21 21 21 22 23 25 25 27 28 30 32 33 35 36 38 39 40 41 42 42 43 44 45 45 46 47 48 47 47 48
24 19 16 16 15 16 17 18 18 19 21 22 23 24 23 24 25 25 26 28 29 29 32 34 36 38 39 40 41 42 43 43 44 45 46 47 48 50 51 52 52 53 55
20 22 17 15 15 16 16 17 19 21 22 24 25 25 25 26 26 26 28 29 32 33 35 37 38 40 41 42 43 44 45 46 47 48 50 51 53 54 56 58 58 59 61
24 22 19 15 15 15 15 17 20 22 24 25 26 28 30 31 31 29 29 31 33 34 35 36 36 37 39 42 44 45 47 49 51 52 54 56 58 60 62 64 65 66 68
31 21 18 15 15 15 16 18 20 23 26 28 28 28 29 32 34 36 35 38 38 37 36 35 35 36 39 42 45 48 50 53 56 58 61 63 65 66 68 69 70 71 72
27 21 18 15 15 16 17 20 23 25 28 30 31 32 32 34 36 39 39 38 42 42 44 43 41 42 45 49 52 55 58 61 63 66 68 69 71 71 71 71 70 71 72
24 20 17 16 16 17 20 23 25 29 31 34 35 35 36 37 38 42 45 45 45 43 44 44 46 47 49 53 56 59 61 64 67 69 71 72 73 73 73 72 70 69 65
22 19 18 17 18 20 23 26 29 32 35 37 38 39 39 39 41 43 46 47 48 47 49 50 52 54 56 58 60 62 65 66 67 66 67 67 67 68 68 68 68 67 65
23 19 18 19 20 23 26 29 33 36 38 40 41 41 41 42 43 44 45 48 50 51 53 57 58 60 61 64 66 68 69 68 66 65 61 59 57 56 57 59 60 60 57
21 20 20 21 23 26 29 33 36 39 41 43 44 43 43 44 44 45 46 48 52 57 59 59 60 62 63 64 65 65 65 62 57 54 52 51 50 49 48 47 49 52 53
21 21 22 24 26 29 33 36 39 41 44 45 45 45 45 45 45 46 48 50 52 56 63 60 61 62 62 63 62 60 57 55 50 46 43 40 40 43 43 43 43 44 46
23 23 24 27 29 33 36 39 41 44 46 46 46 46 45 46 46 48 50 52 54 56 62 62 61 60 60 59 56 53 51 49 43 39 38 36 37 38 40 39 40 41 43
25 25 27 29 33 37 39 42 43 46 46 46 46 46 46 47 48 50 52 53 55 55 59 64 61 59 57 53 51 50 47 43 40 38 31 33 35 36 38 39 40 40 41
27 27 29 32 37 40 41 42 46 46 46 46 46 45 46 48 49 51 53 54 56 57 56 59 60 54 52 50 48 45 44 42 36 36 32 34 35 36 36 38 40 41 42
28 29 31 36 39 41 42 45 46 46 45 45 45 46 48 49 51 52 53 55 56 56 54 53 51 51 50 46 44 44 43 35 37 38 32 37 36 35 36 36 37 39 42
29 30 36 38 40 40 42 45 46 45 44 44 45 47 49 50 51 52 54 54 53 51 48 46 47 48 47 42 42 38 39 39 34 42 39 32 35 32 33 35 37 40 43
30 35 37 38 38 41 43 44 44 44 44 46 47 48 50 52 52 53 52 49 47 45 43 43 45 46 41 39 36 37 40 41 44 36 43 32 33 30 32 31 32 34 33
34 35 36 36 39 41 41 42 42 43 45 46 48 49 51 52 52 51 48 45 43 40 39 40 41 39 39 33 37 37 39 42 45 40 40 36 31 32 28 23 26 27 27
32 33 34 37 39 39 40 40 42 44 45 47 48 49 51 50 48 46 45 43 42 39 37 35 36 34 32 34 36 39 42 43 39 37 39 41 32 32 21 16 19 20 21
30 33 35 36 37 38 39 41 43 45 47 49 49 48 47 46 45 42 42 42 41 36 33 31 30 30 30 32 36 41 40 41 40 36 30 39 33 35 23 11 16 20 22
31 33 34 35 36 37 40 42 43 46 48 49 48 46 45 43 40 38 39 39 37 33 31 26 28 29 32 34 36 37 36 37 39 38 31 38 36 37 31 15 15 20 25

GFSMA_700_spd_027.txt.gz
Wind_Speed
17 17 17 17 18 18 16 16 17 17 17 18 18 20 21 22 22 22 21 19 19 19 20 20 20 20 20 21 22 22 22 23 24 25 26 27 28 30 31 33 35 37 39
20 20 20 19 19 19 18 18 17 18 18 19 20 21 22 22 21 19 21 17 18 19 19 20 21 22 23 24 25 25 25 25 26 27 28 28 29 30 32 33 34 36 38
21 22 22 20 20 19 18 18 18 19 19 20 21 21 21 20 19 19 19 19 18 20 21 21 22 23 25 26 27 28 29 30 30 31 31 32 33 34 35 35 35 36 37
24 23 24 22 20 19 18 18 18 18 20 21 20 20 18 18 19 19 19 20 21 22 22 23 25 26 27 29 30 31 33 34 35 35 36 36 37 37 39 40 40 40 40
28 27 25 22 20 18 17 17 18 19 20 20 19 19 20 20 20 21 22 23 23 24 26 26 28 29 30 32 34 35 36 37 38 39 40 40 41 42 42 43 44 44 44
32 28 24 21 19 17 17 16 18 19 19 19 20 21 22 22 23 24 25 26 26 27 29 30 31 33 34 35 37 38 40 40 40 41 41 42 42 43 43 44 45 46 47
31 27 25 20 18 17 16 16 17 17 17 19 21 23 24 24 26 26 27 28 30 30 31 33 34 36 38 40 40 40 41 41 41 41 42 43 44 45 45 47 48 49 50
29 27 25 20 17 17 16 16 16 16 17 20 22 24 25 28 25 26 28 29 31 33 34 35 37 39 41 42 42 42 42 42 43 44 46 47 48 50 51 53 54 56 57
29 28 23 22 20 17 16 15 16 17 18 20 23 26 29 29 30 29 30 30 32 34 35 37 38 39 40 41 42 43 43 44 46 48 50 52 54 56 58 60 62 63 64
32 24 24 22 22 19 16 16 16 18 21 23 25 27 30 32 34 33 34 35 37 37 38 38 36 36 38 40 42 43 45 47 49 52 54 57 59 62 64 66 68 70 71
31 26 32 28 22 19 17 17 18 20 23 26 28 32 34 36 37 38 36 36 39 41 43 45 43 42 42 44 46 49 51 53 56 58 60 63 66 68 69 71 72 73 74
30 28 33 27 23 21 19 19 21 23 26 29 32 34 37 38 39 41 43 41 43 42 44 44 43 44 46 48 50 53 55 58 62 64 66 69 70 71 72 73 72 71 70
28 27 28 25 23 21 20 21 24 26 30 33 35 38 41 41 42 42 45 46 47 43 43 43 46 49 52 54 55 58 61 63 65 65 65 66 67 67 66 65 63 63 62
27 27 27 25 23 22 22 24 27 30 34 36 39 41 44 44 44 44 46 48 49 47 47 48 49 52 54 56 59 62 64 65 66 65 63 60 58 56 56 55 55 53 53
27 27 26 25 24 23 24 27 30 34 37 40 42 45 45 45 45 45 45 46 49 53 53 51 54 56 58 59 61 63 64 64 60 55 53 51 49 48 47 46 44 44 43
27 26 27 25 24 25 27 30 34 37 41 44 45 47 47 46 46 46 46 47 49 53 58 55 57 57 59 61 61 61 60 55 52 49 47 43 42 44 43 42 40 40 40
26 27 27 25 26 27 30 33 36 41 44 46 47 48 47 47 46 46 47 49 51 53 58 58 58 59 59 59 59 55 50 49 47 41 41 39 36 37 39 40 40 39 39
26 27 26 27 28 30 33 36 40 44 46 46 48 48 47 47 46 47 49 51 52 54 58 61 60 59 57 54 52 50 46 45 41 39 36 30 35 36 38 41 41 41 41
27 28 28 28 31 33 36 40 43 45 45 47 47 46 46 46 48 49 51 53 54 56 57 60 60 56 52 49 49 46 45 42 40 33 35 32 36 36 40 40 39 39 39
27 28 28 30 34 37 40 42 43 43 46 46 46 45 46 47 49 50 52 54 55 56 56 55 54 51 49 48 45 45 42 40 35 34 37 34 40 36 35 33 33 35 39
26 27 29 33 37 39 43 42 41 44 45 45 44 45 47 48 50 51 53 54 53 54 52 49 48 47 47 45 42 43 40 39 35 35 46 35 39 33 31 28 31 35 35
27 30 33 36 38 43 40 39 42 43 43 43 44 45 47 49 52 53 52 52 50 48 46 44 45 45 43 40 40 39 38 41 43 34 43 40 34 32 28 26 29 33 30
29 31 34 38 40 37 38 40 41 41 42 44 45 46 49 50 50 50 50 48 45 42 41 41 42 41 40 37 38 39 37 40 42 40 42 42 32 29 28 25 26 30 27
29 32 36 35 35 37 37 39 39 41 42 44 46 48 49 49 48 48 46 44 43 41 38 37 36 36 34 34 36 39 41 44 41 36 37 45 34 32 30 24 21 24 26
32 32 31 33 34 37 35 38 39 41 43 46 48 47 47 48 46 44 44 43 40 37 34 31 30 31 33 32 34 40 39 40 41 34 32 41 38 37 31 23 18 20 26
27 29 31 33 33 35 37 38 40 42 45 47 46 45 45 44 43 41 40 39 38 34 31 27 26 28 31 33 33 34 35 38 40 38 33 41 40 42 38 26 20 18 22

GFSMA_700_spd_030.txt.gz
Wind_Speed
16 16 16 16 16 16 17 17 18 18 17 18 18 18 20 20 21 22 19 19 18 18 17 17 17 17 17 18 19 20 20 20 21 23 24 24 25 25 26 27 29 30 31
18 18 18 18 18 17 18 19 19 19 19 18 18 19 21 22 21 22 18 17 18 18 17 17 18 18 19 20 21 22 22 23 23 25 26 27 28 28 29 29 30 31 32
18 19 18 20 20 20 19 20 19 19 19 19 19 19 20 20 20 19 20 17 17 19 18 19 20 20 21 22 23 24 25 26 27 28 29 30 31 31 32 33 34 34 35
21 21 21 22 22 21 20 20 19 19 19 19 19 18 18 18 18 19 20 20 20 19 21 22 23 23 24 25 26 28 28 29 31 33 33 34 34 35 35 36 37 38 39
24 24 25 26 25 23 21 19 19 19 18 18 18 17 18 18 19 20 22 22 23 24 24 24 26 27 28 29 30 32 33 34 35 36 37 37 37 38 39 39 40 41 42
26 26 27 28 27 24 21 19 18 18 17 17 17 17 17 19 20 22 23 24 26 25 27 29 29 30 32 32 33 34 36 37 38 39 39 40 40 40 40 41 41 41 42
27 29 29 28 27 22 21 19 18 16 16 16 16 17 17 19 21 22 25 26 28 28 29 30 31 33 34 36 37 38 39 39 39 40 40 41 41 42 43 43 44 44 45
27 29 30 28 26 23 20 19 18 16 16 15 16 18 20 21 22 24 26 28 29 30 31 32 33 35 37 38 40 41 41 41 40 41 42 43 44 46 47 49 50 51 52
30 30 30 28 25 22 20 20 18 17 15 16 18 20 24 25 26 28 29 30 31 32 32 34 35 37 39 40 40 40 41 41 41 43 44 46 48 50 52 54 56 57 58
31 29 28 27 24 24 21 21 19 18 17 17 19 23 25 28 31 32 33 34 34 35 35 36 36 37 38 39 38 39 40 41 43 46 48 50 52 54 56 58 60 62 64
32 31 29 28 27 26 23 23 21 20 19 20 23 26 29 32 36 38 37 36 36 37 38 40 40 40 41 41 41 41 43 44 46 48 50 52 55 58 61 63 65 67 69
33 32 31 29 25 31 24 26 23 21 21 23 26 29 32 36 39 43 45 42 42 38 40 40 40 40 41 44 46 48 50 52 54 56 58 60 63 65 67 69 69 70 70
32 33 31 29 28 28 27 26 24 23 23 25 28 32 36 39 42 45 46 46 45 42 41 38 40 42 45 48 50 51 53 56 58 60 61 64 66 66 67 65 63 62 59
31 31 28 31 25 26 28 26 25 25 26 28 31 35 39 42 44 46 47 48 49 47 43 41 41 43 47 49 51 54 57 60 60 61 63 63 62 59 59 58 57 55 52
32 31 29 27 29 28 29 27 26 27 29 31 34 39 43 45 45 47 46 47 50 52 49 44 48 48 50 51 53 56 59 60 60 59 57 55 53 52 51 50 49 46 43
34 30 27 31 28 28 28 28 28 29 32 35 38 43 46 46 47 47 47 46 46 49 55 51 52 53 54 54 55 58 59 58 54 51 49 48 45 43 43 43 41 38 37
30 26 30 28 27 28 28 28 30 31 34 38 44 47 47 48 47 46 46 45 46 48 54 54 54 56 57 58 58 57 54 50 48 45 42 39 37 37 37 36 37 38 37
24 33 27 30 29 29 28 29 31 34 38 43 47 49 47 47 47 46 45 46 48 50 54 57 56 57 58 56 56 53 49 46 44 38 35 33 30 35 35 38 40 40 40
31 29 29 27 27 28 29 31 33 38 43 47 48 47 47 46 45 45 46 48 50 51 52 56 58 56 54 51 50 47 46 42 37 33 31 32 31 36 37 40 42 40 39
26 29 26 27 27 28 29 33 39 42 46 47 46 46 45 44 45 46 48 50 51 51 52 54 54 52 49 45 44 44 42 37 35 27 30 35 35 39 36 37 37 36 36
25 29 26 28 24 28 35 38 41 44 44 44 44 43 43 44 46 48 50 52 52 53 53 52 50 48 44 41 40 39 39 36 32 30 35 40 37 36 33 32 32 31 32
25 33 28 25 32 35 37 40 44 41 41 42 41 41 43 44 46 48 49 50 50 50 50 48 47 43 40 37 36 37 37 39 40 33 38 40 38 34 31 29 28 27 30
21 23 28 29 32 35 40 40 39 39 40 40 40 42 44 45 46 47 49 49 47 43 43 43 41 38 37 33 35 38 38 40 40 36 40 44 35 33 29 28 27 26 29
22 21 25 31 35 35 36 36 37 37 38 40 41 43 45 46 47 48 49 48 45 40 37 36 34 33 32 33 36 39 41 42 39 35 34 42 36 35 27 27 25 23 23
19 24 29 31 31 32 32 34 35 37 39 40 42 44 45 47 48 48 47 45 41 36 33 30 28 29 32 33 34 38 37 40 40 38 33 42 38 38 32 26 23 20 21
23 26 27 27 28 31 32 33 36 38 40 43 43 44 44 45 45 44 43 42 39 34 31 26 24 26 29 30 30 32 35 40 42 42 35 42 41 42 39 28 25 23 23

GFSMA_700_spd_036.txt.gz
Wind_Speed
17 15 14 14 16 15 14 14 14 15 16 16 16 17 15 15 15 16 16 16 16 15 15 15 15 16 16 17 18 18 18 18 18 19 20 20 21 21 22 22 23 23 23
20 21 16 16 18 17 16 16 16 17 18 18 18 18 16 16 15 15 15 15 16 16 15 16 16 16 18 19 19 20 21 20 20 21 22 22 24 24 25 26 27 27 27
21 19 19 21 20 19 18 18 19 19 20 20 20 20 19 16 15 14 15 15 16 17 17 18 18 19 20 22 22 23 24 24 25 25 26 26 27 27 28 29 30 31 31
21 19 21 22 22 21 22 22 22 22 22 22 21 20 19 17 15 14 14 14 15 16 18 19 20 22 23 25 26 27 28 28 29 30 30 31 31 31 32 32 33 34 34
24 24 24 24 25 24 22 22 22 22 23 23 22 21 18 17 15 14 13 14 15 16 18 19 21 23 25 27 28 30 31 31 31 33 34 34 35 35 36 36 37 37 37
22 22 23 24 25 22 21 21 21 21 22 23 22 20 18 17 15 14 14 15 16 18 19 21 23 25 27 29 30 31 32 33 34 35 36 37 37 38 38 38 39 39 40
23 21 23 25 23 22 21 22 21 20 21 23 22 21 19 18 16 15 16 17 19 21 23 24 26 28 29 30 32 34 34 36 36 37 38 39 40 40 41 41 41 41 41
26 23 23 23 23 23 21 22 21 19 20 22 22 21 20 19 18 18 19 20 22 24 26 28 30 31 32 34 35 35 36 38 38 39 40 40 41 42 43 43 43 44 44
29 25 23 24 25 25 24 23 21 20 19 21 23 23 22 21 21 20 21 23 25 28 30 32 34 35 36 36 37 37 38 39 39 40 41 41 42 43 44 45 46 48 49
32 29 28 26 27 29 27 24 23 22 20 22 24 24 24 24 23 24 24 26 28 31 32 34 36 38 40 39 39 40 40 39 39 40 41 42 44 46 47 48 50 52 54
38 34 31 29 29 30 31 27 25 23 25 26 27 27 26 26 26 27 27 29 31 33 35 37 39 41 43 43 43 43 42 40 40 41 42 44 47 50 51 53 54 57 58
41 39 34 33 30 31 34 32 29 26 25 29 27 31 31 29 29 30 31 32 33 34 37 39 41 43 44 45 45 44 43 43 43 44 46 48 51 53 55 56 58 61 63
43 43 38 34 32 34 35 38 31 30 25 31 30 35 34 32 33 34 35 36 38 39 41 41 42 43 46 46 45 45 46 47 48 50 51 53 55 58 61 63 66 67 69
47 42 40 36 35 37 40 39 35 33 30 29 37 33 36 35 35 36 37 40 44 45 46 44 43 44 45 46 46 48 50 51 52 53 55 57 60 62 64 66 68 68 66
44 41 39 36 38 40 38 39 37 38 30 32 35 40 37 36 37 38 40 43 47 53 54 48 47 45 45 46 47 50 52 53 53 55 58 60 61 62 63 64 63 60 59
40 38 38 37 39 38 38 42 41 45 31 36 38 34 38 37 38 39 42 47 50 54 58 54 49 48 47 48 50 53 55 57 58 59 60 61 61 59 58 55 53 51 49
39 38 38 38 40 40 40 47 42 38 33 35 37 37 39 40 40 42 46 51 52 55 56 54 52 51 51 51 52 53 56 58 59 58 57 57 55 52 49 47 45 44 44
37 35 36 38 39 38 42 49 37 32 35 38 34 39 41 41 41 48 52 51 53 52 53 53 54 54 54 53 55 57 56 57 58 55 53 50 45 41 42 41 41 42 42
34 34 36 38 38 39 49 36 45 37 38 37 38 41 43 42 45 49 50 50 50 50 51 54 56 55 55 55 57 57 58 55 51 48 42 38 36 37 38 40 42 43 45
33 35 35 36 36 41 48 35 41 38 39 38 40 41 41 44 46 48 48 47 49 50 52 54 55 57 58 56 56 58 57 50 47 38 33 34 37 38 37 39 41 41 43
33 32 34 39 45 43 42 44 38 36 34 33 35 39 42 44 45 44 46 47 50 52 53 55 57 58 57 56 54 53 52 46 40 35 33 35 36 35 31 34 37 39 41
30 35 38 36 39 42 39 37 25 27 30 34 38 41 41 41 43 44 46 49 52 53 54 55 57 57 55 53 51 47 45 42 40 34 33 33 31 34 33 35 35 37 39
31 34 34 40 30 26 22 21 23 28 32 36 39 37 39 41 44 46 48 50 51 52 51 52 53 52 51 46 45 42 40 40 40 34 34 37 34 36 35 35 34 36 37
26 27 22 17 16 18 17 21 26 31 33 35 36 38 40 42 45 47 49 50 51 51 50 49 48 44 42 40 39 39 40 42 40 34 31 42 39 40 39 37 34 33 33
8 8 11 11 15 17 20 24 27 30 34 35 37 39 42 45 47 47 50 52 52 48 45 43 39 37 35 34 35 39 39 41 39 36 28 43 43 44 42 36 32 28 26
7 8 9 12 17 19 22 25 27 32 35 36 38 41 43 45 47 48 50 50 49 45 41 35 31 28 29 31 33 36 38 40 40 43 33 41 41 42 45 38 33 27 26

GFSMA_700_spd_039.txt.gz
Wind_Speed
19 17 16 15 14 14 14 13 14 14 16 16 17 17 17 17 16 16 16 15 15 14 15 15 16 16 16 16 16 17 17 18 19 19 20 20 20 20 21 21 22 22 22
21 21 19 17 16 17 16 16 16 16 17 18 18 18 18 18 16 15 15 15 14 15 15 15 16 18 19 19 19 20 20 20 21 21 22 23 23 23 24 25 25 26 26
23 23 20 17 18 19 18 17 18 19 20 21 21 21 19 18 17 16 15 14 14 14 15 16 17 19 20 21 22 23 24 25 25 25 26 27 27 28 28 29 30 30 30
23 22 18 18 21 20 21 20 21 22 21 21 21 21 21 19 17 17 16 15 14 13 14 16 18 19 21 22 24 25 26 26 27 28 30 30 31 32 33 33 33 34 34
24 22 20 22 24 24 23 22 23 21 20 20 20 21 21 19 18 17 16 15 14 14 15 17 19 21 23 25 26 27 28 29 29 30 31 32 33 33 34 35 35 36 36
26 25 25 25 25 23 24 23 23 21 20 20 20 21 21 20 19 18 16 16 16 16 18 19 21 24 25 27 28 29 30 32 33 33 34 34 35 36 36 36 37 37 38
31 28 24 25 25 23 23 24 23 20 20 19 19 20 21 21 20 19 18 18 18 19 20 22 24 26 28 29 30 31 32 34 35 36 37 37 37 38 39 39 39 39 39
33 29 28 26 26 23 23 23 23 21 20 20 19 19 22 23 22 21 20 20 21 22 23 25 27 28 30 32 33 34 35 36 37 38 39 39 40 40 41 41 41 41 41
35 31 30 28 26 25 24 23 25 24 22 22 20 21 23 24 24 24 23 23 24 24 25 27 29 31 32 34 36 37 38 38 39 40 41 41 41 41 42 42 43 44 45
36 31 31 30 30 27 25 25 27 27 25 24 24 22 24 25 27 28 27 27 27 27 28 30 32 34 36 38 39 40 41 41 41 41 41 42 42 43 44 44 45 46 47
38 35 31 34 34 30 28 26 29 32 29 28 27 25 25 29 29 31 32 31 31 31 30 32 35 37 40 42 43 44 45 45 44 43 43 43 44 46 47 49 50 51 52
42 42 35 34 37 35 31 29 30 33 33 29 30 27 28 33 30 33 36 35 34 32 32 35 37 40 43 45 46 46 47 47 46 45 45 46 48 50 51 52 53 54 56
44 42 39 38 36 37 35 32 33 33 35 36 32 36 28 32 35 36 38 39 38 36 34 35 39 43 47 49 49 49 49 49 48 48 49 50 51 53 54 55 57 58 60
44 42 40 38 36 38 39 37 37 37 36 39 39 37 33 37 35 43 39 42 43 42 41 39 41 45 50 51 50 51 50 51 51 51 52 53 54 55 57 59 61 62 64
53 46 43 42 39 37 39 40 40 42 44 44 43 41 42 38 36 41 44 42 44 46 47 43 47 50 52 52 50 51 51 52 53 54 55 55 57 58 60 62 63 64 66
44 47 45 43 40 39 40 41 41 46 41 45 50 50 38 42 40 41 41 44 45 46 51 51 53 53 54 51 50 51 52 54 55 56 57 59 61 62 63 64 64 64 62
40 41 42 40 40 38 40 43 43 46 41 51 56 48 42 42 43 46 43 44 47 49 53 57 55 54 53 52 50 52 54 56 56 58 60 61 62 63 63 63 61 57 51
39 39 39 40 39 40 43 44 43 42 43 56 51 39 37 45 48 42 44 47 50 53 54 54 54 53 53 52 53 55 56 57 60 60 60 58 59 59 58 54 50 48 45
38 38 39 38 39 40 39 41 40 42 43 55 50 48 41 43 44 43 46 46 49 50 50 52 53 53 54 54 56 57 59 60 59 58 55 54 53 51 47 45 45 45 45
36 36 35 37 35 36 39 40 41 47 44 52 47 41 36 37 37 40 43 46 47 47 48 50 52 54 55 55 58 60 62 60 59 54 46 46 45 41 40 43 44 44 43
35 32 36 32 37 37 38 35 44 46 49 43 36 29 32 35 39 42 41 43 45 47 50 52 54 55 57 58 59 60 60 59 54 47 39 38 40 39 38 38 39 39 40
29 31 31 30 30 32 37 44 38 39 32 29 27 30 35 38 38 39 41 44 48 51 52 54 56 56 57 57 56 56 56 54 50 40 36 35 37 35 35 37 35 35 38
22 25 27 26 33 38 35 35 28 25 23 26 30 33 35 36 37 40 44 46 49 51 52 54 55 55 54 52 54 51 48 45 43 39 38 36 35 35 35 37 35 35 37
23 22 24 31 23 25 16 16 20 22 26 29 31 34 35 37 40 43 46 49 51 51 50 52 51 49 49 47 45 44 43 43 43 39 36 41 39 39 39 36 34 33 35
14 20 17 9 12 10 13 19 21 24 27 28 32 34 37 40 43 46 49 51 51 49 49 48 45 43 41 38 37 39 40 42 42 40 32 41 41 43 41 36 32 29 28
9 10 6 6 6 11 16 21 23 24 27 30 33 37 41 44 46 47 49 51 51 49 46 40 35 32 30 30 33 36 39 42 43 45 36 43 41 43 46 39 36 32 29

GFSMA_700_spd_042.txt.gz
Wind_Speed
17 17 18 16 15 14 15 14 13 13 14 13 14 15 16 17 17 16 15 13 13 12 12 13 13 13 13 13 14 15 15 16 17 17 17 17 18 19 19 19 20 19 20
18 19 20 19 18 18 17 16 16 15 16 17 17 18 18 18 18 17 16 15 14 14 13 13 13 14 14 14 15 15 17 18 19 20 21 22 22 23 23 23 23 23 23
20 21 21 21 21 21 19 18 18 18 18 20 22 20 20 18 18 18 16 15 14 13 13 13 13 14 14 15 16 17 17 19 19 21 22 23 24 25 26 27 28 28 28
22 22 22 22 23 22 20 19 21 20 20 21 21 20 19 19 18 18 17 16 15 14 13 14 14 15 16 17 19 20 20 20 21 23 24 25 26 26 27 28 29 30 30
23 23 22 23 22 22 22 23 22 22 22 22 21 20 19 18 18 18 18 17 16 15 15 15 16 17 19 20 22 23 24 24 25 25 26 27 28 29 29 30 30 30 31
26 25 24 24 23 24 24 22 23 24 23 23 21 20 19 19 19 19 18 18 18 18 18 17 18 19 20 21 23 25 26 27 28 29 30 31 31 32 33 33 33 33 33
30 28 26 26 25 25 24 24 24 23 23 23 21 20 20 19 19 20 20 20 20 21 21 21 21 22 22 23 25 26 28 30 31 32 33 34 35 35 35 36 36 35 35
33 33 30 29 28 27 27 26 23 23 24 23 22 21 21 20 19 20 22 23 23 24 24 24 24 24 24 25 27 29 30 32 33 34 36 36 37 37 37 37 38 37 37
36 34 33 32 31 31 30 27 24 24 24 24 24 24 24 22 21 21 23 25 25 27 28 28 28 27 27 28 30 32 33 34 36 37 38 39 39 39 39 39 39 39 39
40 39 37 34 33 33 32 28 26 25 26 26 27 26 27 26 24 25 25 27 28 30 32 32 32 31 31 33 34 35 36 39 41 41 42 42 41 41 41 41 40 41 42
44 41 38 36 35 35 34 32 31 31 32 31 29 32 31 30 28 28 30 30 30 32 35 36 36 35 35 36 37 39 40 43 45 46 45 46 45 44 44 44 44 45 46
47 45 38 37 35 33 35 35 34 32 32 31 30 32 33 32 32 31 33 34 38 34 36 38 39 39 40 40 42 42 44 48 48 47 47 47 47 47 47 48 49 49 49
46 47 43 42 39 36 36 35 36 37 35 34 34 33 32 39 34 33 36 39 37 38 40 38 40 41 42 43 44 47 48 51 51 49 49 48 48 48 49 51 52 52 53
41 40 40 42 42 39 38 36 36 36 38 40 38 36 40 40 48 33 43 37 43 43 43 41 41 42 44 46 48 51 55 55 53 51 50 49 50 51 52 53 54 55 56
47 43 43 42 41 41 40 38 37 37 40 42 43 42 41 46 39 42 49 44 47 45 45 43 43 43 46 48 51 57 57 55 53 52 52 52 52 53 55 56 57 58 59
35 42 42 45 43 44 44 42 41 40 40 41 42 44 46 45 47 52 52 44 49 48 49 48 44 45 48 53 54 54 54 53 53 53 54 55 55 57 58 60 61 62 63
32 37 40 42 40 40 42 43 41 41 40 44 41 48 51 48 50 60 53 57 52 49 50 49 48 48 50 50 50 51 51 53 53 54 55 56 58 60 62 64 65 64 63
36 35 37 39 40 39 39 40 41 42 41 41 42 49 45 59 47 55 54 50 50 44 46 47 47 48 49 48 48 50 52 54 55 56 57 58 60 63 64 63 61 60 58
34 35 36 38 40 38 37 39 41 39 43 43 51 41 50 46 51 51 47 41 40 41 45 47 47 47 47 47 49 51 53 55 57 58 57 57 59 58 55 54 53 52 48
28 31 33 35 36 37 35 35 36 42 41 46 50 39 47 48 45 43 37 36 40 42 44 44 45 47 49 50 53 55 57 57 59 58 53 53 53 48 45 44 44 43 43
23 27 29 31 30 28 31 33 36 37 39 41 36 44 45 38 36 34 35 38 40 41 41 43 46 49 50 52 53 56 59 60 59 54 47 44 41 37 35 38 40 39 39
21 22 22 28 25 29 31 33 31 32 38 39 41 34 32 29 31 36 38 38 40 41 44 47 49 51 52 53 55 57 57 56 55 46 41 35 35 34 33 35 34 34 35
19 21 24 25 24 28 30 30 29 32 28 27 27 25 29 31 34 33 35 38 42 43 46 49 50 50 53 53 54 51 47 45 43 39 40 36 36 34 34 34 33 34 34
19 23 26 20 18 22 20 22 18 16 19 21 23 27 29 31 34 36 39 41 43 43 46 48 49 49 47 45 43 42 41 41 40 40 38 40 37 38 38 34 31 31 32
17 16 11 13 14 14 8 10 12 13 18 22 24 28 31 33 36 39 43 45 47 47 47 44 41 38 37 35 35 37 37 39 39 38 34 42 38 39 38 34 31 28 27
9 7 6 4 3 3 8 12 13 16 21 24 28 32 36 39 40 43 45 47 46 43 39 34 30 28 27 27 30 32 35 38 39 42 36 42 39 40 43 35 32 29 27

GFSMA_700_spd_045.txt.gz
Wind_Speed
17 16 17 17 17 17 17 16 15 14 13 12 13 13 15 16 17 16 15 13 12 12 11 11 10 9 9 9 9 10 11 12 13 13 14 15 15 16 16 16 16 16 17
21 20 19 19 19 19 20 19 17 16 16 16 16 17 18 19 19 17 16 15 13 13 12 11 10 9 9 9 10 11 12 13 14 14 16 17 18 19 20 21 21 21 21
23 22 22 22 21 21 22 20 19 18 18 19 20 20 19 19 18 17 16 15 15 14 13 12 11 10 10 10 10 11 12 13 15 16 16 17 18 20 21 22 23 24 25
24 24 24 24 23 23 23 22 20 20 21 21 21 20 20 19 19 18 17 16 16 15 14 13 13 13 13 13 13 14 15 16 17 18 19 19 20 21 22 23 24 25 26
28 26 25 25 25 24 25 23 22 22 22 22 22 21 21 21 19 19 18 17 17 16 16 15 15 15 15 16 16 17 18 19 19 19 20 21 22 23 24 25 25 26 27
30 30 28 27 26 25 25 24 23 23 23 24 23 22 21 21 20 20 19 19 19 18 18 19 18 18 18 19 19 19 19 20 21 22 23 24 25 25 26 27 27 28 28
34 33 31 29 28 26 26 26 26 26 24 24 24 22 22 22 21 20 20 21 21 21 21 22 22 21 22 22 22 22 22 23 24 24 25 26 28 29 29 30 30 30 31
35 36 34 32 30 29 28 28 27 26 25 25 25 24 24 23 21 21 21 22 23 24 24 25 25 25 25 26 26 26 26 26 27 28 28 30 32 32 33 33 33 33 33
36 37 34 34 36 35 33 32 30 28 28 26 25 26 26 25 23 24 24 24 24 25 26 27 28 29 28 30 31 31 31 31 31 32 33 35 36 37 37 37 37 37 36
42 39 38 38 36 37 37 36 34 32 30 29 28 30 29 29 29 30 28 27 26 27 28 29 31 32 33 34 35 36 36 36 36 37 38 39 41 42 41 41 40 40 39
48 47 44 42 37 39 41 39 38 36 33 33 35 31 33 35 35 35 34 32 30 29 32 34 34 35 36 38 39 40 40 41 41 41 41 43 45 46 46 44 44 43 43
50 54 53 51 49 44 41 39 40 38 37 36 34 35 33 33 34 33 33 35 31 33 34 38 40 40 41 41 43 44 44 44 44 44 45 47 50 51 48 47 46 46 46
39 41 45 47 48 45 41 40 38 37 37 40 38 37 36 38 37 37 37 40 40 42 36 40 38 41 42 44 45 47 47 47 48 48 49 51 52 51 49 48 48 48 49
38 34 33 39 43 45 45 43 41 40 39 40 40 40 41 41 41 40 42 50 51 42 40 43 41 46 48 47 47 52 49 49 52 53 55 53 51 50 49 50 50 51 51
36 40 39 38 37 37 38 40 43 41 40 40 41 41 42 44 44 46 51 45 53 42 47 47 52 48 49 50 50 51 52 51 54 55 53 52 51 51 51 51 52 53 53
31 32 35 39 42 43 40 40 42 41 42 43 42 42 41 42 45 48 52 50 52 48 50 53 56 55 50 52 49 52 52 53 52 53 53 54 55 55 55 54 56 56 57
31 35 37 38 39 41 41 42 42 43 46 46 46 44 42 45 45 50 55 49 55 50 50 52 53 53 51 46 46 47 47 50 52 52 53 54 56 57 57 58 59 60 62
31 35 37 40 40 40 41 41 40 39 42 43 42 43 44 47 48 54 52 48 51 48 49 51 49 47 46 45 46 47 47 51 52 53 53 53 56 58 59 61 62 62 63
34 32 34 38 38 40 40 41 39 38 38 40 44 52 41 45 47 50 50 50 43 42 44 43 42 41 43 45 45 46 49 51 52 53 52 54 57 58 58 57 57 57 55
35 31 31 34 36 36 37 37 36 35 36 37 39 43 41 43 48 45 44 39 41 40 40 39 40 42 44 43 46 48 50 50 53 53 53 55 55 52 48 45 45 44 43
27 26 26 26 26 30 33 32 33 33 37 37 39 40 39 41 37 36 35 36 36 36 40 41 40 41 43 46 47 50 53 55 54 50 48 44 41 37 34 36 39 40 40
19 19 21 20 19 23 30 27 24 25 31 33 33 32 31 28 26 27 31 34 37 38 38 40 40 42 45 48 50 51 52 49 46 39 38 33 33 32 32 34 33 35 36
15 15 17 21 21 23 20 26 22 27 29 27 23 21 21 24 27 31 35 36 35 37 40 42 43 44 47 47 47 44 40 38 36 32 34 32 31 31 32 31 31 31 31
10 12 11 15 15 21 27 20 24 22 17 14 15 18 22 25 30 32 35 38 37 37 39 41 43 44 43 39 36 32 29 30 30 29 33 38 33 35 35 31 28 28 29
12 10 10 11 10 9 7 5 4 7 11 15 19 22 25 28 33 36 39 38 38 40 40 40 39 36 31 26 26 27 27 30 32 29 31 37 33 36 33 27 24 22 23
8 12 12 8 7 5 6 5 7 9 14 18 23 27 30 34 36 37 40 39 40 39 36 31 25 21 19 20 21 24 27 30 33 33 35 38 33 38 34 25 22 22 22

GFSMA_700_spd_048.txt.gz
Wind_Speed
22 21 20 19 18 18 18 18 16 16 15 15 15 15 16 17 18 19 19 17 15 13 12 11 10 9 7 7 6 6 7 8 9 10 11 12 12 13 13 14 15 15 16
27 25 24 23 22 21 20 21 20 20 19 17 17 17 19 20 19 19 19 17 16 14 13 12 11 10 9 8 7 7 8 8 9 10 11 13 14 14 15 15 16 17 18
29 28 27 26 25 24 23 24 23 23 22 20 19 20 21 20 20 19 19 18 17 16 14 13 12 12 11 10 10 10 10 10 12 13 13 14 15 15 16 17 17 18 19
30 30 30 29 28 28 26 26 26 25 24 22 22 22 22 21 21 21 20 20 19 17 16 15 15 15 14 14 14 13 13 12 13 15 15 16 16 17 18 18 19 20 20
29 30 30 31 32 31 29 28 27 26 26 24 25 23 23 22 21 22 21 21 20 20 19 17 17 17 17 17 17 16 15 16 16 16 17 17 18 19 19 20 21 22 22
36 35 34 32 32 32 31 30 29 28 27 26 27 25 25 24 23 22 22 21 21 21 21 20 20 21 20 20 21 20 20 19 19 20 20 20 20 20 21 23 24 25 25
37 38 38 36 36 33 32 31 32 30 29 29 29 28 27 26 25 23 22 23 22 22 22 23 23 24 24 24 25 25 25 23 24 24 24 24 24 25 25 26 27 28 28
38 37 36 36 37 36 36 33 34 33 32 31 30 30 30 29 27 24 23 24 24 24 24 25 26 27 28 29 28 29 29 29 29 29 30 29 30 30 30 30 30 31 32
39 39 39 39 38 39 39 37 35 36 35 32 32 32 33 31 28 26 25 26 27 27 27 27 27 29 30 32 33 33 33 35 35 35 35 35 36 36 36 36 36 36 37
44 44 45 45 43 41 40 38 38 38 40 37 36 35 35 34 31 30 38 35 33 33 31 30 30 31 33 34 35 37 36 37 38 39 40 41 41 41 41 41 42 41 42
51 52 50 48 47 44 42 42 40 41 43 42 40 38 38 37 36 39 35 37 36 36 34 35 35 35 37 39 39 42 42 42 42 43 44 44 45 46 46 46 47 48 48
40 41 48 53 50 51 48 45 44 43 43 44 44 43 40 40 38 36 36 36 34 37 37 38 40 39 41 41 45 45 47 48 47 45 46 47 48 49 50 50 52 52 48
44 41 38 42 50 52 52 52 52 49 46 45 46 44 42 40 42 39 40 41 41 38 44 38 46 46 43 47 50 47 47 51 51 51 49 49 50 51 52 53 52 50 50
52 48 46 41 41 46 49 50 49 49 46 46 46 46 40 42 45 44 45 43 44 46 45 53 48 49 51 44 47 50 56 54 57 57 54 50 51 52 55 53 53 52 52
40 44 47 46 41 40 42 45 47 48 48 47 45 46 42 44 47 49 48 46 45 50 51 51 52 53 51 48 50 50 60 61 58 56 57 53 53 53 53 55 55 54 54
32 32 35 40 45 48 47 42 41 42 43 44 45 45 44 48 51 46 47 45 47 49 53 56 52 56 51 49 51 55 56 59 56 56 56 54 51 53 55 56 55 55 57
39 38 37 38 38 40 44 47 47 44 42 43 43 44 46 48 49 50 46 45 46 49 58 52 53 53 50 47 48 54 54 53 53 52 49 52 53 55 57 58 58 59 61
42 41 39 38 40 42 45 45 47 47 47 46 45 45 46 47 48 51 46 46 57 48 53 48 48 50 44 47 47 48 49 51 50 49 48 50 53 56 58 59 60 62 62
40 41 37 36 34 38 41 44 43 44 45 44 43 42 42 41 44 47 47 53 49 51 44 42 42 41 41 44 46 46 48 49 50 48 49 51 54 56 58 58 60 60 60
39 37 41 43 35 34 36 40 39 40 40 40 40 39 39 42 47 43 44 45 44 41 37 37 37 38 41 43 47 47 45 47 48 48 50 52 53 52 52 52 51 49 46
37 42 42 41 33 31 35 35 37 33 35 34 34 34 41 38 41 44 41 39 35 33 34 36 37 41 45 44 44 45 47 47 47 46 48 47 44 40 38 37 36 37 38
13 18 21 26 28 26 22 22 23 24 27 31 36 39 40 36 37 35 29 28 29 31 35 41 41 41 42 44 45 44 46 47 45 37 36 29 28 28 31 32 33 35 37
22 17 16 14 17 20 21 23 23 27 29 31 34 35 26 26 25 23 28 33 35 36 38 39 40 41 43 42 43 42 40 38 28 24 27 26 27 30 29 28 29 32 35
13 3 8 11 17 12 16 17 20 20 19 20 20 18 19 23 27 30 32 34 35 38 40 40 41 42 42 40 39 32 23 21 19 21 28 31 27 29 29 25 25 27 30
7 4 7 8 11 16 13 14 5 3 5 9 16 20 23 27 30 34 35 36 37 39 40 40 41 39 33 26 20 17 18 20 23 22 27 30 28 32 26 22 20 21 23
10 12 11 9 8 5 4 2 4 8 11 15 19 24 28 31 34 36 37 37 38 38 36 33 28 21 15 14 14 17 19 21 25 24 30 27 27 34 33 22 21 22 23

GFSMA_700_spd_051.txt.gz
Wind_Speed
23 23 21 21 21 20 19 19 19 19 18 18 17 16 17 17 19 20 20 18 17 17 16 14 12 11 9 8 7 7 7 8 8 8 8 9 10 11 12 12 13 14 15
27 28 27 26 25 24 22 22 22 23 22 21 20 20 19 19 21 21 21 17 18 17 16 15 13 12 11 10 9 9 9 9 9 9 10 11 11 11 12 13 14 14 15
32 31 31 30 30 28 27 27 25 26 26 25 24 23 22 22 22 22 21 20 18 18 17 17 15 14 13 12 12 11 11 12 12 12 12 12 13 14 14 14 15 15 16
31 33 33 33 33 32 31 30 29 28 28 28 28 26 25 23 23 23 22 22 20 19 18 18 18 17 16 15 15 15 14 14 14 14 14 13 14 14 15 16 16 16 17
32 32 32 31 33 35 34 33 32 32 31 30 30 30 28 26 25 25 23 22 22 21 19 20 20 20 19 19 19 18 18 17 16 17 17 16 16 16 17 18 18 18 19
37 38 36 35 35 36 34 34 33 33 33 33 32 32 31 29 28 27 25 23 23 22 22 20 22 22 22 22 22 22 22 21 21 20 20 20 20 20 20 21 21 22 22
36 38 39 40 40 41 38 36 34 34 35 35 35 35 34 32 31 30 27 26 24 23 23 23 22 24 25 25 25 26 26 26 25 25 25 25 25 25 25 25 26 27 28
39 37 38 39 42 41 41 40 37 36 36 36 36 36 37 36 34 32 30 28 27 25 24 25 25 26 27 28 28 29 29 29 29 29 30 31 31 31 31 31 30 31 32
46 44 42 41 39 41 41 38 39 38 37 37 36 38 38 39 37 34 33 31 29 26 24 30 28 28 30 30 29 32 31 33 34 35 35 35 36 36 37 37 36 36 37
48 48 47 45 43 44 43 43 42 42 42 42 38 40 40 41 38 37 36 35 33 32 36 33 37 37 33 34 34 34 34 36 37 37 41 41 40 40 41 42 42 41 42
43 47 51 53 51 50 48 47 50 49 44 45 41 41 42 43 42 40 41 38 39 39 35 35 35 36 36 37 39 41 38 40 40 40 42 46 45 46 44 44 45 46 46
44 46 44 50 55 56 55 53 52 51 48 45 46 44 44 45 44 44 42 44 40 39 38 36 37 38 38 41 42 44 44 44 47 49 45 46 45 48 50 50 49 49 49
40 47 46 45 47 48 51 55 56 56 53 50 47 48 46 44 45 46 45 45 46 42 47 39 42 43 46 42 46 49 50 49 49 45 41 47 52 52 53 55 54 52 52
37 39 45 47 47 46 45 47 52 56 53 52 52 53 51 49 47 49 49 46 49 44 47 46 47 48 46 49 48 50 49 53 51 48 48 46 50 55 58 58 56 56 54
37 38 40 41 42 47 50 50 48 49 53 53 52 50 52 51 48 47 50 49 46 48 51 53 55 45 48 53 49 51 52 54 51 50 52 54 54 52 55 55 58 55 54
39 38 36 35 38 36 41 46 47 47 46 47 49 49 51 51 48 46 47 47 45 49 53 54 57 51 49 50 51 55 51 50 49 47 49 53 53 52 51 52 51 52 53
42 41 40 40 38 38 38 38 42 48 50 49 46 44 45 46 47 46 45 47 49 45 60 54 52 53 55 50 50 48 44 48 47 46 47 48 48 51 51 51 52 53 55
37 39 39 39 44 43 43 42 41 41 44 46 47 46 44 44 44 44 45 45 51 51 46 56 48 50 49 46 44 45 43 44 43 44 46 46 49 52 52 52 54 54 55
28 30 34 42 42 40 38 40 41 38 38 40 41 42 43 44 44 42 42 43 45 52 47 53 48 43 43 41 39 39 39 41 44 45 46 47 49 49 50 52 54 56 56
28 30 39 34 38 39 40 39 38 36 33 32 34 36 37 38 40 41 41 43 47 48 47 45 45 39 37 37 38 40 41 43 44 42 44 46 47 49 50 51 50 47 43
24 24 26 27 34 42 40 41 41 43 36 35 31 31 32 33 34 39 40 44 47 45 37 35 36 36 37 39 41 42 41 42 42 42 45 45 46 45 39 33 31 32 35
19 21 23 15 21 20 28 38 39 40 31 25 26 28 30 29 30 36 39 35 34 32 30 34 37 38 42 42 44 42 42 43 42 41 44 32 31 25 26 28 30 32 34
16 17 22 22 17 12 14 21 26 29 26 25 20 23 29 27 30 30 33 32 30 31 36 38 39 40 41 42 42 41 41 40 31 24 23 17 24 24 25 24 26 29 33
15 13 15 12 11 9 10 11 5 13 14 12 22 22 21 20 23 24 28 32 33 37 40 40 41 41 42 42 41 36 28 19 14 17 24 21 22 23 24 21 24 27 31
10 6 9 10 9 6 4 4 3 3 4 7 10 13 17 23 26 29 33 35 38 41 42 42 43 41 37 31 22 13 12 12 13 16 22 23 22 26 22 19 21 24 27
11 10 9 9 9 9 9 8 7 8 10 14 17 20 24 28 32 35 39 41 42 42 40 36 29 22 16 11 10 10 12 14 16 15 23 21 22 29 30 18 20 22 25

GFSMA_700_spd_054.txt.gz
Wind_Speed
22 22 22 21 21 21 21 20 19 19 19 19 19 19 19 19 20 19 21 18 18 16 15 15 14 13 12 11 9 8 8 7 7 7 8 8 9 9 10 10 11 12 13
25 25 26 26 26 26 26 25 25 24 23 23 22 22 22 21 21 23 23 19 18 17 17 16 15 15 14 13 12 10 10 9 9 9 9 9 10 11 12 12 12 12 13
27 27 28 30 29 29 29 30 29 29 28 27 25 24 25 24 23 24 23 23 19 19 18 17 17 16 16 15 14 13 12 12 12 11 11 11 11 12 12 13 13 13 13
27 28 28 30 31 31 30 31 31 32 31 30 29 27 27 27 26 25 26 23 22 20 20 19 19 18 18 18 17 16 16 15 15 14 14 13 13 13 14 13 13 14 14
32 32 32 31 30 31 30 30 30 32 32 32 32 31 30 30 29 28 27 27 24 22 21 20 20 19 20 19 20 19 19 19 19 18 18 18 17 16 16 16 16 16 16
35 35 35 35 35 36 36 34 32 32 31 31 33 35 34 33 32 31 30 28 27 26 23 22 21 21 21 21 21 22 21 22 22 21 21 21 21 21 21 21 21 21 20
39 38 38 36 36 38 38 38 38 37 36 34 35 35 37 34 35 33 33 31 29 28 29 25 23 21 21 22 23 23 23 24 25 25 26 26 25 25 25 26 27 27 27
43 41 41 40 39 40 40 41 40 39 39 38 38 35 37 37 36 36 35 34 32 31 31 30 26 24 22 24 25 24 26 27 27 28 28 29 30 30 29 30 31 32 31
46 46 45 45 44 43 43 43 41 40 40 38 38 37 38 39 37 37 37 36 35 33 32 33 31 28 29 29 27 29 28 28 30 31 30 31 31 32 33 34 32 34 35
36 40 46 49 48 46 46 46 45 45 44 43 41 39 39 42 42 40 38 37 36 36 34 35 35 35 34 33 36 32 32 32 35 34 34 35 37 36 36 38 37 37 38
34 36 38 41 47 51 52 51 49 50 51 49 47 44 43 43 45 42 41 41 40 39 38 37 38 39 40 39 38 34 32 33 35 36 37 41 41 41 44 42 39 38 40
35 35 35 35 39 43 45 49 52 55 56 56 54 51 49 46 46 46 43 42 42 41 40 42 45 45 44 40 37 38 38 36 37 38 40 46 48 42 41 40 42 43 45
35 34 34 36 36 39 42 43 45 47 51 55 57 57 53 51 49 47 47 44 43 44 44 47 52 50 49 43 43 42 40 44 38 41 41 42 42 50 48 46 47 47 48
37 36 35 35 37 36 37 44 46 46 44 43 46 48 52 52 52 52 49 47 46 47 48 51 58 50 53 45 46 45 47 42 42 45 40 45 46 48 52 49 53 54 50
37 37 36 38 38 37 35 36 39 44 47 48 45 43 43 45 50 49 49 50 49 48 53 57 51 53 49 42 49 42 38 46 43 41 48 48 48 48 48 52 52 51 50
35 37 38 38 38 37 36 36 37 37 38 42 45 45 44 43 45 46 45 47 48 49 53 53 46 53 48 42 38 43 43 45 47 48 49 47 45 46 49 47 48 48 46
27 30 32 34 37 39 39 39 39 38 37 36 36 38 44 43 39 39 38 43 45 48 51 49 43 40 43 45 41 41 42 43 44 44 45 43 43 44 44 43 44 44 46
24 28 28 27 29 34 37 39 38 40 40 38 32 30 33 37 39 38 41 39 41 40 38 35 35 37 41 41 41 43 42 42 42 39 38 37 40 41 43 43 46 46 46
25 27 25 26 26 34 38 40 39 39 39 37 32 27 31 35 35 34 36 38 40 43 40 41 41 44 47 45 41 42 38 37 39 36 36 38 39 42 42 43 44 46 48
23 22 22 23 24 28 26 25 32 36 38 37 33 26 27 29 31 32 32 34 35 37 41 40 46 46 48 40 39 37 35 36 35 37 40 39 40 41 43 44 45 45 44
20 19 19 22 23 24 20 24 29 27 35 33 39 37 36 28 28 29 32 32 34 38 35 34 41 37 36 37 35 35 36 37 37 38 42 39 42 43 41 38 32 29 29
17 15 14 15 19 16 22 21 16 19 25 31 35 33 38 24 29 29 26 28 31 36 40 36 34 35 37 39 39 38 39 38 37 40 43 37 41 28 21 21 24 27 29
11 12 11 15 16 15 17 18 18 16 11 19 20 21 20 20 22 24 31 31 30 31 32 32 34 38 38 39 40 39 40 39 38 35 30 14 18 15 19 21 24 26 29
11 10 9 13 15 15 12 11 10 9 9 9 11 11 14 16 18 20 22 26 29 32 34 36 37 39 41 41 41 38 34 27 19 16 15 9 18 15 15 16 20 23 28
17 17 14 13 14 14 14 14 13 11 10 10 12 14 15 18 22 25 29 32 36 38 40 41 41 40 37 32 27 20 13 9 11 14 19 14 16 16 14 13 17 22 26
12 11 11 12 13 14 14 14 14 15 16 17 19 21 22 25 28 31 34 36 37 37 37 35 29 23 19 14 11 10 11 12 12 13 21 19 19 25 22 11 15 19 22

GFSMA_700_spd_057.txt.gz
Wind_Speed
20 19 20 20 21 20 20 20 20 20 20 20 19 19 20 21 20 20 19 17 17 16 16 16 15 14 14 13 12 12 11 9 9 8 7 7 7 8 8 9 10 10 11
22 22 22 23 24 24 24 23 25 24 24 25 24 23 22 23 23 21 22 21 19 18 17 16 16 16 15 14 14 13 12 12 11 10 10 9 10 10 10 11 11 12 12
24 24 25 25 25 27 28 28 28 28 27 27 27 27 27 26 26 24 24 23 21 20 19 18 18 17 17 17 16 15 14 14 14 13 12 12 12 11 11 11 11 11 12
23 25 26 26 27 27 27 27 28 29 29 30 29 28 29 29 29 28 26 25 24 22 21 21 19 19 19 18 18 18 17 17 16 15 15 14 14 14 13 13 13 12 13
27 29 29 29 30 31 31 30 29 29 28 28 28 29 30 31 31 33 31 28 27 25 23 23 22 21 20 20 19 20 19 19 19 19 18 18 18 17 17 16 16 16 15
33 33 33 32 31 32 32 32 31 33 33 33 33 32 32 32 33 34 34 33 30 28 26 25 25 24 23 22 21 21 21 21 22 22 22 21 22 22 22 21 20 20 20
38 39 38 37 35 35 34 34 35 35 35 34 36 38 37 35 35 33 35 36 33 31 29 27 28 26 25 24 23 22 22 23 24 25 24 24 25 26 25 25 24 24 25
42 43 43 41 39 39 38 38 38 39 39 37 38 37 40 39 38 35 34 34 35 35 33 31 29 29 28 27 25 24 24 25 25 26 26 26 27 27 27 27 28 27 27
40 43 44 43 42 42 42 42 42 42 42 42 41 40 43 42 37 35 34 34 34 36 36 33 31 31 31 31 29 26 25 28 28 28 29 29 28 29 29 29 29 29 29
34 36 37 39 39 39 40 41 44 45 45 45 45 45 44 43 44 43 37 36 37 37 36 35 33 33 34 34 36 32 31 36 33 32 33 33 32 31 31 31 33 34 36
30 30 34 37 39 40 42 42 41 44 46 50 50 50 50 48 47 47 47 42 40 40 39 38 36 37 36 36 39 38 39 40 39 35 34 35 34 35 33 32 37 38 38
32 32 32 33 34 35 34 37 37 40 42 44 48 48 50 51 51 49 50 47 44 42 42 40 42 42 45 46 43 46 48 50 42 39 39 41 37 37 36 37 36 40 43
33 35 34 34 33 33 35 37 37 38 41 43 43 46 47 49 50 50 48 49 47 46 44 44 42 42 49 47 46 55 48 52 44 42 44 46 40 39 33 35 40 42 44
35 35 35 35 34 33 33 35 36 36 37 39 41 45 45 44 41 47 41 46 45 45 47 48 43 40 43 47 47 50 49 49 41 47 46 47 39 40 38 41 45 47 49
32 33 34 34 34 34 35 37 38 37 37 38 39 39 42 45 44 40 48 39 41 41 41 45 45 45 46 50 54 47 42 49 46 47 38 39 39 37 43 44 47 50 50
25 26 27 29 30 33 33 34 37 38 39 39 38 38 37 36 34 39 46 37 38 42 46 42 42 41 46 45 43 40 28 30 32 30 36 35 38 40 43 45 46 46 46
22 21 22 25 25 26 28 27 31 34 37 39 40 37 33 32 33 33 36 35 44 43 42 42 44 37 36 36 31 23 32 33 33 36 38 38 38 40 41 42 43 41 42
20 20 20 21 23 26 27 26 31 32 33 36 37 34 35 34 30 31 33 32 35 34 35 37 30 25 24 28 31 33 34 34 33 36 35 35 33 34 33 34 37 39 40
21 20 20 20 22 23 25 27 32 26 24 29 32 32 31 31 28 27 30 34 30 29 32 32 29 25 30 32 32 30 31 30 30 30 33 32 33 34 34 36 38 40 40
19 19 19 19 19 22 22 21 22 24 25 29 33 30 28 31 28 24 22 26 30 28 29 30 32 31 33 32 34 31 30 29 29 30 32 33 35 35 36 38 40 41 42
17 17 16 15 14 20 17 17 22 18 21 20 12 22 25 26 26 30 26 27 28 27 28 32 30 33 35 34 33 32 31 30 31 34 34 36 36 37 38 40 39 38 34
15 10 10 11 11 13 13 14 14 13 16 11 10 15 16 16 19 20 24 28 29 27 30 33 29 30 31 30 31 33 34 33 34 39 38 35 40 35 33 24 20 20 22
7 5 5 5 8 11 10 10 13 14 14 14 11 14 15 17 21 19 21 23 25 25 25 26 28 30 32 34 36 37 38 38 38 37 33 26 24 15 13 15 17 19 21
9 9 9 9 10 12 13 13 14 14 14 14 13 13 14 14 15 18 20 22 25 27 29 31 33 35 35 35 34 31 28 24 21 16 8 9 12 11 11 14 16 19 23
11 10 9 9 10 10 10 11 12 14 15 16 17 18 19 20 21 23 26 27 29 31 32 33 33 33 31 27 23 19 14 10 10 12 13 10 14 12 12 15 17 20 24
8 8 8 9 10 11 12 14 16 17 19 20 21 22 23 22 23 24 25 27 28 28 28 26 23 20 17 14 12 12 10 10 11 14 20 17 17 19 16 15 18 22 25

GFSMA_700_spd_060.txt.gz
Wind_Speed
19 19 19 19 19 19 19 20 21 21 21 21 22 22 22 20 19 19 19 19 19 20 20 19 17 15 15 14 14 14 13 12 11 10 9 9 9 8 9 9 9 9 9
20 21 21 21 21 21 21 23 24 25 25 25 25 25 24 25 24 23 23 23 22 21 22 20 19 18 16 15 16 15 15 14 13 12 11 10 10 10 10 10 10 10 10
21 22 21 21 21 22 22 23 24 25 25 26 27 27 27 27 27 27 26 26 25 24 24 23 21 19 18 18 17 17 17 17 16 15 15 13 12 12 11 11 11 11 10
21 22 22 22 23 24 26 27 27 28 26 26 26 26 27 28 28 28 28 28 27 27 26 25 24 22 20 19 19 19 19 19 19 18 18 17 16 15 14 13 13 13 12
24 25 26 27 27 27 29 29 30 30 30 29 30 30 30 29 30 30 30 30 29 29 28 28 26 25 23 22 21 21 21 21 21 21 21 20 19 19 18 17 16 16 16
27 29 30 29 30 31 31 31 32 31 32 30 32 32 32 33 34 34 32 32 32 31 30 30 29 28 27 25 24 23 23 24 24 24 24 24 23 22 22 21 20 19 20
32 32 33 33 34 36 35 34 34 34 34 34 36 37 36 36 36 35 36 35 32 31 32 31 31 30 30 28 28 26 25 26 26 26 27 27 27 26 25 24 24 23 23
37 39 39 40 40 39 38 38 38 39 38 37 39 39 43 43 40 36 36 37 35 33 32 33 33 33 33 32 30 29 29 28 29 30 29 30 31 30 29 28 27 27 26
38 41 42 43 43 44 42 39 38 39 41 41 40 42 44 47 44 40 37 36 36 35 35 35 34 35 36 36 34 34 33 32 32 33 33 32 34 34 33 31 31 30 28
36 37 38 39 40 40 39 38 37 38 39 41 42 44 46 46 48 50 46 40 40 40 40 38 37 36 36 37 37 39 38 39 36 38 39 40 43 38 37 35 34 33 31
32 33 31 31 32 35 37 38 38 38 39 40 44 45 45 47 47 47 51 50 47 46 45 43 46 41 37 39 40 45 45 51 46 46 45 46 46 46 47 42 36 36 35
32 33 32 32 33 33 33 33 33 34 36 38 39 42 43 45 46 47 48 50 55 46 49 49 46 45 44 40 42 43 49 45 44 47 44 49 48 48 46 42 40 40 38
35 35 36 36 36 35 34 35 35 35 36 37 38 39 40 41 42 42 45 45 50 47 47 51 50 44 43 45 52 41 51 36 42 42 50 52 49 46 47 46 42 40 36
35 36 36 36 35 34 34 35 36 37 39 39 40 40 42 40 38 39 40 42 47 45 53 44 59 39 35 41 41 48 44 42 35 39 42 40 45 45 44 44 44 39 39
30 30 31 32 31 30 30 31 32 34 35 36 38 39 41 41 40 38 36 35 39 39 43 49 42 35 38 38 39 38 42 41 38 36 22 27 32 32 29 32 34 37 39
25 26 26 26 26 26 26 27 28 29 29 31 34 37 38 39 42 38 35 33 33 34 41 37 44 44 39 35 38 37 41 35 35 28 26 29 28 29 34 37 38 39 42
22 23 24 24 24 24 25 24 23 25 28 31 35 36 35 35 35 33 35 35 34 33 32 42 34 34 32 26 33 26 21 15 23 23 31 33 34 36 38 38 38 41 42
21 22 22 24 23 22 22 23 24 27 27 30 29 29 33 30 27 29 31 30 31 34 33 28 30 23 24 20 17 19 25 24 22 29 27 30 36 34 34 37 37 37 38
22 21 22 23 21 20 20 22 26 25 22 25 27 27 28 26 26 27 27 28 26 26 26 27 23 24 24 17 22 26 25 26 26 27 28 30 32 33 33 33 34 35 36
21 20 18 18 19 18 19 21 22 20 23 24 25 23 23 20 22 24 24 28 31 34 31 24 27 29 21 24 24 25 26 24 25 26 27 31 31 32 34 36 37 37 37
18 17 17 17 16 15 15 16 15 16 17 18 14 8 9 12 16 21 25 28 27 23 24 26 31 27 28 27 24 23 24 26 27 29 31 33 34 35 36 38 38 39 40
12 12 10 9 8 10 11 8 7 8 9 10 11 12 13 14 14 15 17 17 20 25 26 27 28 27 25 24 26 27 27 29 31 35 35 32 37 36 37 36 35 31 25
7 6 3 1 1 5 6 5 6 8 9 11 12 13 14 15 16 15 18 20 20 22 24 26 29 30 30 31 32 31 33 34 32 33 30 27 31 27 20 15 14 15 18
5 6 6 3 1 2 4 5 6 9 10 12 13 15 16 17 18 19 22 24 26 28 29 31 32 33 34 33 31 29 27 23 20 19 12 13 9 10 11 13 14 17 20
6 5 3 1 2 4 6 8 10 11 13 14 16 17 18 19 19 21 22 24 26 28 29 30 30 30 29 26 23 20 17 15 13 12 9 10 12 13 14 16 17 19 23
3 1 2 4 6 7 9 11 13 15 17 18 20 21 22 22 23 24 25 27 27 28 27 27 27 26 23 20 18 16 14 14 13 15 16 14 14 16 17 19 20 23 27

GFSMA_700_spd_063.txt.gz
Wind_Speed
17 18 18 18 18 18 19 20 20 21 21 21 22 22 22 21 22 22 22 22 21 20 20 20 21 21 19 17 16 16 15 15 13 13 12 10 11 10 9 8 8 8 8
18 19 19 20 20 19 20 20 21 21 21 22 23 23 23 23 24 24 24 25 24 22 21 21 21 22 21 20 19 18 17 16 16 15 14 13 12 12 11 10 9 9 8
18 19 19 19 20 20 21 22 22 22 22 23 23 23 24 25 26 25 25 26 26 25 25 24 23 22 22 21 21 20 19 18 18 17 17 16 15 14 14 13 12 11 10
21 20 20 19 22 23 24 25 24 25 25 26 27 26 26 26 26 26 27 28 27 28 28 27 27 26 24 23 22 22 22 21 21 21 20 20 19 18 17 16 15 14 12
21 23 24 24 26 28 29 28 28 28 28 28 29 30 31 32 31 30 29 28 28 28 28 29 29 28 28 27 26 24 23 23 24 24 24 24 23 22 20 20 19 18 17
27 29 28 27 30 32 31 30 31 32 33 32 33 34 34 35 35 34 33 33 31 31 31 30 31 31 31 30 30 28 27 26 26 26 27 28 27 26 25 24 23 22 21
29 30 31 31 32 34 34 35 36 36 35 35 37 38 38 37 38 37 35 35 33 32 31 32 32 32 32 33 34 33 32 30 29 30 30 30 30 30 29 28 27 26 26
33 35 35 36 38 40 40 40 41 42 42 38 39 40 43 43 41 38 37 36 35 35 34 33 33 34 34 35 36 37 36 35 34 34 34 34 34 34 33 32 32 31 30
36 38 39 40 41 42 42 41 41 41 41 40 39 38 42 45 44 42 41 39 37 38 38 37 37 38 37 37 37 39 40 39 39 38 38 39 38 38 37 37 36 37 36
36 38 38 38 38 38 39 39 39 39 40 39 39 40 41 43 45 49 45 43 41 42 40 42 42 42 43 43 40 40 41 44 47 44 43 43 43 43 42 42 43 44 41
35 34 33 32 32 32 32 33 33 33 34 35 37 36 36 38 40 42 48 45 42 41 41 43 44 47 46 47 44 47 41 44 48 52 47 50 47 49 49 48 52 47 51
32 32 33 34 34 34 32 32 32 32 31 33 34 36 38 40 39 41 44 45 43 42 41 39 45 44 42 50 60 48 47 48 44 53 43 59 44 51 51 54 53 48 52
35 35 35 36 37 37 36 35 35 33 34 35 36 37 38 39 39 40 40 41 43 43 41 38 39 42 46 46 46 51 49 49 49 47 42 36 45 43 45 46 45 42 42
36 36 37 37 38 38 37 37 37 37 37 37 37 37 38 39 39 39 40 39 41 41 39 37 36 37 35 35 43 48 54 54 43 35 32 34 35 36 38 33 37 43 39
33 33 33 33 33 33 33 33 34 34 34 33 34 34 35 36 37 38 39 37 36 38 41 36 33 35 34 34 35 31 51 47 41 37 33 30 29 18 24 26 24 22 21
29 27 27 27 27 27 26 26 26 27 28 28 29 29 31 35 38 37 37 36 33 34 36 38 36 35 32 32 28 19 28 25 20 23 25 24 24 21 26 32 28 30 32
26 26 26 25 25 25 23 23 23 24 25 25 27 28 32 34 32 33 35 33 29 30 33 33 32 30 25 22 19 19 16 10 14 16 14 20 24 27 31 33 31 35 36
25 25 25 26 25 24 23 22 22 23 24 27 27 27 29 30 30 30 27 24 24 25 27 27 27 25 24 25 20 24 16 13 15 18 21 23 26 27 29 32 35 34 33
25 25 25 24 24 23 22 21 22 24 25 26 24 27 28 26 25 26 24 23 23 26 28 29 31 29 23 26 24 21 25 20 19 22 28 28 27 30 33 33 32 32 33
23 23 23 23 19 19 18 19 20 21 20 19 22 22 19 15 15 17 19 22 25 28 26 26 23 20 20 24 25 24 26 26 27 29 29 30 30 32 32 33 34 35 36
20 20 19 17 16 16 16 17 19 19 15 15 15 14 12 13 12 14 15 16 16 17 19 21 24 27 25 25 27 25 24 24 25 27 29 31 33 34 35 36 36 37 39
15 15 13 10 9 9 11 10 6 5 5 4 5 7 9 11 12 13 13 17 20 20 20 21 23 25 26 28 28 28 29 29 31 32 34 35 36 36 38 37 37 37 36
11 8 6 5 4 3 1 1 4 6 7 9 11 13 15 16 17 18 19 20 21 23 24 26 28 29 30 30 31 31 31 31 31 32 31 28 32 27 26 24 21 18 17
4 5 5 5 4 3 4 6 8 10 12 13 15 17 18 19 19 20 22 23 25 26 27 29 29 30 30 30 30 28 28 26 23 22 18 18 18 17 16 15 15 16 17
7 7 6 4 4 5 7 9 11 13 14 16 18 20 21 22 22 23 25 26 28 29 30 30 31 31 30 29 27 26 23 20 19 18 16 15 14 15 15 15 16 17 19
7 5 5 5 6 8 10 11 14 16 18 20 21 23 24 25 26 26 27 28 29 30 31 31 31 31 29 27 24 22 22 20 20 18 16 16 17 18 18 17 18 20 23

GFSMA_700_spd_066.txt.gz
Wind_Speed
15 15 16 16 17 17 18 18 18 19 19 20 21 21 21 21 21 19 20 21 22 21 21 21 20 19 19 18 17 17 17 17 16 16 15 14 13 11 11 9 9 9 8
16 15 17 17 18 19 20 20 19 20 21 22 22 22 22 22 22 22 23 24 24 24 23 23 23 22 21 21 20 19 18 17 17 18 17 17 15 15 13 13 12 10 10
16 16 18 18 19 20 20 21 21 22 23 24 23 24 24 24 23 22 23 24 24 25 26 26 24 24 23 23 23 21 20 19 18 19 19 19 18 18 17 16 15 14 11
19 19 20 20 21 22 23 24 26 27 27 27 27 26 26 26 26 26 27 26 25 25 25 25 26 25 25 25 26 26 24 23 22 22 22 22 22 21 21 19 18 17 16
23 23 22 22 25 27 28 29 29 31 31 30 30 29 29 30 30 30 29 27 28 29 29 28 27 27 27 27 27 28 29 28 27 26 26 25 25 25 24 24 22 21 19
25 26 27 27 29 30 30 32 33 33 33 34 34 34 33 33 33 34 33 31 30 29 29 28 29 29 29 29 30 31 32 32 30 29 29 29 29 29 28 27 26 25 24
28 29 29 29 30 31 32 33 34 36 38 38 41 41 40 39 37 36 35 34 33 32 31 31 31 31 32 33 34 34 34 35 36 33 33 33 32 33 33 31 30 29 28
32 32 32 32 34 35 35 36 38 42 42 41 42 42 43 38 37 36 34 34 32 32 32 33 33 33 33 34 35 35 35 37 38 39 37 37 37 37 37 36 35 34 32
34 35 35 35 36 38 38 38 39 40 41 40 38 38 41 42 40 39 38 37 35 33 33 33 36 36 38 40 39 38 37 35 36 39 45 45 42 41 41 40 39 38 38
35 36 36 37 36 36 37 36 37 38 38 37 35 33 36 38 40 43 41 37 35 34 35 33 35 36 40 44 44 44 42 40 43 46 43 38 47 46 43 44 42 42 42
37 37 37 36 35 35 34 33 34 35 35 35 35 35 36 36 36 39 43 43 41 37 39 39 37 37 39 37 38 42 40 47 51 49 50 35 37 36 46 46 46 47 47
35 34 34 34 34 34 35 35 35 35 35 36 36 35 36 35 38 40 42 43 42 39 36 36 34 33 32 33 33 36 38 42 44 40 40 47 39 41 39 41 45 52 56
34 34 35 36 37 37 38 38 38 37 36 34 34 34 35 36 37 37 37 38 40 39 37 32 31 28 30 30 32 33 32 34 35 38 33 34 39 40 38 29 31 35 37
35 36 36 36 37 37 37 37 37 36 35 34 32 34 34 35 34 34 34 35 39 40 38 34 29 26 27 29 30 33 32 32 33 26 29 29 35 41 36 31 29 30 32
34 34 34 34 34 33 32 32 32 32 32 31 31 31 31 31 30 30 31 35 37 39 39 33 31 26 27 30 32 32 29 30 30 23 22 28 29 30 32 31 26 25 24
32 31 30 29 28 28 28 27 26 27 27 27 27 27 28 29 29 31 33 32 32 34 35 31 28 25 28 28 27 26 25 25 26 18 15 20 25 28 29 26 26 26 24
29 28 27 27 26 26 26 25 25 24 24 24 25 26 28 29 27 30 31 30 31 30 27 25 24 25 26 26 25 22 25 22 26 10 11 12 15 20 22 24 28 29 28
27 26 26 26 25 25 25 25 24 24 23 23 25 26 27 26 27 28 27 26 26 23 23 23 25 27 28 28 23 22 21 20 16 19 14 15 18 18 20 26 27 27 28
24 25 25 25 24 24 23 22 21 20 21 22 23 23 21 24 25 20 21 21 19 20 22 24 24 24 21 19 19 21 21 24 18 19 21 22 22 23 25 25 27 30 30
23 23 23 22 22 22 19 18 17 18 19 19 20 19 20 19 17 18 16 13 15 17 17 16 18 19 20 19 18 18 18 20 21 19 21 21 25 27 27 29 29 30 32
20 19 19 19 18 16 16 15 14 15 14 12 11 10 9 9 10 12 13 13 14 19 19 17 19 22 23 24 24 23 23 23 24 25 25 26 27 28 31 32 33 35 36
16 15 16 15 12 9 8 8 6 4 4 6 9 10 11 13 15 16 18 18 19 21 22 22 23 25 25 26 27 27 27 28 29 28 28 30 30 31 32 33 33 34 35
15 14 11 8 5 4 2 2 5 6 8 10 12 14 16 17 18 19 21 22 23 24 25 25 26 27 28 28 27 28 28 28 28 28 27 27 30 30 29 29 28 28 28
11 9 7 6 5 4 4 6 7 9 12 14 15 17 19 20 22 23 24 25 25 26 27 28 28 28 28 28 29 28 27 25 23 23 21 20 25 24 24 24 23 22 21
7 8 8 7 6 6 7 9 11 13 14 17 18 20 21 22 23 23 26 26 27 27 27 27 28 29 29 28 27 27 25 22 21 20 20 19 20 20 20 21 21 21 21
8 8 8 7 7 9 10 12 14 15 17 18 19 21 22 23 24 24 25 25 26 27 28 29 29 29 29 27 25 23 22 22 22 21 20 20 21 21 21 21 21 21 23

GFSMA_700_spd_069.txt.gz
Wind_Speed
15 15 15 15 15 16 16 16 17 17 18 18 19 19 20 20 21 22 23 23 22 22 22 22 21 20 19 18 18 17 17 16 14 13 13 13 12 13 13 13 12 11 10
16 16 16 16 17 18 19 18 18 19 20 20 21 22 23 23 23 23 24 24 23 23 23 23 23 22 21 20 20 20 19 19 17 17 17 17 16 16 15 15 14 13 12
16 17 17 17 19 20 20 21 21 21 22 23 24 25 26 26 24 24 25 25 24 24 24 24 24 24 23 22 22 22 22 22 21 20 20 20 20 20 19 18 17 16 15
19 18 19 19 21 22 23 24 25 25 26 27 28 28 28 28 28 28 27 26 25 25 26 26 26 26 26 25 25 26 26 25 25 25 23 22 22 22 22 22 21 20 18
21 21 22 22 24 25 25 27 28 30 30 31 31 30 30 32 32 32 30 30 29 28 28 28 28 28 28 28 28 29 30 29 28 28 27 26 25 25 25 26 25 24 22
26 25 25 25 27 28 29 31 32 32 33 33 34 35 35 35 36 36 35 34 32 31 30 30 31 31 31 31 31 32 32 34 32 30 30 31 29 29 29 29 29 28 27
29 28 28 28 30 30 31 32 34 36 37 37 40 39 40 39 37 34 34 33 32 31 32 33 33 33 33 33 34 34 34 34 35 35 34 33 34 33 32 32 32 32 31
31 32 31 31 32 33 33 34 36 39 40 39 42 42 42 38 33 31 31 31 30 31 32 34 34 33 35 36 37 37 37 37 37 36 38 38 35 37 38 37 37 36 35
32 33 33 33 34 35 35 35 36 37 38 38 37 38 40 39 36 33 31 30 28 26 26 27 29 32 34 37 38 40 40 40 38 38 35 36 43 43 41 41 44 41 38
34 34 34 35 35 36 36 35 35 35 37 35 35 33 35 36 37 39 37 32 27 28 29 31 31 31 32 34 36 38 39 38 39 40 39 43 36 40 39 42 42 49 42
34 34 34 34 35 34 33 32 32 32 33 35 35 36 35 36 36 38 40 38 36 33 30 31 31 29 30 31 30 33 34 35 36 38 37 36 33 34 42 38 39 47 45
33 33 33 33 33 33 33 33 34 35 36 36 37 37 35 36 36 35 37 38 36 34 29 28 29 27 26 26 27 28 31 32 34 32 31 31 34 33 36 36 30 28 37
32 33 33 33 34 35 35 35 36 36 37 37 37 34 35 35 35 34 35 35 35 33 30 26 29 23 23 23 25 26 28 30 31 34 33 30 31 32 30 29 34 26 30
33 33 34 34 34 34 34 34 34 35 35 34 34 33 32 30 31 31 31 31 33 32 33 30 23 23 22 20 21 24 28 29 33 33 34 30 30 35 32 32 37 37 26
31 32 33 33 34 33 32 31 31 29 28 28 27 26 26 25 26 26 26 28 31 35 34 30 26 20 19 17 19 22 23 26 27 25 25 28 27 26 33 37 39 42 38
32 33 33 33 32 30 29 28 27 26 26 25 24 23 24 24 24 25 27 28 30 32 31 28 23 18 16 18 20 22 22 22 23 23 23 22 25 34 35 36 34 31 30
30 31 30 30 28 27 26 25 24 24 24 23 23 23 23 23 24 26 27 27 29 27 26 24 19 17 18 20 21 20 20 19 19 22 14 16 13 15 27 29 32 32 29
29 28 28 27 26 25 24 23 23 23 22 21 21 21 22 23 24 22 24 25 22 21 18 18 19 18 18 18 19 19 18 17 16 18 21 20 14 13 15 16 17 20 21
27 26 25 24 24 23 22 21 20 19 17 17 18 19 19 19 18 19 18 19 16 13 16 16 15 15 16 15 16 18 17 16 16 16 17 18 19 18 20 22 24 26 31
25 23 22 21 20 19 18 17 15 14 14 14 15 15 13 12 11 11 10 12 12 14 16 18 16 16 18 19 19 20 20 19 20 20 20 20 20 21 21 22 24 26 27
21 19 18 16 15 13 12 10 9 8 8 7 4 3 4 6 9 10 12 14 14 15 17 18 18 19 20 21 22 22 23 23 23 23 23 23 24 25 25 26 27 29 30
17 15 14 13 11 9 6 4 3 2 2 3 5 7 9 10 12 13 15 16 17 19 19 21 21 22 23 23 24 24 24 25 26 25 25 26 26 27 27 27 28 29 31
14 13 12 9 7 5 5 4 2 3 5 7 9 11 13 15 16 18 18 19 19 20 21 22 22 23 23 24 24 25 25 26 26 25 24 24 23 24 25 24 25 25 25
13 12 10 9 8 7 4 3 5 6 8 10 12 14 16 17 19 20 20 21 21 21 21 21 22 23 24 24 25 26 26 25 25 23 20 19 22 23 23 24 25 25 24
12 11 11 10 7 5 5 6 7 9 10 12 14 15 16 17 18 21 22 22 22 21 21 21 23 24 24 25 25 26 24 23 22 21 20 19 20 22 22 22 23 23 25
11 10 9 7 7 8 8 9 9 10 12 13 14 15 16 18 19 20 21 22 22 21 21 22 23 23 24 25 25 25 24 23 22 23 22 20 20 21 22 22 23 24 26

GFSMA_700_spd_072.txt.gz
Wind_Speed
16 16 16 16 17 18 18 18 18 18 19 19 19 20 21 21 21 22 23 24 24 24 25 25 24 23 22 22 21 20 19 18 17 16 16 16 16 16 15 15 14 14 13
16 17 17 18 19 20 20 20 20 20 21 21 21 22 23 24 23 24 24 24 25 26 26 27 26 26 24 23 23 23 23 22 21 20 19 18 18 18 17 17 17 16 16
16 16 17 19 20 21 21 21 22 22 23 23 24 26 26 27 26 26 26 26 27 27 28 28 29 29 28 27 26 26 25 25 25 24 23 22 21 20 20 19 19 19 19
19 19 19 20 21 21 22 22 24 24 25 27 28 29 30 30 29 29 29 30 30 30 30 29 30 31 30 30 30 31 31 28 27 28 27 26 25 24 23 22 22 22 22
23 23 23 23 24 24 24 25 26 28 29 31 31 32 33 33 32 33 34 35 35 34 34 33 32 34 33 33 34 34 34 34 31 29 29 29 29 29 27 26 26 25 25
27 27 27 27 27 27 27 28 30 32 32 34 35 36 35 36 36 37 38 37 36 35 34 33 33 33 34 35 36 36 36 36 36 33 31 31 31 32 31 31 29 29 28
29 29 29 30 30 30 30 32 33 34 35 36 39 41 40 39 39 38 35 33 32 31 31 32 32 33 34 34 35 36 36 36 34 35 35 34 32 31 33 34 33 32 32
31 32 33 33 34 34 34 34 35 36 37 37 40 41 41 38 37 32 29 27 27 28 29 29 30 31 33 35 35 36 37 38 37 37 37 37 38 35 34 35 36 38 36
31 32 33 34 35 36 35 35 37 37 38 37 36 37 38 37 36 35 29 26 26 27 26 26 27 29 31 32 34 35 36 38 38 38 37 37 37 37 38 36 38 40 38
32 32 33 35 36 37 36 36 36 37 37 36 34 32 32 35 35 37 36 31 28 26 25 29 29 30 30 31 31 33 34 36 38 37 36 35 36 35 40 39 41 40 33
34 35 35 34 34 35 34 34 33 33 33 33 33 34 33 34 35 36 38 35 32 29 26 27 29 29 28 28 30 32 33 33 33 33 32 32 31 32 35 34 35 35 28
36 36 35 34 33 33 32 32 32 32 34 35 35 35 36 35 34 35 36 33 34 32 30 24 25 28 28 28 28 29 30 30 30 30 30 30 30 28 33 39 36 31 34
36 35 34 33 33 33 33 33 33 33 34 35 35 36 34 34 34 34 33 33 32 31 29 26 25 28 28 27 26 25 26 25 24 26 29 31 32 33 34 34 41 35 30
35 35 34 33 33 32 32 32 32 32 32 32 32 32 31 30 30 30 30 29 30 28 26 27 25 26 26 25 22 21 19 20 22 25 27 29 30 30 33 33 36 28 28
33 32 32 32 32 32 32 32 31 30 29 28 28 28 27 26 25 26 26 25 26 28 25 26 26 22 20 18 16 16 19 20 22 22 23 20 21 25 27 28 28 32 35
31 31 31 31 32 31 31 30 29 28 28 27 26 25 25 24 23 24 23 24 25 25 26 26 23 19 15 14 14 17 19 20 21 20 18 19 18 20 17 25 30 28 32
31 31 30 30 30 30 29 28 28 27 26 25 25 25 23 22 22 22 23 23 22 23 22 22 18 16 14 14 14 17 19 19 18 20 21 19 19 18 16 14 32 40 41
30 30 30 30 29 28 27 27 26 25 25 24 23 22 21 20 20 20 20 19 19 17 17 14 14 13 11 13 14 14 16 17 18 19 20 21 20 20 18 16 16 19 24
30 30 30 29 27 25 24 24 24 22 21 19 18 17 17 18 17 17 15 13 12 12 13 11 14 12 12 12 15 17 18 19 20 21 21 21 22 21 19 20 22 22 22
30 29 28 26 24 23 22 22 20 18 15 14 14 14 13 11 9 7 7 9 11 12 13 14 15 15 15 16 18 20 21 22 22 23 24 23 24 23 23 23 23 24 27
28 27 26 24 23 21 19 17 14 13 11 9 7 5 4 5 6 9 11 13 14 15 16 17 18 19 19 20 21 22 23 24 24 25 26 26 26 27 26 26 26 26 28
24 23 22 21 18 17 15 12 10 8 7 6 4 5 7 9 10 12 13 15 17 19 20 21 21 22 22 22 22 23 24 25 25 25 27 28 27 28 28 28 27 26 27
20 19 18 16 15 13 12 10 9 7 6 5 5 7 9 11 13 14 15 16 17 18 20 21 22 22 22 22 22 23 23 24 25 24 25 26 25 26 26 27 26 26 26
18 18 16 14 13 12 12 9 7 6 6 6 8 10 12 13 15 16 17 18 19 19 19 20 20 21 21 21 22 22 22 23 23 23 23 23 24 24 24 25 26 26 26
17 16 15 14 14 13 11 9 7 6 7 8 9 11 12 13 15 16 17 18 19 19 19 19 20 20 21 21 22 22 22 22 23 23 23 23 24 25 24 24 24 25 26
15 15 15 16 14 12 10 8 8 8 9 10 11 11 12 13 15 17 18 20 20 20 20 19 19 20 20 20 21 22 23 23 24 25 24 23 25 26 26 25 24 24 26

GFSMA_700_spd_075.txt.gz
Wind_Speed
17 17 17 18 18 18 18 18 18 19 20 20 20 20 20 21 21 22 23 23 24 24 24 25 25 25 25 25 25 24 24 23 22 21 20 19 17 16 16 16 16 15 15
17 17 17 18 19 19 20 20 20 21 21 21 21 22 23 24 24 25 25 26 25 26 27 27 27 28 28 27 27 26 26 26 25 24 24 23 20 19 18 18 18 17 17
16 17 18 18 19 19 20 21 21 22 22 23 23 25 26 27 27 28 29 28 29 29 31 30 30 30 30 30 30 29 28 26 27 27 27 25 24 23 21 21 20 20 19
19 20 21 22 22 21 21 22 23 23 24 25 26 28 31 31 31 32 32 32 34 35 35 33 34 34 33 32 32 32 32 28 27 27 29 28 27 26 24 23 23 22 22
22 24 24 25 26 26 26 26 26 27 27 28 29 31 32 34 35 35 35 35 38 39 37 36 34 32 34 33 33 33 32 33 32 29 29 30 29 28 27 26 25 25 24
26 27 27 27 28 29 29 30 29 29 29 30 33 35 35 36 38 38 37 37 36 36 34 32 32 30 30 33 33 33 32 32 32 32 31 29 28 28 28 28 28 27 27
27 28 28 29 30 31 31 31 31 32 33 34 35 36 37 38 39 37 33 32 31 30 29 30 31 30 31 30 31 33 34 32 32 32 32 32 31 32 30 29 28 28 28
29 29 30 31 33 34 33 34 35 35 36 35 37 38 40 37 36 38 31 28 27 28 29 28 28 27 27 29 30 30 31 32 32 32 32 32 32 32 32 29 30 31 30
31 31 31 32 33 34 33 34 35 36 38 36 36 37 39 38 35 35 34 30 30 30 29 29 27 27 29 31 31 32 32 34 34 33 33 33 33 34 32 34 34 31 33
32 32 32 33 34 35 36 37 36 37 38 37 35 34 33 34 33 36 35 31 32 28 29 27 27 28 29 30 30 30 31 30 32 31 31 32 31 31 33 29 35 45 35
33 33 34 35 36 36 36 35 34 34 34 34 33 33 32 34 34 36 37 35 32 31 27 27 28 29 29 29 29 30 30 31 31 30 29 29 29 29 28 30 30 34 41
35 36 37 37 37 36 34 33 33 33 33 33 34 34 34 35 34 34 34 31 34 30 29 25 24 26 28 28 27 29 28 28 28 27 27 28 29 28 28 28 28 34 46
38 37 38 37 36 35 34 33 33 33 33 33 33 34 34 34 33 33 32 31 32 30 28 27 23 24 25 27 27 26 25 24 23 21 24 26 26 26 27 29 30 25 35
39 38 37 36 35 34 33 32 32 32 31 32 32 32 31 29 29 29 29 25 31 27 25 27 23 24 26 25 25 24 21 18 18 21 22 23 22 24 23 25 26 30 35
37 36 35 35 33 33 32 32 32 32 31 30 30 29 28 27 26 26 25 25 25 26 25 25 23 24 24 23 22 18 16 16 17 19 19 17 17 18 20 20 24 28 31
34 34 33 33 32 32 32 32 31 30 29 28 28 27 27 26 25 24 23 23 23 24 25 22 22 21 21 18 17 15 16 16 17 18 17 16 17 20 18 22 21 14 20
33 33 33 33 32 32 32 31 30 29 28 27 26 26 26 25 24 23 22 21 22 22 21 18 17 15 16 15 15 15 16 15 15 15 16 16 17 18 19 19 19 15 19
32 32 33 33 32 32 31 30 29 28 27 26 25 25 24 23 22 20 20 19 18 17 16 14 12 11 12 11 12 12 13 16 17 19 18 19 19 19 20 19 18 18 19
32 32 32 33 32 32 31 29 27 26 26 24 24 22 21 19 18 18 17 14 12 9 10 9 11 14 14 14 15 17 19 19 20 22 23 22 22 22 22 22 22 20 20
31 32 32 32 32 31 29 27 26 24 23 22 20 18 17 15 14 11 8 8 10 11 13 13 14 16 17 18 19 21 22 23 24 25 25 25 26 25 25 25 24 25 25
30 31 31 30 29 27 25 24 23 20 18 17 15 13 9 7 7 8 9 11 13 15 17 18 19 20 20 21 22 22 24 24 24 25 25 25 26 26 26 27 26 25 25
29 30 29 27 24 22 21 19 18 16 14 12 11 9 9 8 9 10 12 14 16 17 18 20 21 22 22 22 22 22 22 23 24 22 25 26 24 26 26 27 27 27 25
27 27 25 23 21 19 17 16 15 14 13 12 11 10 9 10 10 11 13 14 16 18 19 21 22 22 22 21 21 21 21 22 22 23 23 24 23 24 24 24 25 25 25
25 23 21 19 19 17 16 15 14 14 13 11 11 9 10 10 11 12 13 14 15 17 19 20 21 21 21 21 21 21 21 21 21 21 21 22 23 24 24 25 25 26 27
25 23 20 18 18 16 17 16 15 13 12 10 10 10 10 11 11 12 13 14 16 18 20 21 21 21 22 22 22 21 21 21 21 21 22 23 23 24 25 25 26 27 28
24 22 20 18 17 18 17 15 14 12 11 11 11 11 11 11 12 14 15 17 19 21 22 22 21 22 22 22 22 23 23 23 23 23 24 24 25 25 25 25 25 26 28

GFSMA_700_spd_078.txt.gz
Wind_Speed
13 14 14 14 15 15 16 16 17 18 18 18 19 19 19 20 20 21 22 22 23 24 24 25 26 26 25 24 23 23 22 22 22 21 21 21 19 18 17 16 16 15 15
13 13 14 14 15 15 16 17 18 18 19 20 20 21 21 22 23 24 25 25 26 26 27 28 30 30 29 28 26 24 22 23 24 23 23 22 21 20 19 18 18 17 16
12 13 14 15 17 17 18 18 19 20 20 22 22 23 24 25 26 27 29 30 29 28 29 31 32 32 31 31 29 29 26 24 23 24 24 23 22 21 22 21 20 19 18
14 15 17 18 20 20 21 22 22 23 24 24 25 26 28 27 29 29 30 31 34 35 33 32 31 30 29 30 28 27 27 27 25 25 25 23 24 24 23 22 22 21 20
17 19 20 22 22 23 23 24 25 26 27 27 28 28 29 31 31 33 33 33 34 35 35 33 28 27 26 27 27 27 27 28 27 25 25 25 24 23 22 22 22 22 22
22 22 23 23 24 24 25 26 28 28 29 29 30 32 32 33 35 34 33 32 32 32 31 29 28 26 26 26 27 29 29 28 26 24 24 25 25 26 25 23 23 23 23
23 23 23 24 25 26 27 29 29 30 31 32 33 34 35 33 34 34 34 32 28 27 29 25 28 28 28 28 27 26 26 26 25 23 24 27 29 29 27 25 24 23 24
24 24 26 27 28 29 30 30 31 32 33 32 35 37 39 34 33 34 32 30 28 30 29 29 29 29 27 29 28 26 27 28 28 27 27 27 29 30 30 27 27 28 25
26 27 28 29 30 31 31 32 33 34 36 34 34 35 38 38 34 32 31 30 31 32 32 31 31 27 25 28 28 27 26 26 27 27 27 27 26 28 31 30 30 30 33
28 29 30 31 32 32 33 35 35 36 36 35 33 31 33 34 33 34 29 32 31 32 32 32 32 29 22 27 27 27 27 27 26 26 26 26 25 25 24 26 27 27 22
31 32 32 33 34 35 36 36 36 34 33 33 32 30 31 32 33 36 35 30 31 32 30 31 28 26 26 25 27 27 27 27 28 26 25 25 23 22 22 22 23 25 27
32 33 34 35 36 36 36 35 35 34 33 33 33 32 33 34 32 33 34 32 32 26 31 31 25 24 25 24 27 27 28 28 25 24 23 22 21 21 21 22 23 25 26
34 34 36 37 37 37 36 35 34 34 33 33 32 32 32 32 33 33 31 31 30 29 29 27 24 21 22 25 26 27 26 24 22 19 18 19 19 21 21 22 22 26 28
34 35 35 37 37 37 36 35 34 33 32 31 32 32 32 31 30 30 29 27 26 25 23 24 21 21 23 24 27 25 24 21 16 15 15 15 16 18 18 18 17 18 22
37 37 36 36 36 35 34 33 33 33 32 31 31 31 30 29 28 27 26 24 24 26 24 22 21 22 22 22 24 23 20 15 14 15 14 14 15 15 16 16 15 17 19
39 40 38 36 34 34 34 33 33 32 32 31 30 30 29 28 26 25 24 23 23 23 23 22 21 20 19 18 18 18 15 14 15 15 14 14 14 16 15 15 12 12 13
39 38 37 36 35 34 34 34 32 32 32 31 30 29 27 26 25 24 23 22 21 21 21 20 19 17 15 13 13 14 13 14 14 13 13 15 15 16 17 18 18 15 12
34 34 34 34 35 34 34 33 33 33 31 30 29 27 26 25 23 22 20 19 19 19 18 16 16 12 13 13 13 13 13 13 16 16 16 17 19 19 19 19 20 19 16
34 33 33 33 34 34 34 33 33 31 30 28 26 24 23 21 19 17 17 16 16 13 11 10 11 12 14 15 15 16 17 18 19 20 20 21 21 21 21 21 21 21 20
32 32 31 32 33 33 33 32 31 29 27 25 24 21 19 16 16 15 13 11 9 10 12 13 14 15 16 18 19 20 20 21 22 22 22 22 22 22 22 21 20 21 22
30 30 30 30 31 31 31 30 29 26 24 22 19 16 15 12 10 8 8 9 11 12 14 16 16 16 17 18 20 20 20 22 20 21 22 21 22 22 21 21 20 21 21
28 29 29 30 30 28 27 26 24 21 19 17 15 12 10 10 9 10 10 11 13 14 15 16 17 18 17 18 19 20 20 21 20 20 22 21 20 21 20 20 20 21 20
28 29 29 29 28 25 23 21 20 18 16 14 13 12 11 11 10 11 12 13 13 14 15 16 17 17 18 19 18 21 20 20 19 19 19 20 20 19 19 20 21 21 22
29 29 28 27 26 22 20 17 17 15 14 14 13 12 12 12 11 12 12 12 13 14 14 15 17 18 19 20 19 21 20 20 19 20 20 20 21 21 21 20 22 23 24
30 29 28 25 23 20 17 16 16 15 15 14 13 12 12 13 12 12 12 13 13 14 16 17 18 19 19 19 20 20 21 20 21 20 22 22 21 23 23 23 23 24 24
29 28 26 23 20 18 17 16 16 15 14 14 13 12 12 13 13 13 14 15 14 16 17 18 19 19 19 20 20 21 22 22 22 22 23 22 24 24 24 25 26 25 26

GFSMA_700_spd_081.txt.gz
Wind_Speed
9 8 8 8 8 9 10 10 12 13 13 14 15 15 16 17 17 18 19 20 20 21 22 23 24 25 25 25 23 21 21 20 18 17 17 16 16 16 16 15 15 14 14
10 9 9 9 9 10 11 12 13 14 15 16 16 18 19 19 20 21 23 22 22 23 24 26 27 28 28 26 21 21 19 19 20 20 19 18 17 17 17 17 15 15 15
11 10 10 11 11 12 14 14 16 17 18 19 20 21 22 23 22 22 26 28 27 27 27 26 27 27 27 24 20 19 19 21 21 20 20 20 20 19 18 17 16 16 16
12 12 12 13 14 15 16 17 18 19 20 21 22 24 24 24 24 26 27 29 30 28 29 29 27 23 23 23 20 17 17 21 22 23 22 21 20 19 18 17 16 16 17
15 14 15 16 18 18 18 19 20 22 23 24 25 26 25 27 27 28 28 31 32 32 30 27 23 24 24 23 23 21 19 19 22 23 23 22 21 19 18 17 17 17 16
18 17 18 19 19 19 20 22 23 25 26 27 27 28 27 28 29 29 29 30 31 30 27 25 25 25 25 24 24 23 21 20 20 20 21 21 23 22 22 21 20 18 19
19 19 19 19 20 21 23 25 26 27 28 29 31 31 31 30 30 29 29 30 30 28 25 25 27 27 28 25 25 23 23 23 22 22 21 21 20 25 25 24 23 21 19
19 20 21 22 23 24 26 27 28 30 30 30 34 35 36 32 29 29 29 25 26 27 29 29 30 28 28 26 25 23 23 25 24 23 22 22 22 25 26 26 24 22 23
21 23 24 25 26 27 28 30 31 32 33 32 33 36 37 36 32 29 29 27 27 29 31 33 33 31 26 25 27 25 24 23 23 23 23 22 22 22 23 27 28 26 23
25 25 26 28 29 30 31 31 33 34 36 35 34 33 34 34 34 33 26 28 29 30 32 34 34 30 26 24 22 24 23 23 23 23 23 23 22 22 20 21 22 24 24
26 28 29 30 31 31 32 34 35 35 36 36 34 31 31 31 32 35 35 27 30 32 32 33 34 29 27 24 22 23 23 23 24 24 25 22 21 19 19 19 20 22 23
30 30 30 31 33 34 35 36 36 36 36 36 34 32 32 32 31 32 33 32 29 31 28 28 32 31 23 24 23 23 24 24 25 24 22 21 16 15 16 17 17 17 19
29 29 31 32 34 35 35 36 37 36 36 35 33 33 33 32 32 31 31 31 29 28 28 29 27 23 21 23 23 25 24 24 24 22 18 14 13 15 16 16 16 17 19
28 31 33 34 34 35 35 35 36 36 36 35 33 33 33 32 31 31 30 28 27 26 28 27 20 21 22 23 25 25 24 23 21 16 13 13 13 13 11 10 11 14 15
34 34 35 36 38 39 38 37 35 34 35 34 32 33 32 31 30 29 29 27 27 26 24 22 21 21 22 23 23 22 21 19 15 12 12 13 15 13 11 10 10 14 15
34 38 44 46 42 39 39 38 35 34 35 34 32 32 32 31 30 28 27 26 25 24 24 22 21 21 21 20 19 18 18 16 13 13 14 13 12 12 11 11 10 10 12
36 40 40 39 37 36 35 35 34 34 33 33 32 31 30 29 28 27 26 25 23 23 22 20 20 19 18 15 13 13 13 12 13 12 12 13 13 14 14 15 14 13 11
37 35 33 34 35 35 35 35 34 33 32 33 32 30 30 28 27 25 25 24 22 20 19 19 16 15 13 13 13 14 13 13 13 15 15 15 16 17 17 17 17 16 15
35 33 34 35 34 34 34 34 34 33 33 32 31 29 28 27 25 23 22 21 18 18 17 14 12 12 12 12 14 16 15 16 17 17 18 18 18 18 18 17 17 17 17
31 33 33 34 33 33 33 33 32 32 32 31 30 28 25 23 21 20 19 18 17 15 11 11 12 13 15 15 17 18 16 17 18 18 18 18 17 17 17 17 17 17 17
29 29 30 31 31 31 32 32 31 30 29 27 26 25 22 19 17 17 15 13 12 11 11 13 14 16 16 17 17 18 18 17 18 17 17 17 17 16 16 16 16 16 17
27 28 29 30 30 31 31 30 29 28 26 23 20 18 16 14 12 12 11 10 12 12 13 14 14 15 16 16 17 16 16 16 17 17 16 16 17 15 15 15 15 16 16
27 28 29 30 31 31 30 29 26 25 22 19 16 15 14 14 13 13 12 11 14 12 14 14 13 13 14 15 16 16 16 16 16 16 16 16 17 17 16 17 16 17 18
28 29 29 30 30 30 28 26 23 20 19 17 15 14 15 16 13 13 13 12 12 12 13 13 14 15 16 17 17 17 16 15 15 15 16 17 18 18 18 19 19 19 20
29 29 29 29 29 28 26 23 20 18 16 15 14 13 14 12 13 12 12 12 11 12 13 14 15 16 17 17 17 17 16 16 16 17 17 18 19 19 19 21 22 22 23
28 29 29 28 26 23 21 19 17 15 15 14 14 14 13 13 13 13 12 12 13 14 15 15 16 16 17 17 16 16 17 17 17 18 19 19 20 20 20 23 23 23 23

GFSMA_700_spd_084.txt.gz
Wind_Speed
9 8 7 6 5 6 6 7 8 9 10 11 12 13 14 15 16 17 17 18 18 20 22 23 23 24 23 22 20 18 18 18 17 17 17 16 15 14 13 13 13 13 14
11 10 9 7 7 7 7 8 10 11 12 13 14 15 16 17 18 18 19 19 21 21 22 23 24 25 25 22 17 15 18 18 18 18 17 17 17 16 16 15 15 15 15
12 11 10 9 9 9 10 11 11 12 14 15 16 18 19 20 19 20 20 22 23 24 24 25 25 23 19 19 15 14 15 18 21 21 19 19 18 18 17 16 16 16 15
14 14 12 12 12 12 13 14 14 16 17 18 20 21 21 22 22 23 23 25 26 26 26 27 25 25 20 18 16 15 15 17 20 21 21 22 20 19 18 17 16 16 15
17 16 15 14 14 15 15 16 17 18 20 21 23 23 23 25 25 24 24 27 30 30 28 26 23 22 23 19 19 18 17 17 19 20 21 23 22 21 18 17 15 15 17
20 18 16 16 16 17 17 18 20 22 24 25 26 26 26 26 26 26 27 27 29 31 28 26 22 23 23 22 22 23 22 21 21 21 21 21 21 22 21 21 19 18 18
20 17 17 18 18 18 20 21 23 25 25 27 29 29 29 30 30 27 26 26 29 29 28 24 25 26 25 23 24 24 24 22 22 21 20 21 23 23 23 21 19 21 21
18 17 19 19 19 21 23 24 26 27 28 28 32 34 34 30 30 29 26 25 26 26 27 27 28 28 28 27 24 24 24 22 22 21 21 20 21 23 26 26 24 20 23
20 19 22 21 23 24 25 27 28 30 30 29 33 35 37 36 32 31 28 28 27 28 29 29 29 28 31 31 26 20 23 22 20 20 20 20 20 21 22 24 28 28 25
24 23 25 24 24 26 28 29 31 32 33 33 33 35 37 37 35 35 28 28 30 31 31 31 31 30 30 30 24 19 21 20 19 20 20 21 21 20 19 21 23 25 24
22 22 24 26 28 29 29 31 32 34 35 35 36 35 35 35 35 36 35 27 31 33 33 32 30 31 32 28 24 21 20 21 20 21 21 22 19 17 18 18 19 21 22
23 24 26 29 28 28 30 31 33 33 35 35 35 35 35 34 33 35 35 33 29 32 32 31 31 27 23 31 24 23 20 21 21 22 23 19 17 15 14 14 15 17 18
26 29 29 26 26 29 33 34 35 36 35 35 35 35 35 34 32 32 33 33 33 33 31 30 28 29 25 24 22 23 23 22 23 22 22 17 13 12 12 12 12 13 15
26 26 27 32 32 32 32 34 36 38 38 37 35 35 34 34 33 32 31 31 31 31 31 30 27 25 23 22 21 23 23 22 21 17 15 12 11 11 11 10 9 9 10
27 31 31 29 32 36 35 38 41 40 39 38 36 34 33 33 33 32 30 29 30 30 30 29 27 23 22 22 22 22 21 19 16 13 10 11 12 12 11 10 9 10 9
31 30 34 41 36 36 37 37 36 35 36 36 35 34 33 33 32 31 31 29 28 29 29 26 24 21 20 21 20 19 16 13 11 10 10 11 10 9 9 10 9 10 10
43 44 45 39 31 34 38 33 34 35 35 35 35 34 33 33 32 32 31 29 28 27 27 25 22 21 20 20 17 14 12 11 10 10 8 9 10 11 11 11 13 12 11
39 31 29 34 35 36 36 36 36 36 35 35 36 35 33 33 31 31 30 29 26 26 25 23 21 20 20 17 13 14 13 13 12 11 12 13 13 13 14 14 15 15 14
38 34 34 36 35 35 35 34 33 34 35 35 35 34 33 32 30 28 28 26 25 23 22 21 20 19 15 12 13 14 15 16 16 15 15 15 15 15 15 14 15 14 14
32 31 32 32 31 32 32 31 31 32 32 33 34 34 31 29 27 26 24 23 22 20 19 18 16 15 15 15 16 17 18 17 17 15 16 14 14 14 14 13 14 14 14
27 28 29 29 29 29 30 30 30 30 31 31 30 29 29 27 23 22 20 19 19 17 15 14 14 15 16 17 17 17 18 17 17 16 15 14 14 14 14 12 12 13 14
25 26 27 27 28 29 30 30 30 30 29 29 28 26 23 20 19 17 15 15 13 13 14 15 15 15 16 16 15 17 16 17 18 16 15 15 14 14 13 12 12 12 14
23 25 27 28 29 29 30 30 30 30 29 27 24 20 19 19 16 14 14 13 14 12 13 14 14 15 13 13 15 16 17 18 18 17 16 14 14 14 13 13 14 14 15
24 26 28 29 30 31 31 31 30 28 26 23 21 18 16 15 15 13 11 11 13 13 12 13 13 13 13 15 17 18 17 17 18 17 17 16 15 15 16 16 17 17 17
26 28 29 30 30 31 31 30 28 24 21 19 16 14 14 13 11 11 15 14 12 12 13 12 12 14 14 16 17 16 16 17 18 17 18 17 17 17 17 18 19 20 20
27 29 30 29 29 30 29 27 23 21 18 16 14 13 13 10 14 15 15 14 13 13 13 13 14 15 15 15 15 15 16 17 17 18 18 17 17 18 19 19 20 22 22

GFSMA_700_spd_087.txt.gz
Wind_Speed
10 8 8 7 6 6 6 6 7 8 9 10 11 12 13 14 15 16 17 17 18 19 21 22 23 22 21 22 17 16 17 17 17 16 14 14 14 14 14 14 14 14 14
13 12 12 10 8 6 6 7 8 9 10 11 12 13 15 16 17 18 18 19 20 22 23 23 23 23 20 16 13 15 15 18 19 19 17 17 16 16 16 16 16 16 15
16 15 14 12 10 8 8 9 10 11 12 13 15 16 17 19 19 20 20 21 21 22 24 24 24 24 13 15 15 17 19 18 16 19 20 19 18 17 17 16 16 16 16
20 18 16 15 13 11 11 12 12 12 14 16 17 19 20 21 22 22 22 23 25 26 26 25 24 23 21 17 17 18 18 19 21 21 21 21 20 19 18 17 16 15 15
21 20 19 18 15 13 13 14 14 15 17 19 21 21 22 22 22 23 24 26 27 27 26 26 25 22 21 21 21 20 20 21 21 21 22 21 21 21 19 18 17 16 15
22 22 21 19 17 15 16 16 17 18 20 22 23 24 24 25 26 26 25 26 27 27 27 26 25 23 22 23 23 22 23 23 22 21 21 22 22 23 22 20 18 18 17
24 23 22 19 16 17 17 17 18 21 23 25 26 25 26 26 27 28 28 26 27 27 27 26 25 25 25 25 23 23 24 24 22 22 21 22 22 24 24 25 21 21 20
20 21 18 16 16 17 18 19 21 22 23 26 29 31 31 28 28 29 29 27 26 26 26 27 26 27 28 29 27 25 19 22 21 21 22 21 20 21 23 25 26 25 22
20 21 18 17 17 17 20 22 24 25 25 27 30 33 36 34 33 33 32 31 31 31 30 28 27 27 29 30 27 30 17 18 19 20 20 19 19 20 21 23 24 26 26
20 22 22 16 18 20 23 24 25 27 28 28 30 32 35 36 36 36 32 31 31 32 32 31 30 30 29 31 29 31 22 20 19 18 18 20 18 19 21 22 24 25 26
24 24 21 19 20 21 25 26 26 27 28 29 30 31 33 35 35 36 36 30 32 33 33 32 31 31 31 30 29 25 25 22 18 17 19 19 18 17 19 20 21 21 22
26 22 21 19 21 24 26 25 26 30 32 32 33 34 34 34 34 34 36 34 31 32 31 32 32 30 30 29 27 24 24 23 19 21 21 18 18 17 15 13 14 15 18
22 22 22 21 24 24 27 27 28 29 32 34 35 35 37 36 36 35 35 33 34 33 31 30 30 30 29 27 25 23 22 21 20 19 20 18 17 13 11 10 11 11 12
22 23 25 25 24 26 28 28 30 33 44 38 38 37 36 36 36 35 34 34 33 34 34 32 29 27 30 25 24 22 20 19 19 18 16 14 11 10 10 10 10 9 9
24 26 26 26 30 33 33 36 42 50 35 40 35 33 33 34 34 34 34 33 33 33 34 33 30 27 28 25 23 22 20 18 17 16 14 12 10 10 11 10 10 10 10
29 30 30 32 32 37 47 46 37 35 39 36 34 34 33 34 34 34 33 33 32 33 34 32 29 28 26 23 20 22 18 16 13 10 10 11 11 10 10 9 9 10 9
37 41 41 43 28 29 28 29 32 35 36 36 37 37 34 34 33 33 33 33 32 32 32 32 29 27 24 22 21 20 17 14 12 10 9 10 9 10 11 11 11 12 12
32 29 35 26 33 32 32 33 33 34 36 36 36 36 35 34 33 33 32 32 31 30 30 30 27 25 22 20 19 18 15 14 13 12 12 12 13 15 15 14 14 15 14
32 31 34 36 35 33 32 32 31 32 32 32 33 34 34 33 33 33 31 30 30 29 27 27 25 23 20 18 15 13 14 15 15 15 16 15 16 17 16 16 15 15 15
33 32 35 33 31 30 30 30 30 30 30 31 32 32 32 31 31 30 29 27 26 25 24 23 20 19 18 16 15 15 15 16 16 17 17 17 16 16 16 15 15 14 15
33 32 29 28 28 28 29 29 29 30 30 31 31 31 31 30 29 27 26 25 22 20 18 18 18 16 15 14 16 16 15 16 17 17 18 16 16 16 16 15 14 13 14
26 25 25 26 26 27 28 29 29 30 30 31 30 30 28 28 26 24 20 21 19 18 14 14 12 13 14 15 16 16 16 16 15 16 16 16 16 16 16 15 14 13 13
23 23 23 23 25 27 29 29 30 30 31 31 30 29 26 23 21 18 15 11 12 10 9 11 11 13 14 14 14 15 15 16 17 17 17 16 16 16 16 15 15 14 14
21 21 23 25 27 29 30 30 30 31 30 29 27 24 22 18 16 13 11 9 9 9 10 12 11 13 14 14 14 16 17 18 18 18 17 16 16 16 16 17 16 16 16
22 24 25 27 29 30 31 30 30 30 28 26 23 19 16 14 12 11 10 8 8 11 15 14 12 12 13 15 16 17 17 17 17 17 17 17 17 17 18 18 19 18 18
25 25 27 29 30 31 30 29 28 27 25 22 20 17 14 13 11 9 8 9 12 16 17 14 13 14 14 16 17 16 16 16 16 17 17 17 18 18 19 19 20 20 19

GFSMA_700_spd_090.txt.gz
Wind_Speed
11 10 9 8 8 7 6 5 6 6 7 8 9 10 12 12 13 14 16 17 18 20 20 21 20 20 19 16 13 14 17 15 17 16 15 13 13 14 13 12 13 14 13
14 13 12 11 11 9 7 7 7 7 8 9 10 11 13 14 15 16 17 17 19 20 22 22 22 20 17 12 16 13 15 16 17 18 18 16 15 15 14 15 14 14 14
19 17 16 15 14 12 10 9 9 9 10 11 12 13 15 16 17 17 18 19 20 21 22 22 22 21 16 18 17 16 19 21 20 21 18 19 17 16 16 16 15 14 14
21 20 19 19 18 15 13 12 12 12 12 13 14 16 17 18 18 18 19 21 22 23 23 22 23 22 21 19 17 19 20 20 21 22 22 19 20 19 18 16 15 14 12
25 24 23 23 21 19 15 14 14 13 13 14 16 17 18 19 20 20 21 22 23 23 23 22 23 24 23 22 21 21 21 21 22 22 22 22 21 20 19 17 16 15 15
27 27 26 25 24 20 17 16 15 14 15 16 17 19 20 20 23 24 24 25 24 23 23 22 23 24 25 24 22 21 21 22 24 23 21 21 21 22 22 21 19 16 16
26 28 27 27 25 21 19 17 15 15 16 17 18 19 20 21 23 24 25 26 25 25 24 24 24 25 26 25 24 22 22 21 25 21 20 20 20 20 22 22 24 23 19
20 21 26 27 22 19 18 16 15 16 17 19 21 22 22 22 24 25 26 26 26 25 25 24 25 25 26 27 26 25 25 18 22 21 19 19 18 19 20 21 22 24 24
23 22 27 24 23 18 17 16 15 17 19 20 22 25 27 26 28 29 29 29 29 29 28 27 26 25 26 27 28 28 26 24 19 19 20 18 17 17 18 20 21 22 23
18 19 26 30 32 25 20 17 18 19 19 20 22 24 28 30 31 32 30 30 31 31 30 29 28 27 27 28 27 30 27 26 19 18 20 18 17 17 18 20 22 23 23
22 20 22 21 26 19 21 16 19 21 20 21 24 26 28 32 33 34 31 30 32 31 31 30 30 29 29 28 29 29 27 25 22 19 19 19 17 17 20 19 19 19 19
21 24 23 27 25 14 15 21 22 23 23 24 23 25 30 33 36 37 37 34 33 32 32 31 30 30 29 28 30 26 26 24 21 19 21 18 17 18 18 18 16 15 14
24 20 21 24 26 16 25 25 25 26 26 26 28 31 41 36 35 36 36 35 34 34 32 31 30 29 29 29 27 26 26 22 21 20 20 18 16 16 15 12 11 12 13
26 25 21 24 20 23 29 29 29 29 31 34 36 41 33 33 31 32 32 33 33 33 34 33 31 29 26 27 29 29 23 19 20 20 20 17 14 13 11 10 11 11 10
25 24 24 22 26 30 32 33 34 35 39 40 44 40 32 31 31 32 32 32 33 34 34 34 32 29 28 28 27 27 24 19 18 18 17 17 14 12 11 11 12 11 10
26 22 22 27 30 34 35 38 38 34 28 29 29 31 31 33 33 34 33 32 32 33 35 35 32 30 29 28 27 26 20 18 17 16 14 12 12 13 12 11 12 12 9
29 28 27 32 34 40 28 26 29 30 31 31 30 30 31 32 33 33 33 32 32 32 33 33 32 31 28 27 24 21 20 18 17 14 14 11 12 11 11 10 12 13 11
28 30 30 32 39 27 28 28 30 31 32 30 28 29 30 31 31 31 32 31 31 32 32 30 29 29 26 23 22 19 20 18 16 14 14 12 12 13 12 13 13 15 14
31 32 36 35 30 30 30 32 31 31 29 28 28 29 30 30 30 31 31 31 30 30 30 30 27 25 23 21 19 18 16 15 14 15 14 15 15 15 16 16 17 17 16
33 34 32 31 31 32 32 31 29 28 28 27 28 29 29 30 30 31 31 30 30 28 26 27 27 23 19 18 18 17 15 14 14 15 17 16 16 16 15 16 17 17 16
31 31 30 31 34 32 30 28 28 27 27 28 28 29 29 30 30 31 30 28 26 24 22 20 21 20 17 15 14 13 14 16 16 16 17 16 16 15 15 16 17 16 16
27 28 30 30 28 27 26 26 25 27 28 29 29 29 30 30 29 29 27 24 22 19 17 15 15 14 11 11 12 12 15 15 15 15 16 16 15 15 15 15 15 15 16
26 26 26 26 24 24 24 26 27 28 29 29 29 29 29 29 27 25 21 17 14 10 8 7 7 10 10 11 13 13 14 13 14 14 16 16 16 16 16 16 15 15 15
24 24 24 23 23 24 25 26 27 29 30 30 29 28 27 25 22 20 16 12 10 8 6 5 5 9 14 12 11 11 12 14 15 15 16 16 16 16 16 16 16 15 15
24 24 23 23 23 25 26 28 28 29 29 28 27 25 23 20 18 15 13 12 9 9 6 9 11 16 12 10 11 14 12 15 16 15 15 15 16 16 17 17 17 16 17
26 24 24 25 25 27 29 30 30 29 28 26 23 21 19 17 15 13 12 10 7 6 8 11 12 12 13 15 13 13 16 15 15 15 15 15 16 17 17 17 17 17 18

GFSMA_700_spd_093.txt.gz
Wind_Speed
16 13 11 10 9 8 7 7 7 6 6 6 6 7 8 9 10 12 14 14 15 16 18 18 18 16 16 13 14 15 15 13 16 16 15 15 14 13 12 11 11 12 13
17 15 14 13 12 11 10 9 8 7 7 8 8 9 10 11 12 14 15 16 16 17 18 19 19 17 16 17 19 18 19 16 17 18 18 16 16 16 14 13 13 13 13
20 19 17 16 15 14 13 12 10 9 9 10 10 11 12 13 14 14 15 16 16 17 18 19 18 18 17 19 20 20 20 21 22 21 19 19 19 18 16 15 15 14 13
23 21 19 19 18 17 17 15 13 12 12 11 12 12 13 13 14 15 16 17 18 18 19 18 19 18 19 19 20 20 20 21 23 21 21 21 20 19 18 17 16 15 14
25 23 24 23 22 21 20 19 16 14 14 13 13 13 14 14 15 16 16 17 18 18 19 19 20 20 21 21 21 21 19 21 22 22 22 21 22 21 20 19 16 16 15
27 26 27 27 26 24 24 22 19 16 15 14 14 14 15 15 16 18 19 20 21 21 21 20 21 21 22 23 23 22 19 20 22 24 21 20 21 21 21 20 21 20 17
28 28 29 28 28 27 25 23 21 17 16 15 16 15 16 16 17 19 20 20 21 21 21 21 21 21 22 24 23 22 21 22 18 22 20 18 20 21 20 21 21 21 23
28 28 29 31 28 28 25 23 21 18 17 16 17 17 18 17 17 19 20 23 24 23 23 23 22 22 23 24 24 23 23 22 24 21 20 19 18 20 21 20 20 21 22
29 29 25 22 26 26 25 22 17 16 16 15 17 19 20 20 22 23 25 27 28 27 26 25 24 24 25 25 26 26 26 24 24 23 18 20 18 18 19 19 20 21 21
30 25 28 30 29 31 30 26 23 18 16 14 18 20 21 22 25 28 28 32 32 31 30 28 27 26 26 26 26 27 28 25 25 24 20 19 18 17 19 21 21 22 22
34 36 27 27 25 30 33 38 31 24 24 14 23 24 22 22 24 29 34 36 35 34 33 31 28 27 27 28 28 29 27 26 26 25 20 18 16 18 21 22 22 22 20
22 19 20 15 16 13 18 26 31 27 16 20 28 30 29 29 31 35 41 34 32 31 32 32 30 28 28 28 27 26 29 28 26 23 21 18 18 19 21 22 20 20 19
20 24 24 18 17 19 18 12 23 20 24 29 35 36 35 35 37 38 40 34 32 31 30 31 30 29 28 28 28 27 24 28 25 21 21 20 19 20 20 19 18 17 16
21 22 26 26 21 22 23 23 23 24 31 36 36 37 38 41 42 42 35 32 33 32 31 31 29 28 28 27 28 25 26 30 27 21 21 20 19 18 18 15 15 14 15
20 20 22 22 21 24 22 25 27 30 35 37 37 39 40 31 29 28 30 32 33 35 34 32 32 29 27 26 26 28 27 26 24 21 21 20 19 18 16 14 14 13 14
23 22 22 22 23 26 25 26 27 29 34 42 41 31 29 29 29 29 30 32 32 33 35 35 32 31 29 26 24 26 26 25 23 20 19 18 16 15 16 15 14 13 14
28 28 28 26 24 25 27 29 29 35 30 28 29 31 30 29 28 28 29 30 31 32 33 34 34 32 30 28 26 24 21 24 20 18 18 16 15 15 15 15 12 12 12
32 31 27 26 27 26 27 30 29 25 30 29 30 29 29 28 27 27 28 29 30 31 32 32 31 30 29 28 26 22 22 22 19 17 17 15 14 14 13 13 12 13 12
27 28 29 30 30 30 32 33 26 30 30 28 27 27 28 28 27 27 28 29 30 31 32 32 30 28 26 24 24 23 21 20 17 15 15 15 15 16 16 16 16 16 15
27 29 29 30 31 32 34 29 31 30 27 27 27 27 27 27 27 28 29 30 30 31 30 29 28 26 22 20 20 19 18 16 14 13 14 14 16 17 18 18 17 16 17
27 28 29 32 33 33 32 29 29 27 27 27 26 26 27 28 29 29 30 30 30 30 29 27 24 21 18 15 14 15 13 12 13 14 14 15 16 17 17 17 16 16 16
29 29 29 30 31 31 30 29 26 27 27 26 27 28 28 29 30 29 29 29 28 26 24 21 19 18 14 10 9 9 11 12 13 14 15 15 15 15 15 16 16 16 15
28 28 27 28 29 29 26 26 26 25 26 27 28 29 29 29 29 28 28 26 23 19 16 14 10 8 8 7 6 5 9 13 14 13 14 14 14 16 14 15 17 16 15
26 25 26 26 25 25 25 24 24 24 26 27 28 29 28 27 27 27 25 22 18 15 12 9 6 4 6 7 8 9 12 10 10 12 12 13 14 15 15 15 15 15 15
25 25 25 25 26 27 25 25 25 25 26 28 28 28 26 25 24 23 20 18 15 14 12 11 8 10 14 9 10 8 8 9 9 11 12 15 14 14 14 15 15 15 16
28 27 27 27 27 27 27 27 27 28 28 28 28 26 24 20 19 19 17 16 15 13 12 10 9 10 8 7 8 9 9 13 12 12 13 12 14 14 14 15 15 16 17

GFSMA_700_spd_096.txt.gz
Wind_Speed
23 20 17 15 12 11 10 9 9 8 7 7 7 6 7 7 9 10 11 12 13 13 14 15 16 15 15 16 17 15 17 17 17 17 16 16 15 14 14 14 13 14 14
23 20 17 16 14 13 12 11 10 9 8 8 8 8 8 9 10 12 13 14 14 15 15 17 17 17 15 17 17 18 20 20 19 19 19 18 18 17 16 16 15 15 15
25 22 20 18 17 16 15 14 13 11 11 10 10 10 10 10 11 12 13 13 15 16 16 17 17 18 16 17 19 20 21 20 20 22 22 21 20 19 18 17 16 17 17
25 24 22 20 19 18 17 17 16 15 13 12 12 11 12 13 13 12 13 14 15 16 17 16 17 17 18 20 20 18 20 21 22 23 23 22 22 22 18 17 18 18 18
26 24 23 22 22 21 20 20 20 18 17 15 14 14 15 13 13 13 15 15 17 18 19 19 19 19 19 19 19 19 23 22 22 23 25 24 22 22 20 20 19 18 18
27 26 26 25 26 25 23 23 23 23 20 17 16 16 16 15 14 15 15 16 17 18 20 21 21 21 21 21 22 25 25 23 23 22 25 25 22 20 20 20 21 22 22
29 30 29 28 29 29 27 28 27 26 22 20 19 18 17 16 14 13 13 15 17 19 21 22 22 23 22 24 25 26 26 26 25 24 23 25 24 20 19 20 20 21 22
28 31 31 30 32 33 32 31 30 27 25 24 22 20 19 17 16 15 15 16 19 22 25 26 25 25 25 24 25 26 27 28 27 28 24 23 24 21 20 19 20 20 21
35 35 35 32 31 31 34 31 31 30 27 26 21 19 18 19 20 20 19 20 23 27 32 32 31 30 28 28 28 28 28 29 29 30 26 25 23 22 21 19 19 19 20
38 37 42 39 39 32 30 32 32 29 26 24 25 20 16 18 23 25 27 26 29 32 36 34 32 31 30 29 29 30 29 30 30 29 29 24 23 22 21 20 21 22 23
30 55 51 37 29 36 32 36 37 27 34 27 26 20 17 22 28 31 31 34 33 35 38 35 31 29 29 29 29 30 30 29 30 29 30 23 22 23 23 24 24 23 21
28 28 28 42 20 28 28 12 21 20 31 47 40 41 35 29 34 36 37 37 39 40 37 33 30 29 29 29 29 30 30 30 30 32 29 25 22 23 24 25 26 24 22
19 19 18 11 17 16 14 15 18 15 15 16 19 19 24 32 38 38 40 43 46 44 37 31 29 30 29 29 29 30 30 29 28 29 33 30 23 23 24 25 24 23 22
17 16 16 17 17 13 17 18 20 19 20 21 22 24 30 35 37 40 45 43 33 28 27 28 28 29 30 31 30 32 30 30 28 30 34 31 26 23 23 22 22 22 19
17 16 17 17 17 18 19 23 20 18 19 23 26 30 35 39 40 40 32 32 31 31 32 33 30 29 30 30 30 30 32 31 31 31 30 29 26 22 20 19 19 17 16
23 22 21 18 18 19 19 20 21 21 22 24 26 29 30 30 31 32 31 30 30 31 32 31 30 30 30 31 30 29 30 30 32 30 28 28 23 20 18 16 17 16 17
26 25 24 24 22 22 21 21 22 22 23 28 32 31 30 32 32 29 28 29 29 30 30 31 31 31 31 31 30 28 26 27 29 29 27 23 21 18 16 13 15 15 16
27 27 29 28 26 24 23 23 23 24 28 27 27 29 29 29 29 28 27 28 28 29 31 31 31 32 33 32 31 29 27 26 25 23 22 22 19 19 16 13 13 13 15
33 32 30 28 28 27 26 26 27 28 30 30 31 28 27 27 27 27 26 27 28 30 31 31 32 32 32 31 30 27 25 25 23 21 19 19 16 18 15 13 13 15 15
31 31 31 30 29 29 31 30 30 31 33 32 29 27 26 27 27 26 27 29 30 31 32 32 32 31 30 28 26 23 21 18 17 16 15 14 15 16 16 16 16 16 17
27 29 29 30 30 30 31 31 32 33 33 29 28 27 27 27 27 28 29 30 31 31 31 31 30 28 26 23 21 18 15 14 12 12 11 12 14 16 17 18 18 18 17
30 29 30 30 31 31 31 33 34 33 32 29 27 26 27 28 29 29 30 30 29 29 28 27 25 23 21 17 15 12 9 8 9 10 12 14 17 19 17 16 16 16 16
32 31 31 31 31 31 31 31 30 30 29 28 26 26 28 29 29 29 29 28 28 26 24 22 20 16 12 10 8 6 5 6 7 9 11 11 13 14 14 14 14 14 14
30 30 30 31 31 31 30 29 28 28 27 27 26 27 28 29 30 29 27 26 25 23 20 18 14 12 9 9 10 9 8 7 7 7 7 10 12 11 12 13 13 14 15
31 29 30 31 31 31 29 28 28 28 28 28 27 28 29 29 28 27 25 24 22 20 17 15 13 11 9 11 9 9 11 10 12 11 13 14 15 13 14 15 15 16 16
32 32 31 31 31 30 30 29 29 30 29 30 30 29 29 28 27 25 23 22 21 19 17 16 16 14 11 11 10 9 11 10 10 12 11 12 15 14 12 14 14 16 16

GFSMA_700_spd_099.txt.gz
Wind_Speed
30 27 24 20 18 15 13 11 10 10 9 8 8 7 6 6 7 8 10 9 10 11 12 13 14 15 14 12 16 16 17 19 20 20 17 17 19 18 17 17 17 16 15
30 28 25 22 19 16 14 12 11 10 10 9 8 8 8 8 9 10 11 12 11 13 14 16 16 15 15 16 13 14 20 18 18 19 19 20 20 19 18 19 20 18 17
29 27 25 22 19 17 15 14 13 12 12 11 10 10 10 10 11 12 13 13 13 14 14 15 15 16 16 17 17 15 20 20 21 21 22 22 21 20 18 17 19 19 18
29 26 23 21 19 18 17 16 15 15 15 14 14 13 12 12 12 11 12 13 14 15 16 16 17 17 18 19 18 18 22 23 24 24 24 24 24 23 22 20 18 18 19
28 26 24 22 21 20 20 18 18 19 19 18 17 16 16 15 13 12 12 13 13 14 14 17 17 19 19 20 22 24 23 25 27 26 24 25 26 24 22 21 20 19 19
29 27 26 25 24 23 24 21 21 22 23 22 22 20 19 18 15 14 14 14 13 13 15 17 20 20 20 22 23 23 25 27 28 26 24 24 27 26 24 21 20 20 23
31 30 28 27 26 26 28 26 26 26 26 26 26 24 23 20 17 16 15 15 15 15 16 18 23 26 25 26 26 26 27 28 30 27 27 27 25 25 24 22 19 21 21
34 31 31 31 29 31 31 28 29 30 29 28 29 29 23 22 21 17 17 17 18 19 20 24 27 31 31 29 28 28 28 29 29 29 29 27 26 25 23 22 20 19 20
31 32 34 35 33 34 30 31 32 31 32 29 32 29 25 22 22 20 18 18 20 23 25 28 30 32 31 29 29 28 28 29 29 31 29 28 26 25 23 22 21 20 20
28 28 33 34 37 35 34 38 46 41 35 32 30 29 26 24 22 19 22 23 22 26 29 32 34 33 32 29 27 27 28 29 30 31 31 28 25 24 25 23 22 21 21
35 32 35 35 39 37 40 46 50 45 34 34 36 28 40 31 23 21 23 28 35 34 32 36 39 39 33 29 28 27 29 30 30 31 32 31 26 27 27 26 24 23 23
39 45 44 44 43 40 52 38 34 18 9 16 24 19 34 38 39 46 39 38 39 37 40 41 36 32 29 29 29 29 29 30 31 32 32 34 31 26 26 27 26 24 25
36 35 41 49 23 15 17 6 19 13 17 16 20 18 23 35 29 27 33 34 37 37 41 29 26 26 28 30 30 32 32 32 31 32 33 36 32 30 28 28 27 25 25
18 20 17 18 16 11 12 15 12 14 16 20 20 17 16 20 25 28 32 35 37 37 32 29 25 28 29 30 30 31 31 32 32 32 33 34 34 33 30 28 25 23 22
13 13 14 14 15 16 18 17 16 18 18 19 18 18 20 24 27 31 31 29 29 32 32 31 29 26 28 28 29 30 31 32 32 32 32 32 32 33 25 24 22 21 20
20 21 20 18 18 17 15 19 18 18 20 21 20 21 23 26 29 30 28 28 29 30 30 30 29 27 27 28 29 31 32 32 32 32 32 32 29 26 21 21 20 19 18
25 24 23 22 20 20 18 19 21 22 23 23 24 23 24 25 24 28 29 28 28 28 29 29 29 29 30 30 30 31 31 31 31 29 30 29 23 22 19 17 16 16 16
26 25 24 24 23 23 23 22 23 24 25 24 22 24 25 26 30 29 26 26 26 28 28 28 29 30 31 31 31 31 31 30 29 28 26 22 17 19 18 15 14 14 14
27 28 27 27 27 26 27 27 26 27 27 25 24 27 26 30 27 25 24 25 26 27 28 29 31 31 32 32 32 32 30 28 27 25 22 19 15 15 14 14 11 11 13
29 29 28 29 28 28 28 29 30 29 30 29 29 29 30 29 25 24 24 25 27 28 29 30 31 32 32 31 30 29 26 23 21 19 16 14 12 11 11 13 12 11 14
30 30 30 29 30 30 30 30 31 32 32 32 31 30 31 28 25 25 26 27 28 30 31 31 31 30 28 27 26 23 20 18 16 14 12 10 9 9 9 12 13 14 14
35 36 36 33 31 32 31 32 32 33 34 33 32 32 31 27 25 24 27 29 30 32 31 30 29 27 24 23 21 19 15 13 10 9 9 9 11 15 15 14 17 16 16
35 35 36 35 34 34 33 33 34 34 34 33 33 32 30 27 25 26 27 29 30 30 29 28 26 24 20 18 16 11 9 7 7 7 7 7 7 8 9 12 12 14 13
36 35 35 36 36 36 35 35 36 35 35 34 32 31 28 26 26 26 28 29 29 27 26 25 22 20 16 14 11 10 10 9 9 9 8 8 9 8 9 10 10 12 12
37 37 36 36 36 36 35 37 37 36 34 32 31 29 27 27 27 27 28 29 28 25 23 22 20 18 16 12 9 10 9 11 11 11 9 12 13 13 14 13 11 12 13
36 36 37 37 37 37 36 36 34 34 33 32 31 30 29 28 28 28 29 29 27 25 23 21 19 17 17 16 12 12 12 10 10 10 12 15 13 12 11 11 11 9 12

GFSMA_700_spd_102.txt.gz
Wind_Speed
30 30 28 25 22 19 16 13 11 10 9 9 8 8 7 7 7 8 7 8 9 9 9 10 11 14 16 16 16 17 16 17 18 17 18 19 20 20 19 18 17 16 15
33 31 28 25 22 18 15 13 11 10 10 10 9 9 9 9 9 9 10 10 9 10 11 11 12 13 15 17 17 19 19 18 17 18 19 20 20 20 19 19 18 18 17
32 29 26 23 20 18 16 14 13 12 11 11 11 10 10 11 11 10 12 11 11 11 11 12 13 14 16 17 18 19 20 21 21 21 22 23 22 22 21 21 21 16 16
31 29 27 24 22 20 17 15 14 13 14 14 13 13 12 13 13 13 13 13 13 13 13 13 12 14 15 16 19 21 22 22 23 23 24 25 23 24 22 21 19 19 16
32 30 29 26 24 21 19 17 16 15 16 17 16 18 16 16 15 14 14 14 13 13 13 13 13 14 16 19 21 21 22 24 25 26 25 24 23 23 23 23 20 18 19
32 31 29 27 25 23 21 19 18 17 17 20 20 21 21 20 18 18 16 16 14 14 13 14 14 16 19 23 24 24 24 25 26 27 28 25 24 23 23 23 21 18 19
33 32 30 28 27 25 23 23 21 21 20 25 22 25 25 24 23 20 20 18 16 15 15 17 19 21 23 25 26 27 27 27 27 28 28 27 26 26 23 22 21 19 18
33 32 30 29 28 26 26 27 25 22 24 26 27 28 27 28 26 24 20 19 18 18 17 19 22 24 25 27 28 28 27 27 28 28 30 27 29 28 27 26 22 20 20
32 31 30 30 30 29 32 29 29 27 26 25 26 28 28 30 29 26 20 21 20 21 20 22 24 27 29 32 32 30 26 26 27 28 29 28 29 28 28 26 24 22 21
27 26 27 27 30 31 31 29 32 34 30 34 36 28 35 29 27 25 28 29 24 21 23 25 30 30 32 34 31 27 25 25 26 27 28 28 29 28 28 26 25 23 21
31 36 26 28 25 26 26 29 33 35 36 34 42 39 40 36 42 38 35 37 34 39 38 38 39 36 28 25 23 25 26 26 27 28 29 30 30 29 29 29 26 23 23
36 38 34 30 32 33 37 40 41 40 45 39 34 26 20 34 37 34 30 31 37 43 46 39 36 31 26 23 24 26 27 27 28 29 30 30 31 31 31 30 28 28 26
41 47 38 38 33 38 41 50 35 21 15 6 9 23 22 21 26 32 35 36 32 29 31 34 29 27 28 26 27 27 28 27 28 29 31 32 31 33 32 31 28 29 25
14 38 33 36 29 42 35 21 22 14 17 17 21 21 21 20 21 21 22 25 28 30 33 34 25 25 26 27 27 27 28 28 28 29 30 32 31 32 32 30 27 25 24
11 13 12 9 12 13 15 16 20 20 20 20 20 19 20 21 20 20 22 26 28 28 25 25 26 23 25 25 25 27 28 28 30 30 31 31 31 30 29 28 25 22 21
14 13 14 16 16 18 20 22 25 27 20 20 20 21 22 22 21 22 25 28 28 29 29 26 26 24 24 25 26 28 29 29 31 32 31 31 30 28 27 24 20 18 18
20 20 21 21 20 20 21 22 20 20 21 22 23 24 24 24 21 23 25 28 29 29 27 25 25 25 25 25 27 28 28 29 30 30 29 29 28 26 23 19 17 15 14
22 22 23 22 21 21 21 22 23 23 24 24 25 27 27 25 25 24 27 31 29 27 26 25 25 25 27 28 28 28 29 29 29 29 28 26 24 21 19 16 14 13 12
23 24 24 25 24 25 25 24 26 27 28 27 29 29 27 26 27 28 27 27 26 25 25 25 26 27 29 29 29 30 29 28 28 27 24 21 19 17 15 12 12 10 9
24 25 26 28 27 27 27 27 28 31 33 32 33 32 32 31 30 30 28 27 26 25 25 26 27 28 29 29 29 29 27 26 26 23 20 16 13 12 9 9 9 8 9
29 30 31 30 29 30 28 28 30 33 34 36 35 35 35 33 32 31 30 27 25 25 26 27 29 29 29 29 27 26 25 24 20 17 14 11 9 7 5 6 7 8 8
31 32 32 33 35 35 33 31 31 33 34 34 34 36 36 35 33 31 31 27 25 26 26 27 28 28 28 26 24 24 22 18 14 10 9 7 7 8 11 14 14 13 11
32 34 34 33 32 32 33 33 34 36 36 37 37 37 36 35 33 31 30 27 26 26 27 28 27 27 24 23 21 19 16 11 10 8 6 6 7 7 8 8 12 13 12
30 31 33 34 32 32 31 33 35 37 38 39 39 37 36 34 33 30 29 27 26 26 26 27 25 23 23 21 17 15 12 10 10 8 8 10 10 9 7 7 7 8 9
32 32 32 33 34 33 32 32 35 38 39 39 39 37 35 33 32 31 28 25 27 26 25 25 24 22 20 18 17 13 11 11 12 11 11 11 10 11 12 12 12 12 10
33 33 32 33 33 33 33 33 34 36 38 37 37 35 35 33 32 30 29 27 26 27 26 25 23 22 21 18 16 14 13 11 14 13 12 10 12 11 9 10 11 13 10

GFSMA_700_spd_105.txt.gz
Wind_Speed
31 31 28 26 25 23 19 15 12 10 10 9 9 9 9 8 8 7 8 7 8 8 9 10 11 12 13 14 14 15 15 16 16 17 17 18 19 20 20 19 18 17 17
33 31 30 29 26 22 18 14 12 11 11 11 10 9 9 9 9 9 9 9 9 9 9 10 10 12 12 12 14 16 17 17 18 18 18 20 21 21 21 21 20 18 17
32 31 30 28 26 22 19 17 15 12 11 11 11 10 10 11 11 10 11 11 11 9 9 11 11 11 11 11 13 14 16 18 19 20 20 21 23 23 22 22 20 19 19
32 32 31 28 26 24 21 18 15 13 13 12 12 11 12 12 15 13 13 12 12 11 11 10 10 10 11 12 14 15 18 21 23 24 25 24 23 24 23 23 21 20 18
35 33 32 30 28 26 22 19 17 15 14 14 14 15 16 15 16 15 15 14 15 14 13 12 11 11 13 15 17 20 20 22 24 26 27 27 26 24 24 21 22 22 20
36 35 33 32 30 27 23 21 19 17 16 16 16 17 18 22 20 17 18 18 17 17 15 14 14 15 16 19 21 23 23 24 25 26 26 27 28 26 25 22 22 22 21
36 36 35 33 31 27 25 24 22 19 19 19 19 19 19 22 22 21 20 22 21 20 19 19 19 20 21 23 25 27 28 28 28 27 24 25 26 25 24 23 23 21 21
35 35 34 32 30 29 27 25 24 23 23 23 20 22 23 26 23 23 24 25 25 24 23 23 23 23 24 25 27 29 30 28 27 25 23 24 25 25 25 25 24 23 21
32 32 31 31 30 29 28 27 24 23 24 25 25 26 26 27 30 38 29 25 24 23 23 25 24 24 23 25 30 32 29 24 24 25 25 24 26 26 26 26 25 24 24
29 30 29 30 30 30 30 26 26 24 26 30 28 29 32 29 28 34 36 32 32 32 34 32 29 30 31 37 38 32 26 22 24 26 27 27 27 27 28 27 26 25 24
29 30 30 30 30 33 27 27 28 26 27 25 28 29 31 31 36 36 36 35 36 32 38 40 37 40 42 39 34 28 26 24 25 26 27 28 27 27 28 28 27 27 23
36 32 31 36 30 39 34 34 32 31 30 37 41 47 37 28 22 29 29 31 32 31 28 28 33 29 27 28 29 27 26 26 26 26 27 27 26 28 29 29 29 28 25
30 29 37 40 43 42 44 41 36 41 39 25 31 38 35 32 33 29 32 32 35 31 34 28 29 32 31 29 26 26 25 25 25 26 27 27 28 29 28 28 27 26 26
34 36 36 46 42 44 44 34 39 36 40 46 24 11 19 27 32 30 26 24 23 25 27 28 26 25 24 26 27 26 25 26 26 27 28 28 29 29 29 29 27 27 25
9 13 12 26 34 15 18 31 27 13 21 24 31 25 26 27 29 27 24 22 25 26 27 29 29 27 28 27 26 25 25 26 27 28 28 28 29 30 30 29 28 28 24
12 11 12 12 14 14 16 16 15 18 24 28 28 30 28 26 27 25 25 25 25 27 26 28 28 28 27 26 25 25 25 26 28 28 28 29 30 30 30 28 26 22 21
15 16 17 18 18 18 18 22 24 26 30 34 32 32 29 27 26 27 26 25 25 26 29 31 29 28 27 26 25 25 27 28 28 29 29 29 30 29 27 25 21 19 18
17 18 19 21 22 22 23 24 25 27 28 27 30 31 30 29 30 29 30 28 25 28 31 29 29 28 28 26 26 26 27 28 29 29 28 28 27 26 24 20 17 15 14
20 21 21 23 24 25 26 26 27 28 31 32 32 33 33 34 32 31 29 29 27 30 31 30 29 29 28 27 27 27 28 29 28 26 26 26 23 20 18 15 14 12 12
23 24 25 25 27 29 29 30 31 32 33 34 35 36 36 36 33 33 31 30 32 32 31 31 31 29 28 29 29 29 28 26 26 26 24 20 17 15 12 12 9 9 9
27 29 30 31 31 32 31 31 30 31 33 36 37 37 38 38 37 36 36 34 33 34 32 32 31 29 28 29 29 27 26 25 24 23 20 16 12 10 10 9 6 7 7
31 32 34 34 35 35 35 36 36 36 35 35 36 37 38 40 39 35 45 31 35 35 33 32 30 29 28 27 27 26 24 21 22 19 15 11 9 9 10 12 11 13 11
32 33 34 35 36 36 36 36 36 37 38 37 36 38 38 37 39 41 34 38 36 34 33 31 29 28 27 27 26 24 21 18 17 13 10 9 9 10 9 10 9 10 12
33 33 33 34 35 34 35 35 36 36 37 37 38 39 39 39 39 39 39 38 36 33 32 31 28 28 26 25 23 21 17 15 14 11 11 11 11 13 12 10 9 9 9
38 37 35 34 34 31 33 34 35 36 37 38 38 38 38 39 39 38 38 37 36 33 31 30 28 27 25 23 21 20 17 15 15 13 13 14 12 12 11 11 12 12 13
43 40 37 35 35 34 32 32 35 35 37 37 37 37 38 37 36 37 38 38 37 32 32 30 28 26 23 22 22 20 18 15 15 13 16 15 13 12 12 11 11 11 12

GFSMA_700_spd_108.txt.gz
Wind_Speed
33 33 31 28 25 24 22 20 16 13 11 10 10 10 11 10 9 9 9 9 8 8 9 10 11 10 9 10 11 11 12 13 13 15 16 17 19 20 21 21 20 20 19
36 35 34 30 27 26 24 21 16 14 13 12 12 12 12 11 10 10 10 11 9 8 10 10 11 11 10 10 10 12 13 14 16 17 19 19 20 21 22 22 22 22 20
36 37 32 31 30 28 25 22 19 16 14 13 13 13 12 12 12 11 11 11 11 7 10 10 11 11 9 10 11 12 14 17 19 21 22 23 23 23 25 23 22 22 21
39 48 40 33 32 29 26 23 21 17 16 15 14 14 15 14 15 14 11 11 11 10 12 11 11 12 11 11 13 15 17 19 21 23 24 25 25 23 23 24 24 24 22
45 35 28 34 35 30 27 25 22 20 17 15 16 16 17 18 17 16 15 12 17 12 13 15 14 14 14 15 17 19 20 22 23 24 26 26 26 25 22 22 23 23 23
26 24 28 37 34 31 31 28 24 21 19 18 18 18 19 20 20 19 19 18 18 18 18 17 18 18 19 19 21 22 23 25 26 28 29 28 25 24 22 23 23 22 22
34 29 37 36 35 33 31 29 27 23 21 20 20 20 20 21 20 21 21 22 22 23 26 21 20 21 23 23 23 23 23 25 29 31 30 27 26 24 23 24 24 24 24
34 33 36 36 36 35 34 31 27 25 24 23 23 22 22 24 23 25 22 22 23 29 30 27 25 25 26 26 23 23 26 30 33 31 28 24 24 25 24 25 24 24 24
35 34 35 36 36 35 32 30 28 27 25 24 20 20 24 26 28 24 21 27 26 26 29 31 28 27 27 29 29 32 36 38 39 32 26 25 25 25 24 25 25 25 24
32 33 33 35 35 33 33 31 29 29 28 27 25 25 26 28 30 29 28 32 34 34 32 36 31 32 36 36 37 42 41 30 30 27 26 26 27 25 25 25 25 26 26
34 30 31 32 31 32 33 33 32 30 31 30 30 31 30 29 29 33 42 41 36 36 34 38 33 33 25 29 33 33 28 29 28 27 26 27 26 24 25 26 26 27 27
37 34 32 33 35 34 36 36 36 36 41 32 41 34 35 41 30 35 37 27 27 34 34 26 30 31 32 29 31 32 30 27 26 27 27 26 24 25 26 27 27 28 26
34 37 37 41 47 39 43 38 41 38 53 48 42 48 46 44 35 35 39 35 30 33 33 32 34 27 28 28 27 24 25 25 26 26 26 25 26 26 26 27 28 28 27
20 32 33 31 27 35 36 39 38 42 44 43 49 44 50 42 39 39 43 29 28 34 32 30 27 26 28 28 28 27 26 26 26 26 26 26 26 26 26 28 28 28 27
6 26 32 28 24 41 48 50 51 48 50 44 37 32 40 28 19 26 30 31 33 33 31 29 28 28 28 28 28 28 28 27 26 26 27 27 27 27 28 28 29 29 27
12 12 17 19 17 14 23 27 27 22 24 39 32 29 30 29 30 32 34 35 34 31 31 30 29 28 28 29 29 28 27 27 26 26 27 27 27 27 28 30 28 26 25
15 16 19 20 19 18 20 23 25 28 26 28 27 29 33 36 39 37 36 36 34 31 31 30 28 29 30 29 29 28 27 27 27 27 27 27 27 26 28 28 26 24 22
16 18 20 22 23 25 26 27 28 28 30 31 34 38 38 40 41 40 43 35 33 32 32 29 29 30 29 28 28 29 28 28 28 28 28 26 25 26 27 26 23 21 19
17 19 21 24 25 27 28 29 30 31 32 32 35 34 36 36 38 39 33 33 38 34 39 31 30 30 31 30 30 29 30 29 29 29 28 26 24 25 24 22 19 17 15
21 23 24 26 28 29 31 32 34 35 35 36 37 39 36 37 41 42 40 42 41 38 35 32 32 31 31 31 31 30 30 31 31 28 26 24 24 23 20 17 15 14 13
27 28 30 32 33 33 35 36 37 38 40 40 41 42 43 44 45 47 36 42 46 36 35 35 34 31 31 31 31 31 31 31 29 26 25 23 22 18 15 14 12 11 11
29 31 33 35 36 37 39 40 41 42 43 44 43 42 43 45 43 47 45 44 48 40 35 43 36 29 30 32 31 31 31 30 28 24 22 21 18 14 14 12 12 13 14
30 32 35 37 39 39 40 40 42 43 44 44 45 47 47 44 43 37 40 42 44 40 37 31 32 31 30 32 32 31 31 29 25 22 19 17 16 13 13 14 13 12 11
34 36 36 38 38 39 42 44 44 44 44 44 44 44 45 44 40 42 42 44 40 41 35 31 34 34 32 31 31 30 29 26 23 20 18 16 15 13 13 15 14 13 11
39 40 41 43 43 39 39 42 43 44 44 43 42 42 42 40 41 43 39 36 36 36 39 36 35 34 32 32 31 28 25 23 22 20 19 16 16 16 13 13 12 13 15
39 39 39 43 47 47 42 41 42 45 46 45 44 43 41 40 40 39 39 39 41 38 35 38 36 34 33 33 30 28 26 23 22 21 20 18 19 16 14 13 14 14 14

GFSMA_700_spd_111.txt.gz
Wind_Speed
33 33 31 29 27 26 23 21 19 16 14 13 11 11 12 10 11 11 11 11 10 11 11 11 11 10 10 10 9 9 9 10 11 13 15 17 19 20 22 22 22 22 21
35 36 33 31 29 28 27 23 21 18 17 15 14 13 14 12 12 12 13 12 11 11 10 12 13 11 11 11 10 11 12 12 14 16 18 19 21 22 24 25 23 22 22
39 39 36 32 31 31 30 27 24 21 19 16 15 14 14 15 14 13 13 12 13 12 12 12 13 12 11 11 12 13 14 16 18 20 22 23 25 26 26 26 25 23 22
39 40 37 35 35 33 33 29 25 22 20 17 16 16 17 17 15 14 13 13 15 14 13 13 16 15 14 15 16 17 19 20 21 22 24 26 27 29 27 24 24 23 22
45 42 40 40 33 33 35 31 27 24 21 19 18 19 19 18 18 17 16 17 16 17 17 17 20 19 19 18 19 21 23 23 23 23 24 26 28 28 27 23 22 22 22
55 46 51 49 40 42 36 32 30 26 23 21 22 21 21 20 20 19 19 19 18 18 19 20 22 23 22 23 24 24 24 23 23 22 24 27 30 29 24 23 22 22 22
56 45 38 34 38 40 34 33 32 28 25 24 24 22 22 21 22 22 21 21 20 20 20 21 24 26 25 26 27 27 25 25 25 28 31 36 31 29 24 24 24 23 23
55 24 33 34 34 35 34 36 34 29 28 27 25 25 25 24 24 24 24 24 24 20 25 26 26 27 30 30 29 29 29 29 32 35 40 27 29 26 23 24 24 24 23
64 53 33 20 24 31 35 36 35 32 29 28 27 27 27 28 25 26 26 26 26 26 27 31 30 31 34 31 29 30 34 38 37 38 28 29 26 26 24 24 23 23 23
42 42 40 26 30 34 37 36 33 31 31 30 30 30 29 29 28 31 30 29 28 33 34 37 37 38 35 33 34 40 32 30 35 30 29 27 26 26 24 23 23 23 24
32 29 26 26 28 33 35 34 33 32 33 34 34 33 33 32 34 37 40 30 33 36 40 38 37 41 37 38 29 30 33 33 32 31 29 28 27 25 24 24 24 26 26
39 36 32 29 31 31 33 33 35 36 36 37 35 36 37 44 35 38 46 41 42 41 42 37 29 31 29 32 33 28 34 30 28 28 28 28 26 25 25 25 25 26 26
31 37 41 37 35 34 36 36 34 38 43 39 40 45 49 49 49 51 50 45 46 48 41 38 31 29 30 36 33 33 30 29 26 27 28 28 25 25 25 26 26 26 26
35 33 35 31 32 35 34 40 39 41 41 44 51 55 58 50 51 47 49 52 54 42 48 37 37 28 31 31 30 30 31 30 28 28 28 27 25 25 26 26 26 27 27
17 32 33 37 39 36 34 39 40 42 51 50 50 48 45 48 38 48 47 39 35 30 31 28 29 30 31 30 30 28 29 29 28 28 28 27 26 26 27 28 28 26 26
11 10 16 24 25 27 27 26 33 39 47 51 51 51 49 41 47 46 45 32 30 32 35 35 36 30 31 29 28 29 30 29 28 27 28 28 28 28 27 28 27 27 26
10 9 12 14 19 18 22 24 22 23 26 27 31 33 33 31 37 39 42 39 36 34 36 38 35 32 33 29 28 29 28 27 27 27 27 28 28 29 29 27 26 27 25
9 11 15 18 20 23 26 28 28 29 30 32 34 37 37 37 39 39 42 45 47 46 45 41 36 34 32 32 31 28 27 27 27 27 28 30 29 28 30 26 27 24 24
15 18 20 22 24 26 29 32 33 34 36 38 38 39 39 41 43 46 49 42 44 49 47 48 38 36 37 35 30 28 27 27 27 27 29 30 31 29 28 27 25 21 21
17 19 21 23 25 27 31 33 36 38 40 41 42 43 44 45 46 44 45 48 43 46 45 49 39 43 40 31 31 26 27 27 27 27 29 30 29 28 26 26 22 19 17
22 24 26 29 30 32 35 37 40 42 43 45 45 46 47 48 49 49 45 46 42 48 47 48 41 46 47 36 26 26 28 27 26 26 29 29 28 26 24 24 20 16 13
24 26 29 30 32 34 37 39 41 42 44 47 48 49 50 50 50 50 52 51 40 49 40 47 42 45 43 43 30 22 26 28 27 27 29 28 25 25 23 20 17 15 13
25 27 30 32 33 35 39 42 45 48 48 48 48 49 50 51 52 52 52 47 51 43 42 49 46 30 37 32 24 21 27 28 27 27 27 26 23 24 21 18 16 16 15
30 32 34 37 37 38 41 42 44 46 48 49 51 51 50 49 50 52 51 50 50 46 41 37 33 33 29 32 23 26 30 29 26 26 25 24 23 22 19 17 15 17 16
33 35 37 37 40 39 42 46 49 49 51 51 51 52 52 50 49 48 49 47 46 43 46 52 47 42 31 30 30 31 30 28 27 25 25 23 23 21 20 17 17 17 15
31 32 33 35 37 41 42 46 51 55 55 53 51 51 51 51 46 41 44 45 46 50 44 39 34 41 33 36 31 33 31 29 27 25 24 22 23 22 19 17 17 16 16

GFSMA_700_spd_114.txt.gz
Wind_Speed
29 30 28 28 28 27 26 24 21 19 16 15 13 12 12 11 11 11 11 10 10 10 11 11 11 11 11 11 12 10 9 10 11 12 15 17 19 20 22 23 25 25 23
31 32 31 30 30 30 29 27 25 22 19 18 15 14 14 12 12 12 12 12 11 11 12 13 12 13 13 13 13 13 12 12 13 16 18 19 21 22 23 25 25 25 23
34 36 36 35 33 32 30 31 30 27 24 19 17 15 15 14 13 13 13 13 12 10 11 13 14 13 14 13 15 18 16 16 18 19 20 21 22 23 24 25 25 25 23
28 35 38 37 38 35 34 35 33 30 25 20 19 18 16 16 15 15 14 14 13 13 14 14 14 14 16 17 18 20 21 21 21 23 22 21 20 21 24 26 25 22 23
35 36 38 35 46 41 38 39 36 32 27 23 21 20 19 18 17 17 16 16 16 16 17 17 17 17 18 19 21 24 24 25 24 24 23 22 24 28 28 29 25 23 21
37 41 40 40 46 47 43 39 39 34 29 26 25 23 21 20 19 18 18 19 19 19 19 20 19 19 20 23 26 29 29 27 26 26 26 28 31 33 32 30 24 23 22
42 41 43 44 48 58 43 38 40 38 29 31 28 25 24 23 21 20 21 20 21 20 20 22 20 22 23 24 27 29 29 29 29 30 30 32 36 37 29 25 22 22 23
45 47 46 40 46 42 45 42 38 36 33 33 31 29 28 26 23 23 23 23 22 22 22 22 22 22 27 31 31 32 31 31 32 33 34 30 38 30 29 24 23 23 22
46 38 44 44 28 38 46 43 38 35 32 34 32 32 31 29 26 27 27 26 28 24 24 25 28 30 34 35 33 35 33 33 37 34 29 35 33 28 27 24 24 22 21
31 28 41 43 42 25 29 35 46 32 35 36 36 34 32 31 31 33 31 31 32 29 29 31 32 35 36 35 36 38 38 36 32 29 33 33 30 28 27 25 25 23 22
31 34 33 30 39 48 34 22 24 30 35 31 38 35 34 35 36 35 41 40 37 36 38 36 38 42 43 39 34 41 30 33 29 30 32 31 29 26 26 26 24 24 24
25 35 36 33 32 33 35 27 31 34 35 35 34 36 37 38 38 43 40 40 43 42 40 42 43 41 45 45 31 33 32 33 34 32 30 30 26 25 26 25 24 25 25
36 25 27 26 31 30 34 35 32 35 36 38 39 42 41 36 42 40 42 53 57 57 50 43 45 46 45 39 33 34 29 27 31 29 30 29 27 27 26 25 25 26 25
31 30 29 28 30 33 32 35 38 41 43 50 44 36 37 42 49 44 47 52 61 52 52 43 42 39 47 48 35 31 30 28 29 28 28 27 27 26 25 25 26 26 26
24 22 28 29 32 33 33 33 35 41 38 37 40 40 43 43 45 52 61 58 53 51 46 42 39 25 32 30 30 33 26 27 28 29 29 27 26 25 24 24 27 27 28
10 13 20 29 34 32 32 29 30 35 36 31 38 43 46 43 42 45 50 49 41 38 46 42 29 28 31 33 32 30 25 27 27 28 27 25 25 23 24 24 26 28 28
10 11 10 11 14 17 21 24 23 22 29 30 30 30 31 31 36 36 38 38 36 37 42 38 34 38 38 40 36 28 27 24 26 26 25 26 24 24 24 24 25 27 27
9 8 10 13 14 16 20 22 26 30 32 34 34 34 35 36 39 41 41 40 38 42 42 46 44 49 45 39 35 31 31 26 29 27 27 25 25 25 25 25 25 26 26
9 11 12 14 16 19 22 25 29 32 34 36 37 39 41 42 43 44 46 48 46 42 40 45 49 50 48 50 41 34 35 28 28 28 27 25 25 24 26 26 24 24 24
11 14 15 17 19 22 24 27 30 33 36 38 40 41 43 45 46 48 48 49 50 51 50 47 45 48 47 46 47 44 37 36 32 27 23 25 26 25 26 27 23 24 21
15 17 19 21 23 26 29 32 35 37 40 41 43 45 47 48 49 50 52 52 52 52 52 50 51 46 46 41 39 41 44 40 33 27 21 26 26 25 25 25 23 21 20
17 20 21 23 26 29 32 35 37 39 42 45 46 47 49 51 52 54 55 55 56 54 54 53 42 53 44 43 41 42 41 36 38 22 24 24 26 25 25 24 21 21 19
18 21 23 25 28 31 34 37 41 43 45 47 49 51 50 50 51 54 55 56 56 54 54 47 47 50 48 42 37 45 32 25 23 22 24 27 25 25 24 23 21 20 19
23 24 26 28 29 32 35 37 40 43 45 48 50 52 53 55 54 54 55 54 51 48 46 47 44 43 39 42 38 36 35 33 27 27 26 28 24 24 23 20 20 20 18
23 25 26 28 30 32 36 39 42 44 46 48 51 54 57 58 56 53 55 54 49 43 42 43 43 50 45 45 38 38 32 33 24 26 27 25 21 24 22 21 20 19 18
23 25 27 29 32 32 33 35 40 45 47 51 55 58 58 55 50 46 46 47 48 44 44 47 46 50 39 44 53 49 41 37 31 30 27 25 23 23 22 21 20 19 18

GFSMA_700_spd_117.txt.gz
Wind_Speed
22 25 26 24 24 25 24 24 23 21 19 16 15 13 13 13 13 13 12 11 10 10 10 11 11 10 10 11 11 11 10 10 12 13 13 15 16 18 19 20 21 22 23
25 26 27 27 27 26 27 27 26 25 24 21 19 16 15 14 14 14 14 13 11 11 12 12 12 11 11 11 11 12 13 12 14 17 17 18 19 19 19 19 20 23 23
25 25 26 29 28 28 30 29 31 29 28 25 23 20 18 16 15 15 15 14 13 12 12 12 13 13 13 12 12 14 15 16 17 21 22 22 21 20 20 22 25 27 26
19 20 27 29 30 32 33 35 36 34 32 28 26 23 21 19 17 16 16 15 15 15 14 14 14 14 14 15 16 17 18 20 22 24 25 25 24 24 25 27 30 31 28
23 22 24 27 33 30 31 30 41 38 37 31 30 27 26 22 20 19 17 17 18 18 17 17 17 17 16 16 17 19 21 24 27 27 29 29 28 27 29 31 33 32 29
25 24 29 31 34 37 36 32 41 39 38 34 36 31 30 26 23 21 20 20 21 21 20 19 18 19 19 17 19 20 22 25 28 30 31 32 31 32 34 38 32 29 23
32 36 37 35 37 40 37 37 39 50 41 35 40 35 33 29 25 24 23 23 22 22 21 20 20 21 20 21 21 23 26 28 30 32 34 33 35 37 35 35 30 24 23
39 39 37 37 39 40 40 42 39 50 40 45 39 37 37 32 28 27 25 25 24 24 23 23 22 22 24 26 28 33 35 32 32 35 35 34 36 30 32 30 23 23 23
43 42 43 40 39 43 40 36 44 47 39 45 42 38 40 34 31 29 28 27 27 26 27 26 28 27 26 29 32 37 32 33 32 39 33 28 29 31 29 27 23 23 23
39 35 33 32 34 33 32 36 38 41 39 40 40 42 36 30 32 33 30 29 29 30 32 37 39 39 37 42 37 40 37 36 37 32 29 27 29 31 27 26 25 24 23
32 29 28 24 27 31 39 37 33 30 36 43 48 48 34 33 34 35 36 36 37 34 35 36 36 37 43 40 39 41 39 40 41 29 30 29 28 27 26 24 24 24 24
30 26 20 24 31 32 32 36 38 40 39 35 39 38 31 32 33 42 40 37 37 41 46 42 41 49 53 48 43 46 45 46 33 29 29 27 29 27 27 26 25 24 24
24 24 26 23 28 28 31 33 31 34 28 27 30 32 37 39 41 38 38 45 43 38 44 49 46 47 53 50 46 46 41 41 39 31 22 28 29 25 26 26 25 24 24
27 26 29 29 18 34 29 28 30 28 29 31 35 35 38 44 40 48 46 42 44 47 52 52 48 48 45 41 39 37 41 39 33 28 29 24 26 26 27 26 26 25 24
23 22 26 30 27 27 26 24 29 34 37 37 37 38 41 45 49 46 42 44 50 54 55 52 38 34 35 37 32 26 33 34 33 36 31 26 27 27 27 28 27 25 26
15 21 21 19 20 25 30 29 27 28 32 35 36 38 37 33 35 41 41 51 49 49 50 47 40 33 36 31 30 31 35 32 39 38 32 27 25 27 29 28 27 26 27
17 16 9 10 9 16 24 18 23 26 24 27 33 36 33 33 34 36 36 39 38 39 45 42 40 38 36 35 36 41 35 38 44 43 34 28 28 27 28 28 27 28 27
10 11 12 11 8 8 13 11 19 25 26 25 25 31 34 35 38 38 40 41 42 43 46 47 45 48 41 44 43 47 49 46 39 50 40 31 31 27 27 28 26 27 29
4 2 4 7 9 12 14 16 19 21 26 29 32 34 36 39 41 42 43 45 46 46 47 49 51 49 47 47 44 45 46 49 43 48 46 37 31 28 27 28 26 28 28
5 7 8 10 13 15 18 20 22 25 28 31 33 36 38 42 43 45 47 48 49 51 52 52 54 53 52 49 47 53 45 43 38 42 49 42 39 35 27 26 28 29 28
9 12 14 15 18 20 22 25 26 28 31 34 36 39 42 44 46 49 52 52 53 54 55 55 56 56 54 50 47 48 48 49 38 38 42 40 40 32 29 30 31 29 28
12 14 15 17 19 21 24 25 27 29 32 34 37 39 42 44 47 49 51 53 55 55 56 55 54 52 52 48 37 41 47 43 47 36 37 38 37 28 29 31 30 27 27
12 14 16 19 21 23 25 28 29 32 34 37 40 43 44 46 49 51 52 54 56 56 55 54 52 49 40 40 43 47 51 43 39 35 32 33 30 25 30 29 29 26 25
14 16 17 19 22 24 26 29 32 35 38 40 42 45 48 49 51 54 57 58 57 54 49 48 49 46 43 48 45 43 39 40 46 43 35 37 31 32 33 29 27 24 24
17 18 19 21 24 27 30 32 33 35 37 38 40 42 45 49 51 56 59 61 60 56 46 44 42 40 41 45 38 45 45 50 43 42 43 44 35 33 32 30 26 25 25
18 20 21 23 25 27 29 31 33 34 36 36 36 38 40 43 46 49 52 53 54 50 46 43 41 39 43 45 42 43 44 44 42 42 38 44 40 33 34 28 26 26 25

GFSMA_700_spd_120.txt.gz
Wind_Speed
24 21 20 21 20 22 23 24 23 22 21 19 18 17 15 15 15 14 14 14 15 15 14 14 13 13 13 12 12 12 11 11 11 12 14 16 18 20 22 23 22 22 23
21 24 22 23 22 23 23 24 26 26 25 24 22 21 19 18 17 16 16 16 16 16 15 15 14 13 12 12 13 12 13 13 14 16 18 20 22 24 25 24 25 25 27
21 22 24 23 22 23 25 26 27 28 30 29 28 25 22 21 19 19 19 18 18 17 16 15 15 15 14 14 14 14 14 15 16 19 22 24 26 27 27 27 27 29 31
20 19 18 20 23 23 23 26 30 32 32 33 32 30 27 25 23 21 21 21 20 19 18 17 17 17 17 17 16 16 16 17 18 22 25 26 27 28 29 31 32 31 35
21 21 20 22 23 23 24 28 29 31 31 35 33 34 34 29 26 25 23 23 22 22 21 20 19 19 19 19 19 19 19 19 21 23 26 29 30 32 34 34 36 37 35
25 26 26 25 23 24 26 30 32 32 30 36 35 38 41 35 30 28 25 25 24 24 24 23 21 20 19 20 20 22 22 22 24 29 31 31 33 34 36 36 35 33 32
28 24 23 24 27 31 31 37 39 38 36 34 39 40 39 44 38 31 30 27 27 25 25 25 23 22 22 23 24 24 25 26 30 33 29 31 31 33 33 30 33 28 24
32 34 33 35 36 36 36 34 40 42 40 39 37 41 45 46 41 34 33 31 30 28 26 26 25 25 23 22 24 26 27 31 35 34 32 32 34 28 30 28 28 26 24
36 37 37 39 40 39 41 40 41 46 44 38 43 35 35 41 42 40 39 35 27 27 28 26 28 27 27 29 30 33 38 38 44 40 36 35 34 29 30 31 29 26 24
36 37 37 38 39 38 38 38 39 42 42 36 31 35 42 44 44 53 49 42 29 27 29 27 28 32 31 37 42 42 39 46 41 37 39 36 43 31 29 29 27 27 24
36 34 36 36 35 34 32 31 32 28 32 30 30 36 38 42 49 52 44 38 34 35 36 38 44 43 42 35 45 46 47 51 42 39 40 41 37 32 30 27 29 29 28
34 34 32 31 27 30 27 27 34 33 32 32 32 31 35 45 44 45 40 36 41 43 45 48 49 43 42 47 47 50 51 51 39 39 43 44 34 33 31 29 31 31 31
31 27 28 28 28 25 22 29 33 36 33 33 36 33 38 42 40 39 40 39 41 39 39 39 44 40 42 44 45 52 49 46 41 39 35 40 36 36 33 30 30 30 31
31 29 27 28 30 30 24 24 30 30 30 28 34 30 28 30 33 36 39 38 41 45 47 43 41 41 48 44 41 43 39 38 38 34 37 38 38 30 33 32 31 32 31
33 33 27 30 29 27 25 18 25 35 29 32 26 29 32 32 34 34 36 42 48 49 42 43 44 44 47 46 37 38 37 33 32 30 35 37 38 33 35 36 34 33 32
27 24 25 19 17 18 23 24 27 25 22 23 26 33 33 36 39 41 37 36 39 39 41 41 40 37 37 36 38 39 38 34 37 34 38 36 36 37 37 39 35 35 35
24 22 18 15 15 11 15 23 24 28 28 25 25 23 26 29 31 33 36 39 38 40 43 45 45 45 46 43 44 45 36 38 37 42 37 37 40 46 45 45 36 37 37
15 15 19 11 9 8 8 7 9 8 13 14 23 23 30 27 27 36 39 39 42 44 46 51 51 51 50 48 48 46 47 44 45 42 42 41 45 44 47 47 43 39 38
14 11 12 12 10 7 8 10 11 15 16 20 22 26 30 33 36 39 42 45 46 48 49 53 55 55 54 53 52 48 48 46 44 45 46 49 46 42 48 52 48 42 38
7 4 5 7 9 11 13 15 16 19 21 24 28 31 34 37 40 43 45 48 50 52 54 56 57 59 59 57 55 53 49 44 48 45 48 48 44 42 43 50 49 43 37
5 7 9 10 13 14 16 19 20 23 26 29 32 35 37 40 42 44 47 49 51 53 55 56 58 58 60 59 57 55 54 48 45 45 47 45 49 45 46 46 49 46 38
8 10 11 13 14 16 17 19 23 25 27 29 32 34 37 39 43 45 48 51 54 56 57 59 59 59 59 58 55 52 48 49 49 46 47 51 50 51 40 39 38 43 44
10 11 13 15 16 17 19 19 22 25 28 31 34 37 40 43 46 48 50 52 53 53 56 57 59 57 57 51 48 47 43 44 48 43 46 43 46 43 37 40 41 40 38
12 12 14 16 18 20 21 23 26 29 31 34 36 39 41 43 46 49 51 53 54 55 56 57 58 58 53 50 44 42 42 44 46 48 44 45 54 43 42 44 41 37 36
13 16 18 20 22 24 26 28 29 31 33 34 36 38 40 42 44 44 47 49 51 52 53 54 54 53 51 48 45 44 44 44 46 43 45 46 47 45 45 44 43 43 33
16 18 21 23 25 27 28 29 30 32 33 33 35 37 38 39 41 43 46 48 49 46 45 43 42 42 40 40 43 45 45 46 40 43 40 36 42 46 51 46 49 42 31

GFSMA_700_spd_123.txt.gz
Wind_Speed
28 26 24 22 20 19 19 20 21 22 22 20 20 20 19 18 17 16 15 14 15 16 15 15 15 15 15 14 14 13 13 12 12 12 14 16 17 20 21 23 24 26 27
23 22 24 24 22 20 19 20 21 23 24 23 23 24 23 22 20 19 18 18 16 18 17 17 17 15 15 15 15 14 14 13 13 14 16 18 20 23 25 26 26 28 29
25 25 23 23 23 23 22 24 24 22 25 24 26 27 28 27 25 23 22 21 20 18 19 18 18 17 16 16 16 15 15 16 16 16 18 20 23 26 27 28 30 31 32
26 24 25 24 23 23 24 22 21 23 28 26 27 29 30 32 30 28 27 25 22 20 19 19 19 18 18 18 18 18 18 19 19 19 21 21 24 28 31 32 32 34 35
30 27 25 23 23 22 21 22 24 24 26 28 27 26 33 29 33 33 30 30 27 23 23 21 20 20 20 20 20 21 21 21 20 21 22 25 30 30 31 31 32 34 35
31 31 28 25 24 23 22 24 25 25 26 28 31 33 31 35 36 38 37 38 33 28 24 24 23 22 21 22 22 22 22 23 23 24 27 29 34 31 31 29 33 33 31
35 33 29 27 27 27 24 24 26 29 31 31 33 37 36 35 37 38 40 38 36 38 29 28 23 23 22 23 23 23 23 24 25 29 30 35 39 37 37 32 32 32 31
37 35 31 29 28 26 30 32 34 34 37 35 38 38 43 40 37 35 39 39 47 36 35 30 25 25 23 24 24 24 24 24 28 34 39 41 43 39 36 36 35 35 33
41 40 37 35 34 37 37 36 38 38 41 42 39 40 43 43 40 37 35 41 42 44 42 37 34 28 28 31 28 29 26 31 37 41 43 44 44 41 38 33 37 35 35
45 43 39 40 39 38 39 40 38 40 43 42 44 44 43 41 43 40 35 37 42 44 44 46 41 33 36 37 37 38 38 42 44 42 46 45 46 38 39 35 36 32 36
45 43 42 41 39 39 38 40 40 37 35 36 39 39 39 33 38 39 40 39 44 45 44 49 52 48 40 40 43 47 46 43 46 47 49 47 41 39 37 36 34 36 38
45 43 42 38 38 37 37 34 31 31 31 33 30 30 31 33 32 43 44 46 47 46 45 44 45 40 41 48 52 49 42 45 43 46 44 42 40 41 36 37 37 39 39
41 40 37 37 36 36 35 32 29 31 31 33 33 29 33 34 32 35 40 43 41 38 39 36 39 41 42 43 40 41 41 46 46 41 38 34 36 38 34 39 38 39 39
38 36 38 36 31 31 31 31 31 29 28 30 33 34 33 32 36 36 34 37 36 34 34 37 37 38 39 38 44 37 41 37 43 37 37 38 36 34 35 31 38 35 36
39 36 34 33 33 31 34 31 32 29 31 33 32 27 28 34 31 27 29 31 35 38 36 33 36 30 33 34 36 36 37 34 33 37 38 37 34 33 31 33 34 37 37
36 34 35 36 37 34 30 33 29 26 25 21 22 26 31 27 27 30 31 31 35 40 41 36 38 39 39 38 40 39 42 43 42 42 42 39 36 34 37 35 35 37 38
36 37 36 33 28 33 21 22 23 20 19 24 21 22 26 26 30 31 32 34 34 34 41 43 48 45 47 47 47 47 47 48 48 45 44 41 41 44 41 44 44 43 42
37 37 40 27 22 18 14 15 16 13 16 16 8 16 23 21 23 24 28 32 34 37 45 49 50 52 52 52 52 52 52 52 53 52 51 50 42 44 45 42 46 42 44
16 20 20 18 20 16 11 11 11 13 15 17 16 18 24 23 24 30 35 38 41 44 47 52 55 56 57 57 58 57 56 56 56 54 54 55 46 47 50 49 45 47 42
12 11 3 11 17 12 7 10 13 15 16 17 19 21 26 29 32 35 39 42 45 48 50 54 57 58 59 60 60 60 61 59 58 55 53 49 49 51 49 55 52 49 52
5 4 3 4 6 9 12 15 17 19 21 22 25 27 29 33 35 39 42 44 47 50 52 54 56 58 59 60 61 60 61 59 57 55 52 48 47 50 49 48 53 57 60
4 5 6 8 10 13 15 17 19 21 23 24 26 28 31 34 37 40 43 45 48 51 52 54 57 58 59 58 57 58 59 58 58 55 49 48 45 45 47 51 50 51 45
6 7 9 11 13 14 16 17 20 21 23 25 27 30 33 36 39 41 45 46 47 48 51 53 56 56 58 57 59 59 57 55 54 47 46 45 40 44 48 46 52 54 52
8 9 10 12 14 15 17 19 21 22 25 28 31 33 36 38 41 44 45 47 46 46 48 52 55 56 56 56 55 55 54 53 49 44 38 43 43 44 36 46 39 47 45
10 11 12 14 16 18 19 21 23 26 28 30 33 35 37 39 41 43 45 46 46 46 48 48 48 47 47 46 45 48 46 45 46 41 38 41 44 45 41 36 35 38 47
13 14 16 18 20 21 22 24 25 27 29 31 34 36 39 40 41 42 44 45 46 45 43 40 37 36 35 36 37 40 41 41 39 40 37 38 36 36 32 39 34 36 49